Wetterdaten: Freitag, 03.01.2025
Datum Zeit Temp. I. Temp. A. Feuchte I. Feuchte A. Luftdruck Regen Wind Richtung Richtung Sonnenschein Solar Taupunkt Windchill Windböen
03.01.2025 00:00 22,0 °C 1,4 °C 54 % 89 % 1013,5 hPa 0,0 l/m² 10,6 km/h (2 Bft) S-SW 213 ° 0 min 0 W/m² -0,2 °C -2,4 °C 12,9 km/h (3 Bft)
03.01.2025 00:01 22,0 °C 1,4 °C 54 % 89 % 1013,5 hPa 0,0 l/m² 10,8 km/h (2 Bft) S-SW 201 ° 0 min 0 W/m² -0,2 °C -2,5 °C 14,5 km/h (3 Bft)
03.01.2025 00:02 22,0 °C 1,4 °C 54 % 88 % 1013,5 hPa 0,0 l/m² 10,6 km/h (2 Bft) S-SW 205 ° 0 min 0 W/m² -0,4 °C -2,4 °C 14,5 km/h (3 Bft)
03.01.2025 00:03 22,0 °C 1,5 °C 54 % 89 % 1013,5 hPa 0,0 l/m² 12,5 km/h (2 Bft) S-SW 204 ° 0 min 0 W/m² -0,1 °C -3,6 °C 16,1 km/h (3 Bft)
03.01.2025 00:04 22,0 °C 1,5 °C 54 % 88 % 1013,5 hPa 0,0 l/m² 13,2 km/h (3 Bft) S-SW 199 ° 0 min 0 W/m² -0,3 °C -4,1 °C 16,1 km/h (3 Bft)
03.01.2025 00:06 22,0 °C 1,4 °C 54 % 88 % 1013,5 hPa 0,0 l/m² 11,3 km/h (2 Bft) S-SW 205 ° 0 min 0 W/m² -0,4 °C -2,9 °C 16,1 km/h (3 Bft)
03.01.2025 00:08 22,0 °C 1,4 °C 54 % 88 % 1013,5 hPa 0,0 l/m² 11,7 km/h (2 Bft) SW 217 ° 0 min 0 W/m² -0,4 °C -3,2 °C 16,1 km/h (3 Bft)
03.01.2025 00:09 22,0 °C 1,4 °C 54 % 88 % 1013,5 hPa 0,0 l/m² 13,9 km/h (3 Bft) S-SW 207 ° 0 min 0 W/m² -0,4 °C -4,6 °C 17,7 km/h (3 Bft)
03.01.2025 00:10 21,9 °C 1,4 °C 54 % 88 % 1013,5 hPa 0,0 l/m² 11,2 km/h (2 Bft) S-SW 207 ° 0 min 0 W/m² -0,4 °C -2,8 °C 14,5 km/h (3 Bft)
03.01.2025 00:12 22,0 °C 1,4 °C 54 % 88 % 1013,5 hPa 0,0 l/m² 9,4 km/h (2 Bft) S-SW 207 ° 0 min 0 W/m² -0,4 °C -1,4 °C 12,9 km/h (3 Bft)
03.01.2025 00:13 22,0 °C 1,4 °C 54 % 88 % 1013,5 hPa 0,0 l/m² 9,5 km/h (2 Bft) S-SW 207 ° 0 min 0 W/m² -0,4 °C -1,5 °C 11,3 km/h (2 Bft)
03.01.2025 00:14 22,0 °C 1,4 °C 54 % 88 % 1013,5 hPa 0,0 l/m² 8,2 km/h (2 Bft) S-SW 206 ° 0 min 0 W/m² -0,4 °C -0,4 °C 12,9 km/h (3 Bft)
03.01.2025 00:15 21,9 °C 1,4 °C 54 % 88 % 1013,5 hPa 0,0 l/m² 7,8 km/h (2 Bft) S-SW 207 ° 0 min 0 W/m² -0,4 °C 0,0 °C 11,3 km/h (2 Bft)
03.01.2025 00:17 22,0 °C 1,4 °C 54 % 88 % 1013,4 hPa 0,0 l/m² 7,9 km/h (2 Bft) S-SW 211 ° 0 min 0 W/m² -0,4 °C -0,1 °C 11,3 km/h (2 Bft)
03.01.2025 00:18 21,9 °C 1,3 °C 54 % 88 % 1013,5 hPa 0,0 l/m² 8,2 km/h (2 Bft) S-SW 210 ° 0 min 0 W/m² -0,5 °C -0,5 °C 11,3 km/h (2 Bft)
03.01.2025 00:19 22,0 °C 1,3 °C 54 % 88 % 1013,5 hPa 0,0 l/m² 8,2 km/h (2 Bft) S-SW 210 ° 0 min 0 W/m² -0,5 °C -0,5 °C 9,7 km/h (2 Bft)
03.01.2025 00:20 21,9 °C 1,3 °C 54 % 88 % 1013,5 hPa 0,0 l/m² 9,9 km/h (2 Bft) SW 218 ° 0 min 0 W/m² -0,5 °C -1,9 °C 14,5 km/h (3 Bft)
03.01.2025 00:22 21,9 °C 1,3 °C 54 % 88 % 1013,5 hPa 0,0 l/m² 8,3 km/h (2 Bft) SW 215 ° 0 min 0 W/m² -0,5 °C -0,6 °C 11,3 km/h (2 Bft)
03.01.2025 00:24 21,9 °C 1,2 °C 54 % 88 % 1013,5 hPa 0,0 l/m² 7,6 km/h (2 Bft) SW 223 ° 0 min 0 W/m² -0,6 °C -0,0 °C 11,3 km/h (2 Bft)
03.01.2025 00:26 21,9 °C 1,2 °C 54 % 88 % 1013,5 hPa 0,0 l/m² 8,3 km/h (2 Bft) SW 226 ° 0 min 0 W/m² -0,6 °C -0,7 °C 16,1 km/h (3 Bft)
03.01.2025 00:28 21,9 °C 1,2 °C 54 % 88 % 1013,5 hPa 0,0 l/m² 10,6 km/h (2 Bft) SW 234 ° 0 min 0 W/m² -0,6 °C -2,6 °C 17,7 km/h (3 Bft)
03.01.2025 00:30 21,9 °C 1,2 °C 54 % 88 % 1013,5 hPa 0,0 l/m² 9,6 km/h (2 Bft) SW 219 ° 0 min 0 W/m² -0,6 °C -1,8 °C 12,9 km/h (3 Bft)
03.01.2025 00:31 21,9 °C 1,2 °C 54 % 88 % 1013,3 hPa 0,0 l/m² 9,6 km/h (2 Bft) SW 232 ° 0 min 0 W/m² -0,6 °C -1,8 °C 12,9 km/h (3 Bft)
03.01.2025 00:33 21,9 °C 1,2 °C 54 % 88 % 1013,4 hPa 0,0 l/m² 11,8 km/h (2 Bft) SW 236 ° 0 min 0 W/m² -0,6 °C -3,5 °C 19,3 km/h (3 Bft)
03.01.2025 00:34 21,9 °C 1,3 °C 54 % 88 % 1013,4 hPa 0,0 l/m² 9,7 km/h (2 Bft) SW 232 ° 0 min 0 W/m² -0,5 °C -1,8 °C 16,1 km/h (3 Bft)
03.01.2025 00:35 21,9 °C 1,3 °C 54 % 88 % 1013,4 hPa 0,0 l/m² 11,3 km/h (2 Bft) SW 232 ° 0 min 0 W/m² -0,5 °C -3,0 °C 19,3 km/h (3 Bft)
03.01.2025 00:36 21,9 °C 1,3 °C 54 % 88 % 1013,4 hPa 0,0 l/m² 13,8 km/h (3 Bft) W-SW 244 ° 0 min 0 W/m² -0,5 °C -4,7 °C 19,3 km/h (3 Bft)
03.01.2025 00:38 21,9 °C 1,3 °C 54 % 88 % 1013,4 hPa 0,0 l/m² 14,3 km/h (3 Bft) SW 235 ° 0 min 0 W/m² -0,5 °C -5,0 °C 22,5 km/h (4 Bft)
03.01.2025 00:39 21,9 °C 1,3 °C 54 % 88 % 1013,3 hPa 0,0 l/m² 11,9 km/h (2 Bft) SW 233 ° 0 min 0 W/m² -0,5 °C -3,4 °C 16,1 km/h (3 Bft)
03.01.2025 00:40 21,9 °C 1,3 °C 54 % 88 % 1013,4 hPa 0,0 l/m² 15,0 km/h (3 Bft) SW 229 ° 0 min 0 W/m² -0,5 °C -5,4 °C 20,9 km/h (4 Bft)
03.01.2025 00:41 21,9 °C 1,3 °C 54 % 89 % 1013,4 hPa 0,0 l/m² 17,2 km/h (3 Bft) W-SW 238 ° 0 min 0 W/m² -0,3 °C -6,6 °C 24,1 km/h (4 Bft)
03.01.2025 00:43 21,9 °C 1,3 °C 54 % 89 % 1013,4 hPa 0,0 l/m² 17,1 km/h (3 Bft) W-SW 246 ° 0 min 0 W/m² -0,3 °C -6,6 °C 22,5 km/h (4 Bft)
03.01.2025 00:44 21,9 °C 1,4 °C 54 % 89 % 1013,4 hPa 0,0 l/m² 15,4 km/h (3 Bft) SW 226 ° 0 min 0 W/m² -0,2 °C -5,5 °C 20,9 km/h (4 Bft)
03.01.2025 00:45 21,9 °C 1,3 °C 54 % 89 % 1013,5 hPa 0,0 l/m² 15,8 km/h (3 Bft) S-SW 211 ° 0 min 0 W/m² -0,3 °C -5,9 °C 20,9 km/h (4 Bft)
03.01.2025 00:46 21,9 °C 1,4 °C 54 % 89 % 1013,5 hPa 0,0 l/m² 13,5 km/h (3 Bft) W-SW 241 ° 0 min 0 W/m² -0,2 °C -4,4 °C 19,3 km/h (3 Bft)
03.01.2025 00:48 21,9 °C 1,3 °C 54 % 88 % 1013,3 hPa 0,0 l/m² 15,8 km/h (3 Bft) SW 218 ° 0 min 0 W/m² -0,5 °C -5,9 °C 20,9 km/h (4 Bft)
03.01.2025 00:49 21,9 °C 1,3 °C 54 % 88 % 1013,5 hPa 0,0 l/m² 15,5 km/h (3 Bft) W-SW 250 ° 0 min 0 W/m² -0,5 °C -5,7 °C 20,9 km/h (4 Bft)
03.01.2025 00:51 21,9 °C 1,3 °C 54 % 88 % 1013,5 hPa 0,0 l/m² 16,5 km/h (3 Bft) SW 232 ° 0 min 0 W/m² -0,5 °C -6,2 °C 22,5 km/h (4 Bft)
03.01.2025 00:53 21,9 °C 1,4 °C 54 % 88 % 1013,4 hPa 0,0 l/m² 17,0 km/h (3 Bft) W-SW 238 ° 0 min 0 W/m² -0,4 °C -6,4 °C 22,5 km/h (4 Bft)
03.01.2025 00:54 21,9 °C 1,4 °C 54 % 88 % 1013,4 hPa 0,0 l/m² 15,8 km/h (3 Bft) SW 228 ° 0 min 0 W/m² -0,4 °C -5,7 °C 19,3 km/h (3 Bft)
03.01.2025 00:55 21,9 °C 1,4 °C 54 % 88 % 1013,4 hPa 0,0 l/m² 16,7 km/h (3 Bft) W-SW 242 ° 0 min 0 W/m² -0,4 °C -6,2 °C 22,5 km/h (4 Bft)
03.01.2025 00:57 21,9 °C 1,4 °C 54 % 88 % 1013,4 hPa 0,0 l/m² 14,8 km/h (3 Bft) SW 224 ° 0 min 0 W/m² -0,4 °C -5,2 °C 19,3 km/h (3 Bft)
03.01.2025 00:58 21,9 °C 1,4 °C 54 % 88 % 1013,4 hPa 0,0 l/m² 14,8 km/h (3 Bft) W-SW 246 ° 0 min 0 W/m² -0,4 °C -5,2 °C 22,5 km/h (4 Bft)
03.01.2025 00:59 21,9 °C 1,4 °C 54 % 88 % 1013,4 hPa 0,0 l/m² 16,1 km/h (3 Bft) SW 231 ° 0 min 0 W/m² -0,4 °C -5,9 °C 22,5 km/h (4 Bft)
03.01.2025 01:00 21,9 °C 1,4 °C 54 % 88 % 1013,4 hPa 0,0 l/m² 17,3 km/h (3 Bft) W-SW 237 ° 0 min 0 W/m² -0,4 °C -6,5 °C 22,5 km/h (4 Bft)
03.01.2025 01:02 21,9 °C 1,4 °C 54 % 88 % 1013,5 hPa 0,0 l/m² 16,8 km/h (3 Bft) SW 236 ° 0 min 0 W/m² -0,4 °C -6,3 °C 20,9 km/h (4 Bft)
03.01.2025 01:04 21,9 °C 1,4 °C 54 % 88 % 1013,4 hPa 0,0 l/m² 15,5 km/h (3 Bft) W-SW 242 ° 0 min 0 W/m² -0,4 °C -5,6 °C 24,1 km/h (4 Bft)
03.01.2025 01:05 21,9 °C 1,5 °C 54 % 88 % 1013,5 hPa 0,0 l/m² 16,6 km/h (3 Bft) SW 228 ° 0 min 0 W/m² -0,3 °C -6,0 °C 20,9 km/h (4 Bft)
03.01.2025 01:07 21,8 °C 1,5 °C 54 % 88 % 1013,5 hPa 0,0 l/m² 19,7 km/h (3 Bft) SW 229 ° 0 min 0 W/m² -0,3 °C -7,6 °C 24,1 km/h (4 Bft)
03.01.2025 01:09 21,8 °C 1,6 °C 54 % 88 % 1013,5 hPa 0,0 l/m² 16,3 km/h (3 Bft) W-SW 240 ° 0 min 0 W/m² -0,2 °C -5,8 °C 20,9 km/h (4 Bft)
03.01.2025 01:10 21,8 °C 1,6 °C 54 % 88 % 1013,4 hPa 0,0 l/m² 16,6 km/h (3 Bft) SW 227 ° 0 min 0 W/m² -0,2 °C -5,9 °C 22,5 km/h (4 Bft)
03.01.2025 01:11 21,8 °C 1,6 °C 54 % 88 % 1013,4 hPa 0,0 l/m² 11,9 km/h (2 Bft) W-SW 237 ° 0 min 0 W/m² -0,2 °C -3,1 °C 16,1 km/h (3 Bft)
03.01.2025 01:13 21,8 °C 1,6 °C 54 % 88 % 1013,4 hPa 0,0 l/m² 14,3 km/h (3 Bft) SW 236 ° 0 min 0 W/m² -0,2 °C -4,6 °C 20,9 km/h (4 Bft)
03.01.2025 01:15 21,8 °C 1,6 °C 54 % 88 % 1013,3 hPa 0,0 l/m² 15,4 km/h (3 Bft) SW 225 ° 0 min 0 W/m² -0,2 °C -5,3 °C 24,1 km/h (4 Bft)
03.01.2025 01:16 21,8 °C 1,7 °C 54 % 88 % 1013,5 hPa 0,0 l/m² 16,8 km/h (3 Bft) SW 223 ° 0 min 0 W/m² -0,1 °C -5,9 °C 24,1 km/h (4 Bft)
03.01.2025 01:18 21,8 °C 1,7 °C 54 % 88 % 1013,4 hPa 0,0 l/m² 15,6 km/h (3 Bft) SW 220 ° 0 min 0 W/m² -0,1 °C -5,3 °C 24,1 km/h (4 Bft)
03.01.2025 01:20 21,8 °C 1,7 °C 54 % 88 % 1013,4 hPa 0,0 l/m² 16,3 km/h (3 Bft) SW 229 ° 0 min 0 W/m² -0,1 °C -5,6 °C 25,7 km/h (4 Bft)
03.01.2025 01:22 21,8 °C 1,7 °C 54 % 88 % 1013,4 hPa 0,0 l/m² 13,0 km/h (3 Bft) SW 222 ° 0 min 0 W/m² -0,1 °C -3,7 °C 20,9 km/h (4 Bft)
03.01.2025 01:24 21,8 °C 1,8 °C 54 % 88 % 1013,4 hPa 0,0 l/m² 17,4 km/h (3 Bft) S-SW 211 ° 0 min 0 W/m² 0,0 °C -6,1 °C 22,5 km/h (4 Bft)
03.01.2025 01:26 21,8 °C 1,8 °C 54 % 88 % 1013,4 hPa 0,0 l/m² 12,3 km/h (2 Bft) SW 227 ° 0 min 0 W/m² 0,0 °C -3,1 °C 19,3 km/h (3 Bft)
03.01.2025 01:28 21,8 °C 1,8 °C 54 % 88 % 1013,4 hPa 0,0 l/m² 12,9 km/h (3 Bft) W-SW 248 ° 0 min 0 W/m² 0,0 °C -3,5 °C 19,3 km/h (3 Bft)
03.01.2025 01:30 21,8 °C 1,8 °C 54 % 88 % 1013,4 hPa 0,0 l/m² 14,1 km/h (3 Bft) SW 221 ° 0 min 0 W/m² 0,0 °C -4,3 °C 20,9 km/h (4 Bft)
03.01.2025 01:31 21,8 °C 1,8 °C 54 % 88 % 1013,4 hPa 0,0 l/m² 13,2 km/h (3 Bft) SW 225 ° 0 min 0 W/m² 0,0 °C -3,7 °C 17,7 km/h (3 Bft)
03.01.2025 01:33 21,8 °C 1,8 °C 54 % 88 % 1013,4 hPa 0,0 l/m² 13,5 km/h (3 Bft) W-SW 244 ° 0 min 0 W/m² 0,0 °C -3,9 °C 19,3 km/h (3 Bft)
03.01.2025 01:35 21,8 °C 1,8 °C 54 % 88 % 1013,4 hPa 0,0 l/m² 12,8 km/h (3 Bft) SW 230 ° 0 min 0 W/m² 0,0 °C -3,5 °C 19,3 km/h (3 Bft)
03.01.2025 01:37 21,8 °C 1,8 °C 54 % 88 % 1013,3 hPa 0,0 l/m² 12,0 km/h (2 Bft) SW 235 ° 0 min 0 W/m² 0,0 °C -2,9 °C 16,1 km/h (3 Bft)
03.01.2025 01:38 21,8 °C 1,8 °C 54 % 88 % 1013,3 hPa 0,0 l/m² 13,3 km/h (3 Bft) W-SW 244 ° 0 min 0 W/m² 0,0 °C -3,8 °C 17,7 km/h (3 Bft)
03.01.2025 01:40 21,8 °C 1,8 °C 54 % 88 % 1013,3 hPa 0,0 l/m² 12,9 km/h (3 Bft) SW 230 ° 0 min 0 W/m² 0,0 °C -3,5 °C 19,3 km/h (3 Bft)
03.01.2025 01:42 21,8 °C 1,8 °C 54 % 88 % 1013,2 hPa 0,0 l/m² 13,4 km/h (3 Bft) SW 236 ° 0 min 0 W/m² 0,0 °C -3,8 °C 17,7 km/h (3 Bft)
03.01.2025 01:43 21,8 °C 1,8 °C 54 % 88 % 1013,3 hPa 0,0 l/m² 13,3 km/h (3 Bft) SW 223 ° 0 min 0 W/m² 0,0 °C -3,8 °C 17,7 km/h (3 Bft)
03.01.2025 01:45 21,8 °C 1,8 °C 54 % 88 % 1013,3 hPa 0,0 l/m² 11,5 km/h (2 Bft) SW 224 ° 0 min 0 W/m² 0,0 °C -2,6 °C 17,7 km/h (3 Bft)
03.01.2025 01:46 21,8 °C 1,8 °C 54 % 88 % 1013,3 hPa 0,0 l/m² 16,6 km/h (3 Bft) SW 217 ° 0 min 0 W/m² 0,0 °C -5,7 °C 19,3 km/h (3 Bft)
03.01.2025 01:48 21,8 °C 1,8 °C 54 % 88 % 1013,3 hPa 0,0 l/m² 13,9 km/h (3 Bft) W-SW 238 ° 0 min 0 W/m² 0,0 °C -4,2 °C 17,7 km/h (3 Bft)
03.01.2025 01:50 21,8 °C 1,8 °C 54 % 88 % 1013,3 hPa 0,0 l/m² 15,6 km/h (3 Bft) SW 219 ° 0 min 0 W/m² 0,0 °C -5,1 °C 22,5 km/h (4 Bft)
03.01.2025 01:51 21,8 °C 1,8 °C 54 % 88 % 1013,3 hPa 0,0 l/m² 19,3 km/h (3 Bft) SW 215 ° 0 min 0 W/m² 0,0 °C -7,0 °C 25,7 km/h (4 Bft)
03.01.2025 01:53 21,7 °C 1,8 °C 54 % 88 % 1013,3 hPa 0,0 l/m² 16,8 km/h (3 Bft) SW 223 ° 0 min 0 W/m² 0,0 °C -5,8 °C 20,9 km/h (4 Bft)
03.01.2025 01:55 21,7 °C 1,8 °C 54 % 88 % 1013,3 hPa 0,0 l/m² 15,6 km/h (3 Bft) SW 229 ° 0 min 0 W/m² 0,0 °C -5,1 °C 24,1 km/h (4 Bft)
03.01.2025 01:57 21,7 °C 1,8 °C 54 % 88 % 1013,3 hPa 0,0 l/m² 14,3 km/h (3 Bft) SW 230 ° 0 min 0 W/m² 0,0 °C -4,4 °C 19,3 km/h (3 Bft)
03.01.2025 01:59 21,7 °C 1,8 °C 54 % 88 % 1013,4 hPa 0,0 l/m² 15,2 km/h (3 Bft) SW 234 ° 0 min 0 W/m² 0,0 °C -4,9 °C 20,9 km/h (4 Bft)
03.01.2025 02:00 21,8 °C 1,8 °C 54 % 88 % 1013,4 hPa 0,0 l/m² 13,6 km/h (3 Bft) SW 230 ° 0 min 0 W/m² 0,0 °C -4,0 °C 19,3 km/h (3 Bft)
03.01.2025 02:02 21,7 °C 1,8 °C 54 % 88 % 1013,3 hPa 0,0 l/m² 17,1 km/h (3 Bft) SW 228 ° 0 min 0 W/m² 0,0 °C -5,9 °C 22,5 km/h (4 Bft)
03.01.2025 02:04 21,8 °C 1,8 °C 54 % 88 % 1013,3 hPa 0,0 l/m² 18,5 km/h (3 Bft) SW 226 ° 0 min 0 W/m² 0,0 °C -6,6 °C 24,1 km/h (4 Bft)
03.01.2025 02:06 21,7 °C 1,9 °C 54 % 88 % 1013,3 hPa 0,0 l/m² 16,8 km/h (3 Bft) SW 229 ° 0 min 0 W/m² 0,1 °C -5,7 °C 22,5 km/h (4 Bft)
03.01.2025 02:08 21,8 °C 1,9 °C 54 % 87 % 1013,4 hPa 0,0 l/m² 19,5 km/h (3 Bft) SW 219 ° 0 min 0 W/m² -0,0 °C -7,0 °C 25,7 km/h (4 Bft)
03.01.2025 02:10 21,7 °C 1,9 °C 54 % 87 % 1013,4 hPa 0,0 l/m² 16,1 km/h (3 Bft) SW 219 ° 0 min 0 W/m² -0,0 °C -5,3 °C 20,9 km/h (4 Bft)
03.01.2025 02:11 21,7 °C 1,9 °C 54 % 87 % 1013,4 hPa 0,0 l/m² 18,2 km/h (3 Bft) SW 236 ° 0 min 0 W/m² -0,0 °C -6,4 °C 24,1 km/h (4 Bft)
03.01.2025 02:13 21,7 °C 1,9 °C 54 % 87 % 1013,5 hPa 0,0 l/m² 15,4 km/h (3 Bft) SW 222 ° 0 min 0 W/m² -0,0 °C -4,9 °C 20,9 km/h (4 Bft)
03.01.2025 02:15 21,7 °C 1,9 °C 54 % 87 % 1013,5 hPa 0,0 l/m² 18,7 km/h (3 Bft) SW 219 ° 0 min 0 W/m² -0,0 °C -6,6 °C 25,7 km/h (4 Bft)
03.01.2025 02:16 21,7 °C 1,9 °C 54 % 87 % 1013,6 hPa 0,0 l/m² 17,1 km/h (3 Bft) SW 223 ° 0 min 0 W/m² -0,0 °C -5,8 °C 24,1 km/h (4 Bft)
03.01.2025 02:17 21,7 °C 1,9 °C 54 % 87 % 1013,6 hPa 0,0 l/m² 18,7 km/h (3 Bft) SW 215 ° 0 min 0 W/m² -0,0 °C -6,6 °C 20,9 km/h (4 Bft)
03.01.2025 02:18 21,7 °C 1,9 °C 54 % 87 % 1013,7 hPa 0,0 l/m² 17,6 km/h (3 Bft) W-SW 244 ° 0 min 0 W/m² -0,0 °C -6,1 °C 25,7 km/h (4 Bft)
03.01.2025 02:19 21,7 °C 1,9 °C 54 % 87 % 1013,7 hPa 0,0 l/m² 18,9 km/h (3 Bft) SW 225 ° 0 min 0 W/m² -0,0 °C -6,7 °C 24,1 km/h (4 Bft)
03.01.2025 02:20 21,7 °C 1,9 °C 54 % 87 % 1013,6 hPa 0,0 l/m² 20,3 km/h (4 Bft) SW 227 ° 0 min 0 W/m² -0,0 °C -7,3 °C 25,7 km/h (4 Bft)
03.01.2025 02:21 21,7 °C 1,9 °C 54 % 87 % 1013,6 hPa 0,0 l/m² 19,2 km/h (3 Bft) SW 230 ° 0 min 0 W/m² -0,0 °C -6,8 °C 22,5 km/h (4 Bft)
03.01.2025 02:22 21,7 °C 1,9 °C 54 % 87 % 1013,7 hPa 0,0 l/m² 15,9 km/h (3 Bft) W-SW 244 ° 0 min 0 W/m² -0,0 °C -5,2 °C 22,5 km/h (4 Bft)
03.01.2025 02:23 21,7 °C 1,9 °C 54 % 87 % 1013,6 hPa 0,0 l/m² 16,4 km/h (3 Bft) SW 221 ° 0 min 0 W/m² -0,0 °C -5,4 °C 22,5 km/h (4 Bft)
03.01.2025 02:24 21,7 °C 1,9 °C 54 % 87 % 1013,7 hPa 0,0 l/m² 15,8 km/h (3 Bft) S-SW 210 ° 0 min 0 W/m² -0,0 °C -5,1 °C 20,9 km/h (4 Bft)
03.01.2025 02:25 21,7 °C 1,9 °C 54 % 87 % 1013,7 hPa 0,0 l/m² 18,2 km/h (3 Bft) SW 236 ° 0 min 0 W/m² -0,0 °C -6,4 °C 24,1 km/h (4 Bft)
03.01.2025 02:26 21,7 °C 1,9 °C 54 % 87 % 1013,8 hPa 0,0 l/m² 16,0 km/h (3 Bft) W-SW 249 ° 0 min 0 W/m² -0,0 °C -5,2 °C 22,5 km/h (4 Bft)
03.01.2025 02:27 21,7 °C 1,9 °C 54 % 87 % 1013,7 hPa 0,0 l/m² 13,9 km/h (3 Bft) SW 218 ° 0 min 0 W/m² -0,0 °C -4,0 °C 19,3 km/h (3 Bft)
03.01.2025 02:28 21,7 °C 1,9 °C 54 % 87 % 1013,9 hPa 0,0 l/m² 14,0 km/h (3 Bft) S-SW 205 ° 0 min 0 W/m² -0,0 °C -4,1 °C 19,3 km/h (3 Bft)
03.01.2025 02:29 21,7 °C 1,9 °C 54 % 87 % 1013,9 hPa 0,0 l/m² 11,0 km/h (2 Bft) SW 220 ° 0 min 0 W/m² -0,0 °C -2,1 °C 14,5 km/h (3 Bft)
03.01.2025 02:30 21,7 °C 1,9 °C 54 % 87 % 1013,7 hPa 0,0 l/m² 12,5 km/h (2 Bft) SW 229 ° 0 min 0 W/m² -0,0 °C -3,1 °C 14,5 km/h (3 Bft)
03.01.2025 02:31 21,7 °C 1,9 °C 54 % 87 % 1013,8 hPa 0,0 l/m² 12,5 km/h (2 Bft) S-SW 213 ° 0 min 0 W/m² -0,0 °C -3,1 °C 14,5 km/h (3 Bft)
03.01.2025 02:32 21,7 °C 1,9 °C 54 % 87 % 1013,9 hPa 0,0 l/m² 12,3 km/h (2 Bft) SW 219 ° 0 min 0 W/m² -0,0 °C -3,0 °C 14,5 km/h (3 Bft)
03.01.2025 02:33 21,7 °C 1,9 °C 54 % 87 % 1013,7 hPa 0,0 l/m² 12,7 km/h (3 Bft) SW 235 ° 0 min 0 W/m² -0,0 °C -3,3 °C 16,1 km/h (3 Bft)
03.01.2025 02:34 21,7 °C 1,9 °C 54 % 87 % 1013,8 hPa 0,0 l/m² 14,4 km/h (3 Bft) SW 219 ° 0 min 0 W/m² -0,0 °C -4,3 °C 19,3 km/h (3 Bft)
03.01.2025 02:35 21,7 °C 1,9 °C 54 % 87 % 1013,8 hPa 0,0 l/m² 14,8 km/h (3 Bft) SW 217 ° 0 min 0 W/m² -0,0 °C -4,6 °C 19,3 km/h (3 Bft)
03.01.2025 02:36 21,7 °C 1,9 °C 54 % 87 % 1013,9 hPa 0,0 l/m² 13,4 km/h (3 Bft) SW 219 ° 0 min 0 W/m² -0,0 °C -3,7 °C 16,1 km/h (3 Bft)
03.01.2025 02:37 21,7 °C 1,9 °C 54 % 87 % 1013,9 hPa 0,0 l/m² 13,3 km/h (3 Bft) SW 215 ° 0 min 0 W/m² -0,0 °C -3,7 °C 16,1 km/h (3 Bft)
03.01.2025 02:38 21,7 °C 1,9 °C 54 % 87 % 1013,9 hPa 0,0 l/m² 13,9 km/h (3 Bft) SW 222 ° 0 min 0 W/m² -0,0 °C -4,0 °C 17,7 km/h (3 Bft)
03.01.2025 02:39 21,7 °C 1,9 °C 54 % 87 % 1013,8 hPa 0,0 l/m² 16,3 km/h (3 Bft) SW 223 ° 0 min 0 W/m² -0,0 °C -5,4 °C 22,5 km/h (4 Bft)
03.01.2025 02:40 21,7 °C 1,9 °C 54 % 87 % 1013,9 hPa 0,0 l/m² 16,5 km/h (3 Bft) SW 214 ° 0 min 0 W/m² -0,0 °C -5,5 °C 20,9 km/h (4 Bft)
03.01.2025 02:41 21,7 °C 1,9 °C 54 % 87 % 1013,8 hPa 0,0 l/m² 14,1 km/h (3 Bft) S-SW 194 ° 0 min 0 W/m² -0,0 °C -4,2 °C 17,7 km/h (3 Bft)
03.01.2025 02:42 21,7 °C 1,9 °C 54 % 87 % 1013,9 hPa 0,0 l/m² 13,8 km/h (3 Bft) S-SW 205 ° 0 min 0 W/m² -0,0 °C -4,0 °C 17,7 km/h (3 Bft)
03.01.2025 02:43 21,7 °C 1,9 °C 54 % 87 % 1013,9 hPa 0,0 l/m² 16,0 km/h (3 Bft) SW 215 ° 0 min 0 W/m² -0,0 °C -5,2 °C 19,3 km/h (3 Bft)
03.01.2025 02:44 21,7 °C 1,9 °C 54 % 87 % 1013,9 hPa 0,0 l/m² 15,5 km/h (3 Bft) S-SW 210 ° 0 min 0 W/m² -0,0 °C -5,0 °C 19,3 km/h (3 Bft)
03.01.2025 02:45 21,7 °C 1,9 °C 54 % 87 % 1013,9 hPa 0,0 l/m² 15,1 km/h (3 Bft) S-SW 207 ° 0 min 0 W/m² -0,0 °C -4,7 °C 19,3 km/h (3 Bft)
03.01.2025 02:46 21,7 °C 1,9 °C 54 % 87 % 1013,9 hPa 0,0 l/m² 12,8 km/h (3 Bft) SW 215 ° 0 min 0 W/m² -0,0 °C -3,3 °C 16,1 km/h (3 Bft)
03.01.2025 02:47 21,7 °C 1,9 °C 54 % 87 % 1013,9 hPa 0,0 l/m² 12,5 km/h (2 Bft) SW 217 ° 0 min 0 W/m² -0,0 °C -3,1 °C 17,7 km/h (3 Bft)
03.01.2025 02:48 21,7 °C 1,9 °C 54 % 87 % 1013,8 hPa 0,0 l/m² 13,6 km/h (3 Bft) S-SW 203 ° 0 min 0 W/m² -0,0 °C -3,9 °C 17,7 km/h (3 Bft)
03.01.2025 02:49 21,7 °C 1,9 °C 54 % 87 % 1013,7 hPa 0,0 l/m² 13,7 km/h (3 Bft) S-SW 212 ° 0 min 0 W/m² -0,0 °C -3,9 °C 16,1 km/h (3 Bft)
03.01.2025 02:50 21,7 °C 1,9 °C 54 % 87 % 1013,8 hPa 0,0 l/m² 12,7 km/h (3 Bft) S-SW 200 ° 0 min 0 W/m² -0,0 °C -3,3 °C 14,5 km/h (3 Bft)
03.01.2025 02:51 21,7 °C 1,9 °C 54 % 87 % 1013,8 hPa 0,0 l/m² 10,8 km/h (2 Bft) S-SW 207 ° 0 min 0 W/m² -0,0 °C -2,0 °C 14,5 km/h (3 Bft)
03.01.2025 02:52 21,7 °C 1,9 °C 54 % 87 % 1013,9 hPa 0,0 l/m² 12,4 km/h (2 Bft) SW 214 ° 0 min 0 W/m² -0,0 °C -3,1 °C 19,3 km/h (3 Bft)
03.01.2025 02:53 21,7 °C 1,9 °C 54 % 87 % 1013,9 hPa 0,0 l/m² 13,4 km/h (3 Bft) SW 217 ° 0 min 0 W/m² -0,0 °C -3,7 °C 16,1 km/h (3 Bft)
03.01.2025 02:54 21,7 °C 1,9 °C 54 % 87 % 1013,9 hPa 0,0 l/m² 14,1 km/h (3 Bft) SW 217 ° 0 min 0 W/m² -0,0 °C -4,2 °C 20,9 km/h (4 Bft)
03.01.2025 02:55 21,7 °C 1,9 °C 54 % 87 % 1013,9 hPa 0,0 l/m² 14,5 km/h (3 Bft) SW 219 ° 0 min 0 W/m² -0,0 °C -4,4 °C 16,1 km/h (3 Bft)
03.01.2025 02:56 21,7 °C 1,9 °C 54 % 87 % 1013,7 hPa 0,0 l/m² 13,5 km/h (3 Bft) S-SW 205 ° 0 min 0 W/m² -0,0 °C -3,8 °C 16,1 km/h (3 Bft)
03.01.2025 02:57 21,7 °C 1,9 °C 54 % 87 % 1013,8 hPa 0,0 l/m² 11,6 km/h (2 Bft) SW 216 ° 0 min 0 W/m² -0,0 °C -2,5 °C 14,5 km/h (3 Bft)
03.01.2025 02:58 21,7 °C 1,8 °C 54 % 87 % 1013,8 hPa 0,0 l/m² 10,7 km/h (2 Bft) SW 216 ° 0 min 0 W/m² -0,1 °C -2,0 °C 12,9 km/h (3 Bft)
03.01.2025 02:59 21,7 °C 1,9 °C 54 % 87 % 1013,9 hPa 0,0 l/m² 11,5 km/h (2 Bft) SW 221 ° 0 min 0 W/m² -0,0 °C -2,5 °C 14,5 km/h (3 Bft)
03.01.2025 03:00 21,7 °C 1,8 °C 54 % 87 % 1013,8 hPa 0,0 l/m² 10,9 km/h (2 Bft) SW 215 ° 0 min 0 W/m² -0,1 °C -2,1 °C 12,9 km/h (3 Bft)
03.01.2025 03:01 21,7 °C 1,8 °C 54 % 87 % 1013,9 hPa 0,0 l/m² 14,5 km/h (3 Bft) S-SW 202 ° 0 min 0 W/m² -0,1 °C -4,5 °C 19,3 km/h (3 Bft)
03.01.2025 03:06 21,7 °C 1,8 °C 54 % 87 % 1013,7 hPa 0,0 l/m² 12,6 km/h (3 Bft) S-SW 211 ° 0 min 0 W/m² -0,1 °C -3,3 °C 14,5 km/h (3 Bft)
03.01.2025 03:08 21,7 °C 1,7 °C 54 % 87 % 1013,8 hPa 0,0 l/m² 13,8 km/h (3 Bft) SW 226 ° 0 min 0 W/m² -0,2 °C -4,2 °C 19,3 km/h (3 Bft)
03.01.2025 03:09 21,7 °C 1,7 °C 54 % 87 % 1013,8 hPa 0,0 l/m² 16,9 km/h (3 Bft) SW 221 ° 0 min 0 W/m² -0,2 °C -6,0 °C 20,9 km/h (4 Bft)
03.01.2025 03:11 21,7 °C 1,7 °C 54 % 87 % 1013,8 hPa 0,0 l/m² 16,8 km/h (3 Bft) SW 230 ° 0 min 0 W/m² -0,2 °C -5,9 °C 20,9 km/h (4 Bft)
03.01.2025 03:12 21,7 °C 1,7 °C 54 % 87 % 1013,8 hPa 0,0 l/m² 18,2 km/h (3 Bft) SW 225 ° 0 min 0 W/m² -0,2 °C -6,6 °C 25,7 km/h (4 Bft)
03.01.2025 03:14 21,7 °C 1,7 °C 54 % 87 % 1013,7 hPa 0,0 l/m² 19,3 km/h (3 Bft) SW 222 ° 0 min 0 W/m² -0,2 °C -7,1 °C 25,7 km/h (4 Bft)
03.01.2025 03:16 21,7 °C 1,7 °C 54 % 87 % 1013,8 hPa 0,0 l/m² 20,9 km/h (4 Bft) SW 219 ° 0 min 0 W/m² -0,2 °C -7,8 °C 27,4 km/h (5 Bft)
03.01.2025 03:18 21,7 °C 1,7 °C 54 % 87 % 1013,7 hPa 0,0 l/m² 14,8 km/h (3 Bft) SW 215 ° 0 min 0 W/m² -0,2 °C -4,8 °C 19,3 km/h (3 Bft)
03.01.2025 03:20 21,7 °C 1,7 °C 54 % 87 % 1013,9 hPa 0,0 l/m² 14,5 km/h (3 Bft) SW 223 ° 0 min 0 W/m² -0,2 °C -4,6 °C 19,3 km/h (3 Bft)
03.01.2025 03:21 21,7 °C 1,7 °C 54 % 87 % 1013,8 hPa 0,0 l/m² 14,9 km/h (3 Bft) SW 216 ° 0 min 0 W/m² -0,2 °C -4,9 °C 19,3 km/h (3 Bft)
03.01.2025 03:22 21,7 °C 1,7 °C 54 % 87 % 1013,8 hPa 0,0 l/m² 14,8 km/h (3 Bft) SW 220 ° 0 min 0 W/m² -0,2 °C -4,8 °C 20,9 km/h (4 Bft)
03.01.2025 03:24 21,7 °C 1,7 °C 54 % 87 % 1013,7 hPa 0,0 l/m² 15,0 km/h (3 Bft) S-SW 213 ° 0 min 0 W/m² -0,2 °C -4,9 °C 19,3 km/h (3 Bft)
03.01.2025 03:26 21,7 °C 1,7 °C 54 % 87 % 1013,9 hPa 0,0 l/m² 16,2 km/h (3 Bft) SW 227 ° 0 min 0 W/m² -0,2 °C -5,6 °C 22,5 km/h (4 Bft)
03.01.2025 03:28 21,7 °C 1,7 °C 54 % 87 % 1013,8 hPa 0,0 l/m² 16,5 km/h (3 Bft) SW 216 ° 0 min 0 W/m² -0,2 °C -5,7 °C 20,9 km/h (4 Bft)
03.01.2025 03:30 21,7 °C 1,7 °C 54 % 87 % 1013,9 hPa 0,0 l/m² 16,4 km/h (3 Bft) SW 223 ° 0 min 0 W/m² -0,2 °C -5,7 °C 22,5 km/h (4 Bft)
03.01.2025 03:31 21,7 °C 1,7 °C 54 % 87 % 1013,8 hPa 0,0 l/m² 18,9 km/h (3 Bft) SW 221 ° 0 min 0 W/m² -0,2 °C -6,9 °C 24,1 km/h (4 Bft)
03.01.2025 03:32 21,7 °C 1,7 °C 54 % 87 % 1013,8 hPa 0,0 l/m² 15,3 km/h (3 Bft) SW 229 ° 0 min 0 W/m² -0,2 °C -5,1 °C 19,3 km/h (3 Bft)
03.01.2025 03:34 21,7 °C 1,7 °C 54 % 87 % 1013,9 hPa 0,0 l/m² 16,6 km/h (3 Bft) SW 215 ° 0 min 0 W/m² -0,2 °C -5,8 °C 20,9 km/h (4 Bft)
03.01.2025 03:36 21,7 °C 1,7 °C 54 % 87 % 1013,9 hPa 0,0 l/m² 16,2 km/h (3 Bft) SW 217 ° 0 min 0 W/m² -0,2 °C -5,6 °C 24,1 km/h (4 Bft)
03.01.2025 03:38 21,7 °C 1,7 °C 54 % 87 % 1013,9 hPa 0,0 l/m² 18,3 km/h (3 Bft) SW 219 ° 0 min 0 W/m² -0,2 °C -6,7 °C 24,1 km/h (4 Bft)
03.01.2025 03:40 21,7 °C 1,7 °C 54 % 87 % 1013,9 hPa 0,0 l/m² 17,0 km/h (3 Bft) SW 233 ° 0 min 0 W/m² -0,2 °C -6,0 °C 22,5 km/h (4 Bft)
03.01.2025 03:41 21,7 °C 1,7 °C 54 % 87 % 1013,9 hPa 0,0 l/m² 18,1 km/h (3 Bft) SW 236 ° 0 min 0 W/m² -0,2 °C -6,6 °C 27,4 km/h (5 Bft)
03.01.2025 03:42 21,7 °C 1,7 °C 54 % 87 % 1013,9 hPa 0,0 l/m² 20,0 km/h (4 Bft) SW 234 ° 0 min 0 W/m² -0,2 °C -7,4 °C 24,1 km/h (4 Bft)
03.01.2025 03:44 21,7 °C 1,8 °C 54 % 87 % 1013,9 hPa 0,0 l/m² 17,1 km/h (3 Bft) SW 214 ° 0 min 0 W/m² -0,1 °C -5,9 °C 24,1 km/h (4 Bft)
03.01.2025 03:45 21,7 °C 1,8 °C 54 % 87 % 1013,9 hPa 0,0 l/m² 18,7 km/h (3 Bft) S-SW 213 ° 0 min 0 W/m² -0,1 °C -6,7 °C 24,1 km/h (4 Bft)
03.01.2025 03:46 21,7 °C 1,8 °C 54 % 87 % 1013,9 hPa 0,0 l/m² 20,2 km/h (4 Bft) SW 222 ° 0 min 0 W/m² -0,1 °C -7,4 °C 24,1 km/h (4 Bft)
03.01.2025 03:48 21,7 °C 1,8 °C 54 % 87 % 1014,0 hPa 0,0 l/m² 17,1 km/h (3 Bft) W-SW 254 ° 0 min 0 W/m² -0,1 °C -5,9 °C 22,5 km/h (4 Bft)
03.01.2025 03:50 21,7 °C 1,8 °C 54 % 87 % 1013,8 hPa 0,0 l/m² 17,6 km/h (3 Bft) SW 221 ° 0 min 0 W/m² -0,1 °C -6,2 °C 24,1 km/h (4 Bft)
03.01.2025 03:51 21,7 °C 1,8 °C 54 % 87 % 1013,9 hPa 0,0 l/m² 17,7 km/h (3 Bft) SW 221 ° 0 min 0 W/m² -0,1 °C -6,2 °C 24,1 km/h (4 Bft)
03.01.2025 03:52 21,7 °C 1,8 °C 54 % 87 % 1013,9 hPa 0,0 l/m² 20,6 km/h (4 Bft) SW 225 ° 0 min 0 W/m² -0,1 °C -7,6 °C 24,1 km/h (4 Bft)
03.01.2025 03:54 21,7 °C 1,8 °C 54 % 87 % 1014,0 hPa 0,0 l/m² 18,0 km/h (3 Bft) SW 229 ° 0 min 0 W/m² -0,1 °C -6,4 °C 30,6 km/h (5 Bft)
03.01.2025 03:55 21,7 °C 1,8 °C 54 % 87 % 1013,9 hPa 0,0 l/m² 17,8 km/h (3 Bft) SW 227 ° 0 min 0 W/m² -0,1 °C -6,3 °C 22,5 km/h (4 Bft)
03.01.2025 03:57 21,7 °C 1,8 °C 54 % 87 % 1013,9 hPa 0,0 l/m² 18,1 km/h (3 Bft) SW 217 ° 0 min 0 W/m² -0,1 °C -6,4 °C 27,4 km/h (5 Bft)
03.01.2025 03:59 21,6 °C 1,8 °C 54 % 87 % 1013,8 hPa 0,0 l/m² 18,0 km/h (3 Bft) SW 225 ° 0 min 0 W/m² -0,1 °C -6,4 °C 24,1 km/h (4 Bft)
03.01.2025 04:00 21,6 °C 1,9 °C 54 % 87 % 1013,9 hPa 0,0 l/m² 13,6 km/h (3 Bft) SW 232 ° 0 min 0 W/m² -0,0 °C -3,9 °C 17,7 km/h (3 Bft)
03.01.2025 04:02 21,6 °C 1,8 °C 54 % 87 % 1013,9 hPa 0,0 l/m² 15,4 km/h (3 Bft) SW 216 ° 0 min 0 W/m² -0,1 °C -5,0 °C 19,3 km/h (3 Bft)
03.01.2025 04:03 21,7 °C 1,8 °C 54 % 87 % 1013,9 hPa 0,0 l/m² 15,0 km/h (3 Bft) SW 223 ° 0 min 0 W/m² -0,1 °C -4,8 °C 19,3 km/h (3 Bft)
03.01.2025 04:05 21,6 °C 1,8 °C 54 % 87 % 1013,8 hPa 0,0 l/m² 17,9 km/h (3 Bft) SW 223 ° 0 min 0 W/m² -0,1 °C -6,3 °C 24,1 km/h (4 Bft)
03.01.2025 04:07 21,6 °C 1,8 °C 54 % 87 % 1013,9 hPa 0,0 l/m² 16,9 km/h (3 Bft) W-SW 245 ° 0 min 0 W/m² -0,1 °C -5,8 °C 22,5 km/h (4 Bft)
03.01.2025 04:09 21,6 °C 1,8 °C 54 % 87 % 1013,9 hPa 0,0 l/m² 16,7 km/h (3 Bft) SW 219 ° 0 min 0 W/m² -0,1 °C -5,7 °C 22,5 km/h (4 Bft)
03.01.2025 04:10 21,6 °C 1,8 °C 54 % 87 % 1013,8 hPa 0,0 l/m² 18,7 km/h (3 Bft) W-SW 246 ° 0 min 0 W/m² -0,1 °C -6,7 °C 24,1 km/h (4 Bft)
03.01.2025 04:12 21,6 °C 1,8 °C 54 % 87 % 1013,8 hPa 0,0 l/m² 13,3 km/h (3 Bft) SW 229 ° 0 min 0 W/m² -0,1 °C -3,8 °C 24,1 km/h (4 Bft)
03.01.2025 04:13 21,6 °C 1,8 °C 54 % 87 % 1013,7 hPa 0,0 l/m² 17,7 km/h (3 Bft) SW 214 ° 0 min 0 W/m² -0,1 °C -6,2 °C 27,4 km/h (5 Bft)
03.01.2025 04:15 21,6 °C 1,8 °C 54 % 87 % 1013,7 hPa 0,0 l/m² 19,7 km/h (3 Bft) SW 219 ° 0 min 0 W/m² -0,1 °C -7,2 °C 29,0 km/h (5 Bft)
03.01.2025 04:17 21,6 °C 1,8 °C 54 % 87 % 1013,7 hPa 0,0 l/m² 16,4 km/h (3 Bft) SW 217 ° 0 min 0 W/m² -0,1 °C -5,6 °C 22,5 km/h (4 Bft)
03.01.2025 04:18 21,6 °C 1,8 °C 54 % 87 % 1013,6 hPa 0,0 l/m² 19,1 km/h (3 Bft) S-SW 209 ° 0 min 0 W/m² -0,1 °C -6,9 °C 25,7 km/h (4 Bft)
03.01.2025 04:20 21,6 °C 1,8 °C 54 % 87 % 1013,6 hPa 0,0 l/m² 18,5 km/h (3 Bft) SW 223 ° 0 min 0 W/m² -0,1 °C -6,6 °C 24,1 km/h (4 Bft)
03.01.2025 04:21 21,6 °C 1,8 °C 54 % 87 % 1013,7 hPa 0,0 l/m² 19,6 km/h (3 Bft) SW 235 ° 0 min 0 W/m² -0,1 °C -7,1 °C 27,4 km/h (5 Bft)
03.01.2025 04:22 21,6 °C 1,8 °C 54 % 87 % 1013,6 hPa 0,0 l/m² 19,2 km/h (3 Bft) S-SW 203 ° 0 min 0 W/m² -0,1 °C -6,9 °C 22,5 km/h (4 Bft)
03.01.2025 04:24 21,6 °C 1,8 °C 54 % 87 % 1013,6 hPa 0,0 l/m² 19,3 km/h (3 Bft) SW 235 ° 0 min 0 W/m² -0,1 °C -7,0 °C 25,7 km/h (4 Bft)
03.01.2025 04:26 21,6 °C 1,8 °C 54 % 87 % 1013,5 hPa 0,0 l/m² 19,2 km/h (3 Bft) SW 218 ° 0 min 0 W/m² -0,1 °C -6,9 °C 25,7 km/h (4 Bft)
03.01.2025 04:28 21,6 °C 1,8 °C 54 % 87 % 1013,6 hPa 0,0 l/m² 22,7 km/h (4 Bft) SW 217 ° 0 min 0 W/m² -0,1 °C -8,4 °C 29,0 km/h (5 Bft)
03.01.2025 04:30 21,6 °C 1,8 °C 54 % 87 % 1013,5 hPa 0,0 l/m² 20,1 km/h (4 Bft) SW 229 ° 0 min 0 W/m² -0,1 °C -7,4 °C 25,7 km/h (4 Bft)
03.01.2025 04:31 21,6 °C 1,8 °C 54 % 87 % 1013,5 hPa 0,0 l/m² 21,4 km/h (4 Bft) SW 219 ° 0 min 0 W/m² -0,1 °C -7,9 °C 24,1 km/h (4 Bft)
03.01.2025 04:33 21,6 °C 1,9 °C 54 % 87 % 1013,5 hPa 0,0 l/m² 18,5 km/h (3 Bft) SW 227 ° 0 min 0 W/m² -0,0 °C -6,5 °C 24,1 km/h (4 Bft)
03.01.2025 04:34 21,6 °C 1,9 °C 54 % 87 % 1013,6 hPa 0,0 l/m² 16,8 km/h (3 Bft) SW 225 ° 0 min 0 W/m² -0,0 °C -5,7 °C 22,5 km/h (4 Bft)
03.01.2025 04:36 21,6 °C 1,9 °C 54 % 87 % 1013,6 hPa 0,0 l/m² 17,2 km/h (3 Bft) SW 219 ° 0 min 0 W/m² -0,0 °C -5,9 °C 24,1 km/h (4 Bft)
03.01.2025 04:38 21,6 °C 1,9 °C 54 % 87 % 1013,6 hPa 0,0 l/m² 20,1 km/h (4 Bft) SW 221 ° 0 min 0 W/m² -0,0 °C -7,2 °C 27,4 km/h (5 Bft)
03.01.2025 04:40 21,6 °C 1,9 °C 54 % 87 % 1013,6 hPa 0,0 l/m² 19,2 km/h (3 Bft) SW 221 ° 0 min 0 W/m² -0,0 °C -6,8 °C 29,0 km/h (5 Bft)
03.01.2025 04:41 21,6 °C 1,9 °C 54 % 87 % 1013,5 hPa 0,0 l/m² 20,5 km/h (4 Bft) SW 217 ° 0 min 0 W/m² -0,0 °C -7,4 °C 27,4 km/h (5 Bft)
03.01.2025 04:43 21,6 °C 1,9 °C 54 % 87 % 1013,5 hPa 0,0 l/m² 17,6 km/h (3 Bft) SW 228 ° 0 min 0 W/m² -0,0 °C -6,1 °C 22,5 km/h (4 Bft)
03.01.2025 04:44 21,6 °C 1,9 °C 54 % 87 % 1013,5 hPa 0,0 l/m² 20,0 km/h (4 Bft) S-SW 211 ° 0 min 0 W/m² -0,0 °C -7,2 °C 25,7 km/h (4 Bft)
03.01.2025 04:46 21,6 °C 1,9 °C 54 % 87 % 1013,5 hPa 0,0 l/m² 19,0 km/h (3 Bft) SW 236 ° 0 min 0 W/m² -0,0 °C -6,7 °C 27,4 km/h (5 Bft)
03.01.2025 04:48 21,6 °C 1,9 °C 54 % 87 % 1013,5 hPa 0,0 l/m² 19,7 km/h (3 Bft) SW 229 ° 0 min 0 W/m² -0,0 °C -7,0 °C 27,4 km/h (5 Bft)
03.01.2025 04:50 21,5 °C 1,9 °C 54 % 87 % 1013,4 hPa 0,0 l/m² 22,0 km/h (4 Bft) SW 221 ° 0 min 0 W/m² -0,0 °C -8,0 °C 30,6 km/h (5 Bft)
03.01.2025 04:51 21,6 °C 1,9 °C 54 % 87 % 1013,4 hPa 0,0 l/m² 24,3 km/h (4 Bft) SW 219 ° 0 min 0 W/m² -0,0 °C -8,9 °C 30,6 km/h (5 Bft)
03.01.2025 04:52 21,6 °C 1,9 °C 54 % 87 % 1013,4 hPa 0,0 l/m² 20,4 km/h (4 Bft) S-SW 196 ° 0 min 0 W/m² -0,0 °C -7,4 °C 29,0 km/h (5 Bft)
03.01.2025 04:54 21,6 °C 1,9 °C 54 % 87 % 1013,5 hPa 0,0 l/m² 21,0 km/h (4 Bft) SW 222 ° 0 min 0 W/m² -0,0 °C -7,6 °C 27,4 km/h (5 Bft)
03.01.2025 04:56 21,5 °C 1,9 °C 54 % 86 % 1013,4 hPa 0,0 l/m² 23,1 km/h (4 Bft) W-SW 243 ° 0 min 0 W/m² -0,2 °C -8,4 °C 27,4 km/h (5 Bft)
03.01.2025 04:58 21,6 °C 1,9 °C 54 % 86 % 1013,4 hPa 0,0 l/m² 20,9 km/h (4 Bft) SW 219 ° 0 min 0 W/m² -0,2 °C -7,6 °C 30,6 km/h (5 Bft)
03.01.2025 05:00 21,5 °C 1,9 °C 54 % 86 % 1013,4 hPa 0,0 l/m² 22,1 km/h (4 Bft) S-SW 213 ° 0 min 0 W/m² -0,2 °C -8,1 °C 37,0 km/h (5 Bft)
03.01.2025 05:01 21,5 °C 1,9 °C 54 % 86 % 1013,4 hPa 0,0 l/m² 18,9 km/h (3 Bft) SW 218 ° 0 min 0 W/m² -0,2 °C -6,7 °C 24,1 km/h (4 Bft)
03.01.2025 05:02 21,5 °C 1,8 °C 54 % 86 % 1013,4 hPa 0,0 l/m² 16,8 km/h (3 Bft) SW 219 ° 0 min 0 W/m² -0,3 °C -5,8 °C 20,9 km/h (4 Bft)
03.01.2025 05:04 21,5 °C 1,8 °C 54 % 86 % 1013,5 hPa 0,0 l/m² 19,9 km/h (4 Bft) S-SW 213 ° 0 min 0 W/m² -0,3 °C -7,3 °C 25,7 km/h (4 Bft)
03.01.2025 05:06 21,5 °C 1,8 °C 54 % 86 % 1013,4 hPa 0,0 l/m² 18,4 km/h (3 Bft) SW 219 ° 0 min 0 W/m² -0,3 °C -6,6 °C 22,5 km/h (4 Bft)
03.01.2025 05:08 21,5 °C 1,8 °C 54 % 86 % 1013,4 hPa 0,0 l/m² 16,8 km/h (3 Bft) S-SW 213 ° 0 min 0 W/m² -0,3 °C -5,8 °C 20,9 km/h (4 Bft)
03.01.2025 05:10 21,5 °C 1,7 °C 54 % 86 % 1013,4 hPa 0,0 l/m² 19,7 km/h (3 Bft) S-SW 210 ° 0 min 0 W/m² -0,4 °C -7,3 °C 25,7 km/h (4 Bft)
03.01.2025 05:11 21,5 °C 1,7 °C 54 % 86 % 1013,3 hPa 0,0 l/m² 17,9 km/h (3 Bft) SW 222 ° 0 min 0 W/m² -0,4 °C -6,5 °C 22,5 km/h (4 Bft)
03.01.2025 05:12 21,5 °C 1,7 °C 54 % 86 % 1013,3 hPa 0,0 l/m² 17,0 km/h (3 Bft) S-SW 211 ° 0 min 0 W/m² -0,4 °C -6,0 °C 25,7 km/h (4 Bft)
03.01.2025 05:14 21,5 °C 1,7 °C 54 % 86 % 1013,3 hPa 0,0 l/m² 18,8 km/h (3 Bft) SW 223 ° 0 min 0 W/m² -0,4 °C -6,9 °C 25,7 km/h (4 Bft)
03.01.2025 05:16 21,5 °C 1,6 °C 54 % 86 % 1013,5 hPa 0,0 l/m² 18,2 km/h (3 Bft) SW 219 ° 0 min 0 W/m² -0,5 °C -6,7 °C 25,7 km/h (4 Bft)
03.01.2025 05:18 21,5 °C 1,6 °C 54 % 86 % 1013,3 hPa 0,0 l/m² 20,5 km/h (4 Bft) SW 217 ° 0 min 0 W/m² -0,5 °C -7,8 °C 30,6 km/h (5 Bft)
03.01.2025 05:20 21,4 °C 1,6 °C 54 % 86 % 1013,4 hPa 0,0 l/m² 15,8 km/h (3 Bft) SW 227 ° 0 min 0 W/m² -0,5 °C -5,5 °C 22,5 km/h (4 Bft)
03.01.2025 05:21 21,4 °C 1,6 °C 54 % 86 % 1013,3 hPa 0,0 l/m² 19,6 km/h (3 Bft) SW 227 ° 0 min 0 W/m² -0,5 °C -7,4 °C 27,4 km/h (5 Bft)
03.01.2025 05:23 21,4 °C 1,6 °C 54 % 86 % 1013,3 hPa 0,0 l/m² 18,3 km/h (3 Bft) S-SW 203 ° 0 min 0 W/m² -0,5 °C -6,8 °C 25,7 km/h (4 Bft)
03.01.2025 05:24 21,4 °C 1,5 °C 54 % 86 % 1013,3 hPa 0,0 l/m² 20,5 km/h (4 Bft) SW 227 ° 0 min 0 W/m² -0,6 °C -7,9 °C 24,1 km/h (4 Bft)
03.01.2025 05:26 21,5 °C 1,4 °C 54 % 86 % 1013,4 hPa 0,0 l/m² 16,8 km/h (3 Bft) SW 221 ° 0 min 0 W/m² -0,7 °C -6,3 °C 22,5 km/h (4 Bft)
03.01.2025 05:28 21,4 °C 1,4 °C 54 % 86 % 1013,3 hPa 0,0 l/m² 17,2 km/h (3 Bft) SW 219 ° 0 min 0 W/m² -0,7 °C -6,5 °C 22,5 km/h (4 Bft)
03.01.2025 05:30 21,4 °C 1,4 °C 54 % 86 % 1013,4 hPa 0,0 l/m² 20,8 km/h (4 Bft) SW 217 ° 0 min 0 W/m² -0,7 °C -8,2 °C 29,0 km/h (5 Bft)
03.01.2025 05:31 21,4 °C 1,4 °C 54 % 86 % 1013,5 hPa 0,0 l/m² 15,4 km/h (3 Bft) SW 224 ° 0 min 0 W/m² -0,7 °C -5,5 °C 24,1 km/h (4 Bft)
03.01.2025 05:33 21,4 °C 1,3 °C 54 % 86 % 1013,4 hPa 0,0 l/m² 21,7 km/h (4 Bft) S-SW 212 ° 0 min 0 W/m² -0,8 °C -8,7 °C 27,4 km/h (5 Bft)
03.01.2025 05:34 21,4 °C 1,3 °C 54 % 87 % 1013,4 hPa 0,0 l/m² 15,2 km/h (3 Bft) SW 228 ° 0 min 0 W/m² -0,6 °C -5,5 °C 22,5 km/h (4 Bft)
03.01.2025 05:36 21,4 °C 1,3 °C 54 % 87 % 1013,5 hPa 0,0 l/m² 17,0 km/h (3 Bft) W-SW 244 ° 0 min 0 W/m² -0,6 °C -6,5 °C 22,5 km/h (4 Bft)
03.01.2025 05:38 21,4 °C 1,3 °C 54 % 87 % 1013,5 hPa 0,0 l/m² 19,3 km/h (3 Bft) W-SW 248 ° 0 min 0 W/m² -0,6 °C -7,6 °C 32,2 km/h (5 Bft)
03.01.2025 05:40 21,4 °C 1,3 °C 54 % 87 % 1013,4 hPa 0,0 l/m² 17,0 km/h (3 Bft) SW 230 ° 0 min 0 W/m² -0,6 °C -6,5 °C 24,1 km/h (4 Bft)
03.01.2025 05:41 21,4 °C 1,3 °C 54 % 87 % 1013,5 hPa 0,0 l/m² 20,8 km/h (4 Bft) SW 223 ° 0 min 0 W/m² -0,6 °C -8,3 °C 25,7 km/h (4 Bft)
03.01.2025 05:43 21,4 °C 1,3 °C 54 % 87 % 1013,5 hPa 0,0 l/m² 19,5 km/h (3 Bft) SW 218 ° 0 min 0 W/m² -0,6 °C -7,7 °C 24,1 km/h (4 Bft)
03.01.2025 05:44 21,4 °C 1,3 °C 54 % 87 % 1013,5 hPa 0,0 l/m² 21,7 km/h (4 Bft) S-SW 211 ° 0 min 0 W/m² -0,6 °C -8,7 °C 25,7 km/h (4 Bft)
03.01.2025 05:46 21,4 °C 1,3 °C 54 % 87 % 1013,5 hPa 0,0 l/m² 16,1 km/h (3 Bft) SW 233 ° 0 min 0 W/m² -0,6 °C -6,0 °C 20,9 km/h (4 Bft)
03.01.2025 05:48 21,4 °C 1,2 °C 54 % 87 % 1013,6 hPa 0,0 l/m² 17,7 km/h (3 Bft) SW 220 ° 0 min 0 W/m² -0,7 °C -7,0 °C 25,7 km/h (4 Bft)
03.01.2025 05:50 21,4 °C 1,2 °C 54 % 87 % 1013,5 hPa 0,0 l/m² 17,1 km/h (3 Bft) SW 217 ° 0 min 0 W/m² -0,7 °C -6,7 °C 22,5 km/h (4 Bft)
03.01.2025 05:51 21,4 °C 1,2 °C 54 % 87 % 1013,5 hPa 0,0 l/m² 16,7 km/h (3 Bft) SW 225 ° 0 min 0 W/m² -0,7 °C -6,5 °C 20,9 km/h (4 Bft)
03.01.2025 05:52 21,4 °C 1,2 °C 54 % 87 % 1013,5 hPa 0,0 l/m² 19,5 km/h (3 Bft) SW 216 ° 0 min 0 W/m² -0,7 °C -7,9 °C 22,5 km/h (4 Bft)
03.01.2025 05:54 21,4 °C 1,2 °C 54 % 87 % 1013,4 hPa 0,0 l/m² 18,3 km/h (3 Bft) SW 219 ° 0 min 0 W/m² -0,7 °C -7,3 °C 22,5 km/h (4 Bft)
03.01.2025 05:56 21,4 °C 1,2 °C 54 % 87 % 1013,5 hPa 0,0 l/m² 16,5 km/h (3 Bft) SW 235 ° 0 min 0 W/m² -0,7 °C -6,4 °C 25,7 km/h (4 Bft)
03.01.2025 05:58 21,4 °C 1,2 °C 54 % 88 % 1013,5 hPa 0,0 l/m² 17,5 km/h (3 Bft) SW 223 ° 0 min 0 W/m² -0,6 °C -6,9 °C 25,7 km/h (4 Bft)
03.01.2025 06:00 21,4 °C 1,2 °C 54 % 88 % 1013,4 hPa 0,0 l/m² 14,4 km/h (3 Bft) W-SW 239 ° 0 min 0 W/m² -0,6 °C -5,2 °C 24,1 km/h (4 Bft)
03.01.2025 06:01 21,4 °C 1,2 °C 54 % 88 % 1013,4 hPa 0,0 l/m² 22,9 km/h (4 Bft) SW 227 ° 0 min 0 W/m² -0,6 °C -9,3 °C 29,0 km/h (5 Bft)
03.01.2025 06:03 21,4 °C 1,3 °C 54 % 88 % 1013,5 hPa 0,0 l/m² 24,5 km/h (4 Bft) SW 223 ° 0 min 0 W/m² -0,5 °C -9,8 °C 32,2 km/h (5 Bft)
03.01.2025 06:04 21,4 °C 1,3 °C 54 % 88 % 1013,5 hPa 0,0 l/m² 20,8 km/h (4 Bft) SW 216 ° 0 min 0 W/m² -0,5 °C -8,3 °C 27,4 km/h (5 Bft)
03.01.2025 06:06 21,4 °C 1,4 °C 54 % 88 % 1013,5 hPa 0,0 l/m² 19,8 km/h (3 Bft) S-SW 202 ° 0 min 0 W/m² -0,4 °C -7,7 °C 24,1 km/h (4 Bft)
03.01.2025 06:08 21,4 °C 1,4 °C 54 % 88 % 1013,4 hPa 0,0 l/m² 19,1 km/h (3 Bft) SW 219 ° 0 min 0 W/m² -0,4 °C -7,4 °C 27,4 km/h (5 Bft)
03.01.2025 06:10 21,4 °C 1,4 °C 54 % 88 % 1013,4 hPa 0,0 l/m² 17,8 km/h (3 Bft) SW 218 ° 0 min 0 W/m² -0,4 °C -6,8 °C 25,7 km/h (4 Bft)
03.01.2025 06:11 21,4 °C 1,4 °C 54 % 88 % 1013,3 hPa 0,0 l/m² 17,3 km/h (3 Bft) W-SW 244 ° 0 min 0 W/m² -0,4 °C -6,5 °C 24,1 km/h (4 Bft)
03.01.2025 06:13 21,4 °C 1,4 °C 54 % 88 % 1013,4 hPa 0,0 l/m² 17,6 km/h (3 Bft) W-SW 239 ° 0 min 0 W/m² -0,4 °C -6,7 °C 22,5 km/h (4 Bft)
03.01.2025 06:14 21,4 °C 1,5 °C 54 % 88 % 1013,4 hPa 0,0 l/m² 21,1 km/h (4 Bft) SW 229 ° 0 min 0 W/m² -0,3 °C -8,2 °C 27,4 km/h (5 Bft)
03.01.2025 06:16 21,4 °C 1,5 °C 54 % 88 % 1013,4 hPa 0,0 l/m² 18,1 km/h (3 Bft) W-SW 246 ° 0 min 0 W/m² -0,3 °C -6,8 °C 25,7 km/h (4 Bft)
03.01.2025 06:18 21,4 °C 1,5 °C 54 % 88 % 1013,3 hPa 0,0 l/m² 16,7 km/h (3 Bft) SW 223 ° 0 min 0 W/m² -0,3 °C -6,1 °C 24,1 km/h (4 Bft)
03.01.2025 06:20 21,4 °C 1,5 °C 54 % 88 % 1013,3 hPa 0,0 l/m² 16,5 km/h (3 Bft) SW 227 ° 0 min 0 W/m² -0,3 °C -6,0 °C 20,9 km/h (4 Bft)
03.01.2025 06:21 21,4 °C 1,6 °C 54 % 88 % 1013,3 hPa 0,0 l/m² 20,0 km/h (4 Bft) SW 219 ° 0 min 0 W/m² -0,2 °C -7,6 °C 25,7 km/h (4 Bft)
03.01.2025 06:22 21,4 °C 1,5 °C 54 % 88 % 1013,3 hPa 0,0 l/m² 16,9 km/h (3 Bft) SW 236 ° 0 min 0 W/m² -0,3 °C -6,2 °C 20,9 km/h (4 Bft)
03.01.2025 06:24 21,4 °C 1,5 °C 54 % 88 % 1013,3 hPa 0,0 l/m² 16,6 km/h (3 Bft) SW 222 ° 0 min 0 W/m² -0,3 °C -6,0 °C 25,7 km/h (4 Bft)
03.01.2025 06:26 21,4 °C 1,5 °C 54 % 88 % 1013,3 hPa 0,0 l/m² 23,1 km/h (4 Bft) SW 218 ° 0 min 0 W/m² -0,3 °C -9,0 °C 30,6 km/h (5 Bft)
03.01.2025 06:28 21,5 °C 1,6 °C 54 % 88 % 1013,3 hPa 0,0 l/m² 18,9 km/h (3 Bft) W-SW 240 ° 0 min 0 W/m² -0,2 °C -7,1 °C 27,4 km/h (5 Bft)
03.01.2025 06:30 21,5 °C 1,6 °C 54 % 88 % 1013,2 hPa 0,0 l/m² 19,3 km/h (3 Bft) SW 232 ° 0 min 0 W/m² -0,2 °C -7,2 °C 27,4 km/h (5 Bft)
03.01.2025 06:31 21,4 °C 1,6 °C 54 % 88 % 1013,2 hPa 0,0 l/m² 18,0 km/h (3 Bft) S-SW 210 ° 0 min 0 W/m² -0,2 °C -6,6 °C 25,7 km/h (4 Bft)
03.01.2025 06:33 21,5 °C 1,6 °C 54 % 88 % 1013,2 hPa 0,0 l/m² 21,4 km/h (4 Bft) SW 221 ° 0 min 0 W/m² -0,2 °C -8,2 °C 29,0 km/h (5 Bft)
03.01.2025 06:34 21,5 °C 1,6 °C 54 % 88 % 1013,3 hPa 0,0 l/m² 20,3 km/h (4 Bft) SW 221 ° 0 min 0 W/m² -0,2 °C -7,7 °C 25,7 km/h (4 Bft)
03.01.2025 06:36 21,5 °C 1,6 °C 54 % 88 % 1013,4 hPa 0,0 l/m² 20,5 km/h (4 Bft) SW 218 ° 0 min 0 W/m² -0,2 °C -7,8 °C 27,4 km/h (5 Bft)
03.01.2025 06:38 21,5 °C 1,6 °C 54 % 88 % 1013,3 hPa 0,0 l/m² 17,7 km/h (3 Bft) SW 236 ° 0 min 0 W/m² -0,2 °C -6,5 °C 24,1 km/h (4 Bft)
03.01.2025 06:40 21,5 °C 1,6 °C 54 % 87 % 1013,3 hPa 0,0 l/m² 18,9 km/h (3 Bft) SW 226 ° 0 min 0 W/m² -0,3 °C -7,1 °C 25,7 km/h (4 Bft)
03.01.2025 06:41 21,5 °C 1,6 °C 54 % 87 % 1013,3 hPa 0,0 l/m² 21,4 km/h (4 Bft) S-SW 210 ° 0 min 0 W/m² -0,3 °C -8,2 °C 27,4 km/h (5 Bft)
03.01.2025 06:43 21,5 °C 1,7 °C 54 % 87 % 1013,3 hPa 0,0 l/m² 19,9 km/h (4 Bft) SW 217 ° 0 min 0 W/m² -0,2 °C -7,4 °C 25,7 km/h (4 Bft)
03.01.2025 06:45 21,5 °C 1,6 °C 54 % 87 % 1013,3 hPa 0,0 l/m² 15,7 km/h (3 Bft) SW 221 ° 0 min 0 W/m² -0,3 °C -5,4 °C 20,9 km/h (4 Bft)
03.01.2025 06:46 21,6 °C 1,6 °C 54 % 87 % 1013,3 hPa 0,0 l/m² 20,9 km/h (4 Bft) SW 220 ° 0 min 0 W/m² -0,3 °C -8,0 °C 25,7 km/h (4 Bft)
03.01.2025 06:47 21,5 °C 1,6 °C 54 % 87 % 1013,3 hPa 0,0 l/m² 17,9 km/h (3 Bft) SW 226 ° 0 min 0 W/m² -0,3 °C -6,6 °C 25,7 km/h (4 Bft)
03.01.2025 06:49 21,5 °C 1,6 °C 54 % 87 % 1013,3 hPa 0,0 l/m² 18,5 km/h (3 Bft) SW 217 ° 0 min 0 W/m² -0,3 °C -6,9 °C 24,1 km/h (4 Bft)
03.01.2025 06:51 21,5 °C 1,6 °C 54 % 87 % 1013,3 hPa 0,0 l/m² 19,6 km/h (3 Bft) S-SW 212 ° 0 min 0 W/m² -0,3 °C -7,4 °C 25,7 km/h (4 Bft)
03.01.2025 06:53 21,5 °C 1,6 °C 54 % 87 % 1013,3 hPa 0,0 l/m² 18,6 km/h (3 Bft) SW 221 ° 0 min 0 W/m² -0,3 °C -6,9 °C 27,4 km/h (5 Bft)
03.01.2025 06:55 21,5 °C 1,6 °C 54 % 87 % 1013,4 hPa 0,0 l/m² 17,9 km/h (3 Bft) SW 235 ° 0 min 0 W/m² -0,3 °C -6,6 °C 24,1 km/h (4 Bft)
03.01.2025 06:57 21,5 °C 1,7 °C 53 % 87 % 1013,3 hPa 0,0 l/m² 19,9 km/h (4 Bft) SW 227 ° 0 min 0 W/m² -0,2 °C -7,4 °C 27,4 km/h (5 Bft)
03.01.2025 06:59 21,5 °C 1,7 °C 53 % 87 % 1013,4 hPa 0,0 l/m² 20,2 km/h (4 Bft) SW 217 ° 0 min 0 W/m² -0,2 °C -7,5 °C 25,7 km/h (4 Bft)
03.01.2025 07:01 21,6 °C 1,7 °C 53 % 87 % 1013,4 hPa 0,0 l/m² 18,7 km/h (3 Bft) SW 223 ° 0 min 0 W/m² -0,2 °C -6,8 °C 25,7 km/h (4 Bft)
03.01.2025 07:03 21,5 °C 1,7 °C 53 % 87 % 1013,4 hPa 0,0 l/m² 19,2 km/h (3 Bft) SW 225 ° 0 min 0 W/m² -0,2 °C -7,1 °C 27,4 km/h (5 Bft)
03.01.2025 07:05 21,5 °C 1,7 °C 53 % 87 % 1013,4 hPa 0,0 l/m² 17,9 km/h (3 Bft) SW 221 ° 0 min 0 W/m² -0,2 °C -6,5 °C 25,7 km/h (4 Bft)
03.01.2025 07:07 21,5 °C 1,7 °C 53 % 87 % 1013,5 hPa 0,0 l/m² 16,9 km/h (3 Bft) SW 219 ° 0 min 0 W/m² -0,2 °C -6,0 °C 22,5 km/h (4 Bft)
03.01.2025 07:09 21,4 °C 1,7 °C 53 % 87 % 1013,5 hPa 0,0 l/m² 20,9 km/h (4 Bft) SW 222 ° 0 min 0 W/m² -0,2 °C -7,8 °C 27,4 km/h (5 Bft)
03.01.2025 07:11 21,5 °C 1,7 °C 53 % 87 % 1013,5 hPa 0,0 l/m² 16,3 km/h (3 Bft) SW 216 ° 0 min 0 W/m² -0,2 °C -5,6 °C 29,0 km/h (5 Bft)
03.01.2025 07:13 21,4 °C 1,7 °C 53 % 87 % 1013,5 hPa 0,0 l/m² 18,2 km/h (3 Bft) SW 231 ° 0 min 0 W/m² -0,2 °C -6,6 °C 25,7 km/h (4 Bft)
03.01.2025 07:15 21,5 °C 1,7 °C 53 % 87 % 1013,5 hPa 0,0 l/m² 18,7 km/h (3 Bft) W-SW 239 ° 0 min 0 W/m² -0,2 °C -6,8 °C 25,7 km/h (4 Bft)
03.01.2025 07:17 21,5 °C 1,7 °C 53 % 87 % 1013,6 hPa 0,0 l/m² 18,4 km/h (3 Bft) SW 231 ° 0 min 0 W/m² -0,2 °C -6,7 °C 25,7 km/h (4 Bft)
03.01.2025 07:19 21,5 °C 1,7 °C 53 % 87 % 1013,6 hPa 0,0 l/m² 17,9 km/h (3 Bft) W 259 ° 0 min 0 W/m² -0,2 °C -6,5 °C 25,7 km/h (4 Bft)
03.01.2025 07:21 21,4 °C 1,7 °C 53 % 87 % 1013,5 hPa 0,0 l/m² 19,4 km/h (3 Bft) S-SW 209 ° 0 min 0 W/m² -0,2 °C -7,2 °C 30,6 km/h (5 Bft)
03.01.2025 07:23 21,4 °C 1,7 °C 53 % 86 % 1013,5 hPa 0,0 l/m² 22,7 km/h (4 Bft) SW 223 ° 0 min 0 W/m² -0,4 °C -8,6 °C 30,6 km/h (5 Bft)
03.01.2025 07:25 21,4 °C 1,8 °C 53 % 86 % 1013,5 hPa 0,0 l/m² 20,0 km/h (4 Bft) S-SW 212 ° 0 min 0 W/m² -0,3 °C -7,3 °C 29,0 km/h (5 Bft)
03.01.2025 07:26 21,5 °C 1,7 °C 53 % 86 % 1013,4 hPa 0,0 l/m² 21,8 km/h (4 Bft) SW 219 ° 0 min 0 W/m² -0,4 °C -8,2 °C 30,6 km/h (5 Bft)
03.01.2025 07:27 21,5 °C 1,7 °C 53 % 86 % 1013,4 hPa 0,0 l/m² 21,8 km/h (4 Bft) SW 222 ° 0 min 0 W/m² -0,4 °C -8,2 °C 30,6 km/h (5 Bft)
03.01.2025 07:29 21,4 °C 1,7 °C 53 % 86 % 1013,4 hPa 0,0 l/m² 23,2 km/h (4 Bft) S-SW 208 ° 0 min 0 W/m² -0,4 °C -8,8 °C 30,6 km/h (5 Bft)
03.01.2025 07:31 21,5 °C 1,7 °C 53 % 86 % 1013,5 hPa 0,0 l/m² 20,0 km/h (4 Bft) SW 231 ° 0 min 0 W/m² -0,4 °C -7,4 °C 30,6 km/h (5 Bft)
03.01.2025 07:33 21,4 °C 1,7 °C 53 % 86 % 1013,5 hPa 0,0 l/m² 20,7 km/h (4 Bft) SW 232 ° 0 min 0 W/m² -0,4 °C -7,7 °C 27,4 km/h (5 Bft)
03.01.2025 07:35 21,5 °C 1,7 °C 53 % 86 % 1013,3 hPa 0,0 l/m² 16,4 km/h (3 Bft) SW 236 ° 0 min 0 W/m² -0,4 °C -5,7 °C 20,9 km/h (4 Bft)
03.01.2025 07:37 21,4 °C 1,8 °C 53 % 86 % 1013,4 hPa 0,0 l/m² 16,8 km/h (3 Bft) SW 236 ° 0 min 0 W/m² -0,3 °C -5,8 °C 27,4 km/h (5 Bft)
03.01.2025 07:39 21,4 °C 1,7 °C 53 % 86 % 1013,4 hPa 0,0 l/m² 18,4 km/h (3 Bft) SW 225 ° 0 min 0 W/m² -0,4 °C -6,7 °C 25,7 km/h (4 Bft)
03.01.2025 07:41 21,5 °C 1,7 °C 53 % 86 % 1013,4 hPa 0,0 l/m² 20,1 km/h (4 Bft) SW 220 ° 0 min 0 W/m² -0,4 °C -7,5 °C 29,0 km/h (5 Bft)
03.01.2025 07:43 21,4 °C 1,7 °C 53 % 86 % 1013,3 hPa 0,0 l/m² 18,8 km/h (3 Bft) SW 228 ° 0 min 0 W/m² -0,4 °C -6,9 °C 25,7 km/h (4 Bft)
03.01.2025 07:45 21,4 °C 1,7 °C 53 % 86 % 1013,4 hPa 0,0 l/m² 18,8 km/h (3 Bft) SW 227 ° 0 min 0 W/m² -0,4 °C -6,9 °C 25,7 km/h (4 Bft)
03.01.2025 07:47 21,4 °C 1,7 °C 53 % 86 % 1013,5 hPa 0,0 l/m² 18,5 km/h (3 Bft) SW 227 ° 0 min 0 W/m² -0,4 °C -6,7 °C 27,4 km/h (5 Bft)
03.01.2025 07:49 21,4 °C 1,6 °C 53 % 87 % 1013,5 hPa 0,0 l/m² 20,9 km/h (4 Bft) SW 219 ° 0 min 0 W/m² -0,3 °C -8,0 °C 29,0 km/h (5 Bft)
03.01.2025 07:51 21,4 °C 1,6 °C 53 % 87 % 1013,5 hPa 0,0 l/m² 20,1 km/h (4 Bft) SW 229 ° 0 min 0 W/m² -0,3 °C -7,6 °C 30,6 km/h (5 Bft)
03.01.2025 07:53 21,4 °C 1,5 °C 53 % 87 % 1013,5 hPa 0,0 l/m² 23,5 km/h (4 Bft) W-SW 238 ° 0 min 0 W/m² -0,4 °C -9,1 °C 30,6 km/h (5 Bft)
03.01.2025 07:55 21,4 °C 1,5 °C 53 % 87 % 1013,4 hPa 0,0 l/m² 20,4 km/h (4 Bft) S-SW 209 ° 0 min 0 W/m² -0,4 °C -7,9 °C 33,8 km/h (5 Bft)
03.01.2025 07:57 21,4 °C 1,4 °C 53 % 87 % 1013,5 hPa 0,0 l/m² 24,7 km/h (4 Bft) SW 225 ° 0 min 0 W/m² -0,5 °C -9,7 °C 32,2 km/h (5 Bft)
03.01.2025 07:59 21,4 °C 1,4 °C 53 % 87 % 1013,5 hPa 0,0 l/m² 21,8 km/h (4 Bft) SW 221 ° 0 min 0 W/m² -0,5 °C -8,6 °C 30,6 km/h (5 Bft)
03.01.2025 08:01 21,4 °C 1,4 °C 53 % 87 % 1013,6 hPa 0,0 l/m² 19,3 km/h (3 Bft) S-SW 208 ° 0 min 0 W/m² -0,5 °C -7,5 °C 25,7 km/h (4 Bft)
03.01.2025 08:02 21,4 °C 1,4 °C 53 % 87 % 1013,7 hPa 0,0 l/m² 17,5 km/h (3 Bft) W-SW 253 ° 0 min 0 W/m² -0,5 °C -6,6 °C 24,1 km/h (4 Bft)
03.01.2025 08:04 21,4 °C 1,3 °C 53 % 87 % 1013,7 hPa 0,0 l/m² 19,8 km/h (3 Bft) W-SW 241 ° 0 min 0 W/m² -0,6 °C -7,9 °C 25,7 km/h (4 Bft)
03.01.2025 08:06 21,4 °C 1,3 °C 53 % 88 % 1013,7 hPa 0,0 l/m² 18,3 km/h (3 Bft) SW 228 ° 0 min 0 W/m² -0,5 °C -7,2 °C 27,4 km/h (5 Bft)
03.01.2025 08:08 21,4 °C 1,3 °C 53 % 88 % 1013,7 hPa 0,0 l/m² 19,8 km/h (3 Bft) SW 228 ° 0 min 0 W/m² -0,5 °C -7,9 °C 25,7 km/h (4 Bft)
03.01.2025 08:10 21,4 °C 1,3 °C 53 % 88 % 1013,6 hPa 0,0 l/m² 19,1 km/h (3 Bft) W-SW 258 ° 0 min 0 W/m² -0,5 °C -7,5 °C 29,0 km/h (5 Bft)
03.01.2025 08:12 21,4 °C 1,3 °C 53 % 88 % 1013,6 hPa 0,0 l/m² 16,8 km/h (3 Bft) SW 228 ° 0 min 0 W/m² -0,5 °C -6,4 °C 25,7 km/h (4 Bft)
03.01.2025 08:13 21,4 °C 1,3 °C 53 % 88 % 1013,6 hPa 0,0 l/m² 19,6 km/h (3 Bft) W-SW 254 ° 0 min 0 W/m² -0,5 °C -7,8 °C 24,1 km/h (4 Bft)
03.01.2025 08:14 21,4 °C 1,3 °C 53 % 88 % 1013,6 hPa 0,0 l/m² 16,8 km/h (3 Bft) SW 225 ° 0 min 0 W/m² -0,5 °C -6,4 °C 25,7 km/h (4 Bft)
03.01.2025 08:15 21,4 °C 1,3 °C 53 % 88 % 1013,6 hPa 0,0 l/m² 22,2 km/h (4 Bft) SW 227 ° 0 min 0 W/m² -0,5 °C -8,9 °C 30,6 km/h (5 Bft)
03.01.2025 08:17 21,4 °C 1,3 °C 53 % 88 % 1013,7 hPa 0,0 l/m² 20,0 km/h (4 Bft) SW 226 ° 0 min 0 W/m² -0,5 °C -8,0 °C 27,4 km/h (5 Bft)
03.01.2025 08:19 21,4 °C 1,3 °C 53 % 88 % 1013,6 hPa 0,0 l/m² 19,3 km/h (3 Bft) W-SW 244 ° 0 min 5 W/m² -0,5 °C -7,6 °C 30,6 km/h (5 Bft)
03.01.2025 08:21 21,4 °C 1,3 °C 53 % 88 % 1013,7 hPa 0,0 l/m² 18,6 km/h (3 Bft) SW 232 ° 0 min 5 W/m² -0,5 °C -7,3 °C 25,7 km/h (4 Bft)
03.01.2025 08:23 21,4 °C 1,2 °C 53 % 88 % 1013,7 hPa 0,0 l/m² 19,1 km/h (3 Bft) W-SW 244 ° 0 min 5 W/m² -0,6 °C -7,7 °C 27,4 km/h (5 Bft)
03.01.2025 08:24 21,4 °C 1,3 °C 53 % 88 % 1013,7 hPa 0,0 l/m² 22,0 km/h (4 Bft) SW 223 ° 0 min 5 W/m² -0,5 °C -8,8 °C 29,0 km/h (5 Bft)
03.01.2025 08:25 21,4 °C 1,3 °C 53 % 88 % 1013,6 hPa 0,0 l/m² 20,5 km/h (4 Bft) SW 222 ° 0 min 7 W/m² -0,5 °C -8,2 °C 27,4 km/h (5 Bft)
03.01.2025 08:26 21,4 °C 1,2 °C 53 % 88 % 1013,7 hPa 0,0 l/m² 19,9 km/h (4 Bft) SW 221 ° 0 min 7 W/m² -0,6 °C -8,0 °C 27,4 km/h (5 Bft)
03.01.2025 08:27 21,4 °C 1,3 °C 53 % 88 % 1013,7 hPa 0,0 l/m² 20,9 km/h (4 Bft) SW 225 ° 0 min 7 W/m² -0,5 °C -8,3 °C 27,4 km/h (5 Bft)
03.01.2025 08:28 21,4 °C 1,3 °C 53 % 88 % 1013,7 hPa 0,0 l/m² 22,5 km/h (4 Bft) SW 225 ° 0 min 7 W/m² -0,5 °C -9,0 °C 33,8 km/h (5 Bft)
03.01.2025 08:33 21,4 °C 1,3 °C 53 % 88 % 1013,7 hPa 0,0 l/m² 23,4 km/h (4 Bft) SW 221 ° 0 min 9 W/m² -0,5 °C -9,4 °C 29,0 km/h (5 Bft)
03.01.2025 08:35 21,5 °C 1,3 °C 53 % 88 % 1013,7 hPa 0,0 l/m² 23,1 km/h (4 Bft) W-SW 252 ° 0 min 11 W/m² -0,5 °C -9,2 °C 30,6 km/h (5 Bft)
03.01.2025 08:36 21,5 °C 1,3 °C 53 % 88 % 1013,7 hPa 0,0 l/m² 21,6 km/h (4 Bft) SW 233 ° 0 min 11 W/m² -0,5 °C -8,6 °C 27,4 km/h (5 Bft)
03.01.2025 08:38 21,4 °C 1,3 °C 53 % 88 % 1013,7 hPa 0,0 l/m² 19,6 km/h (3 Bft) SW 229 ° 0 min 12 W/m² -0,5 °C -7,8 °C 29,0 km/h (5 Bft)
03.01.2025 08:40 21,5 °C 1,3 °C 54 % 88 % 1013,7 hPa 0,0 l/m² 17,1 km/h (3 Bft) SW 230 ° 0 min 12 W/m² -0,5 °C -6,6 °C 22,5 km/h (4 Bft)
03.01.2025 08:41 21,5 °C 1,4 °C 54 % 88 % 1013,7 hPa 0,0 l/m² 19,6 km/h (3 Bft) SW 231 ° 0 min 12 W/m² -0,4 °C -7,6 °C 24,1 km/h (4 Bft)
03.01.2025 08:42 21,5 °C 1,4 °C 54 % 88 % 1013,7 hPa 0,0 l/m² 20,6 km/h (4 Bft) S-SW 213 ° 0 min 14 W/m² -0,4 °C -8,1 °C 25,7 km/h (4 Bft)
03.01.2025 08:44 21,5 °C 1,4 °C 54 % 88 % 1013,8 hPa 0,0 l/m² 19,2 km/h (3 Bft) SW 221 ° 0 min 19 W/m² -0,4 °C -7,5 °C 25,7 km/h (4 Bft)
03.01.2025 08:46 21,5 °C 1,4 °C 54 % 88 % 1013,8 hPa 0,0 l/m² 20,4 km/h (4 Bft) W-SW 254 ° 0 min 19 W/m² -0,4 °C -8,0 °C 27,4 km/h (5 Bft)
03.01.2025 08:48 21,6 °C 1,5 °C 54 % 88 % 1013,8 hPa 0,0 l/m² 21,0 km/h (4 Bft) W-SW 238 ° 0 min 21 W/m² -0,3 °C -8,1 °C 29,0 km/h (5 Bft)
03.01.2025 08:50 21,6 °C 1,6 °C 54 % 88 % 1013,8 hPa 0,0 l/m² 20,8 km/h (4 Bft) SW 227 ° 0 min 28 W/m² -0,2 °C -7,9 °C 25,7 km/h (4 Bft)
03.01.2025 08:51 21,6 °C 1,6 °C 54 % 88 % 1013,8 hPa 0,0 l/m² 18,4 km/h (3 Bft) SW 224 ° 0 min 32 W/m² -0,2 °C -6,8 °C 24,1 km/h (4 Bft)
03.01.2025 08:52 21,6 °C 1,6 °C 54 % 88 % 1013,8 hPa 0,0 l/m² 25,3 km/h (4 Bft) SW 230 ° 0 min 39 W/m² -0,2 °C -9,7 °C 30,6 km/h (5 Bft)
03.01.2025 08:54 21,6 °C 1,6 °C 55 % 88 % 1013,7 hPa 0,0 l/m² 20,1 km/h (4 Bft) SW 230 ° 2 min 54 W/m² -0,2 °C -7,6 °C 27,4 km/h (5 Bft)
03.01.2025 08:56 21,6 °C 1,7 °C 55 % 88 % 1013,7 hPa 0,0 l/m² 19,9 km/h (4 Bft) W-SW 237 ° 0 min 47 W/m² -0,1 °C -7,4 °C 29,0 km/h (5 Bft)
03.01.2025 08:58 21,6 °C 1,7 °C 55 % 88 % 1013,8 hPa 0,0 l/m² 18,9 km/h (3 Bft) W-SW 239 ° 0 min 28 W/m² -0,1 °C -6,9 °C 27,4 km/h (5 Bft)
03.01.2025 09:00 21,6 °C 1,7 °C 55 % 88 % 1013,7 hPa 0,0 l/m² 16,9 km/h (3 Bft) W-SW 254 ° 0 min 25 W/m² -0,1 °C -6,0 °C 25,7 km/h (4 Bft)
03.01.2025 09:01 21,6 °C 1,7 °C 55 % 88 % 1013,8 hPa 0,0 l/m² 18,4 km/h (3 Bft) W-SW 244 ° 0 min 28 W/m² -0,1 °C -6,7 °C 25,7 km/h (4 Bft)
03.01.2025 09:02 21,6 °C 1,7 °C 55 % 88 % 1013,8 hPa 0,0 l/m² 19,3 km/h (3 Bft) W-SW 244 ° 0 min 28 W/m² -0,1 °C -7,1 °C 25,7 km/h (4 Bft)
03.01.2025 09:03 21,6 °C 1,7 °C 55 % 88 % 1013,7 hPa 0,0 l/m² 20,6 km/h (4 Bft) SW 228 ° 0 min 28 W/m² -0,1 °C -7,7 °C 25,7 km/h (4 Bft)
03.01.2025 09:04 21,6 °C 1,7 °C 55 % 88 % 1013,8 hPa 0,0 l/m² 18,1 km/h (3 Bft) W-SW 240 ° 0 min 26 W/m² -0,1 °C -6,6 °C 22,5 km/h (4 Bft)
03.01.2025 09:06 21,6 °C 1,7 °C 55 % 88 % 1013,7 hPa 0,0 l/m² 21,8 km/h (4 Bft) SW 231 ° 0 min 21 W/m² -0,1 °C -8,2 °C 27,4 km/h (5 Bft)
03.01.2025 09:08 21,6 °C 1,7 °C 55 % 88 % 1013,8 hPa 0,0 l/m² 15,6 km/h (3 Bft) W-SW 239 ° 0 min 23 W/m² -0,1 °C -5,3 °C 20,9 km/h (4 Bft)
03.01.2025 09:10 21,6 °C 1,7 °C 55 % 88 % 1013,8 hPa 0,0 l/m² 20,9 km/h (4 Bft) W-SW 240 ° 0 min 26 W/m² -0,1 °C -7,8 °C 29,0 km/h (5 Bft)
03.01.2025 09:11 21,6 °C 1,7 °C 55 % 88 % 1013,8 hPa 0,0 l/m² 23,6 km/h (4 Bft) SW 231 ° 0 min 30 W/m² -0,1 °C -8,9 °C 29,0 km/h (5 Bft)
03.01.2025 09:12 21,6 °C 1,6 °C 55 % 88 % 1013,8 hPa 0,0 l/m² 19,8 km/h (3 Bft) SW 227 ° 0 min 35 W/m² -0,2 °C -7,5 °C 25,7 km/h (4 Bft)
03.01.2025 09:14 21,7 °C 1,6 °C 55 % 88 % 1013,8 hPa 0,0 l/m² 18,4 km/h (3 Bft) SW 236 ° 0 min 42 W/m² -0,2 °C -6,8 °C 29,0 km/h (5 Bft)
03.01.2025 09:16 21,7 °C 1,6 °C 55 % 88 % 1013,7 hPa 0,0 l/m² 21,3 km/h (4 Bft) W-SW 239 ° 2 min 62 W/m² -0,2 °C -8,1 °C 27,4 km/h (5 Bft)
03.01.2025 09:18 21,7 °C 1,6 °C 55 % 88 % 1013,7 hPa 0,0 l/m² 20,5 km/h (4 Bft) W-SW 250 ° 2 min 114 W/m² -0,2 °C -7,8 °C 30,6 km/h (5 Bft)
03.01.2025 09:20 21,8 °C 1,7 °C 54 % 88 % 1013,5 hPa 0,0 l/m² 23,1 km/h (4 Bft) SW 229 ° 2 min 93 W/m² -0,1 °C -8,7 °C 27,4 km/h (5 Bft)
03.01.2025 09:21 21,8 °C 1,7 °C 54 % 88 % 1013,6 hPa 0,0 l/m² 18,3 km/h (3 Bft) SW 236 ° 1 min 102 W/m² -0,1 °C -6,7 °C 25,7 km/h (4 Bft)
03.01.2025 09:22 21,8 °C 1,7 °C 54 % 88 % 1013,6 hPa 0,0 l/m² 22,8 km/h (4 Bft) S-SW 208 ° 1 min 121 W/m² -0,1 °C -8,6 °C 32,2 km/h (5 Bft)
03.01.2025 09:24 21,8 °C 1,8 °C 54 % 89 % 1013,6 hPa 0,0 l/m² 21,9 km/h (4 Bft) SW 232 ° 0 min 32 W/m² 0,2 °C -8,1 °C 32,2 km/h (5 Bft)
03.01.2025 09:26 21,8 °C 1,8 °C 54 % 88 % 1013,6 hPa 0,0 l/m² 21,1 km/h (4 Bft) SW 228 ° 0 min 42 W/m² 0,0 °C -7,8 °C 33,8 km/h (5 Bft)
03.01.2025 09:28 21,8 °C 1,8 °C 54 % 88 % 1013,5 hPa 0,0 l/m² 20,9 km/h (4 Bft) W-SW 246 ° 2 min 60 W/m² 0,0 °C -7,7 °C 27,4 km/h (5 Bft)
03.01.2025 09:30 21,8 °C 1,8 °C 54 % 88 % 1013,5 hPa 0,0 l/m² 23,1 km/h (4 Bft) SW 236 ° 2 min 76 W/m² 0,0 °C -8,6 °C 29,0 km/h (5 Bft)
03.01.2025 09:31 21,8 °C 1,8 °C 54 % 88 % 1013,5 hPa 0,0 l/m² 21,2 km/h (4 Bft) W-SW 248 ° 1 min 76 W/m² 0,0 °C -7,8 °C 25,7 km/h (4 Bft)
03.01.2025 09:32 21,8 °C 1,8 °C 54 % 88 % 1013,5 hPa 0,0 l/m² 20,9 km/h (4 Bft) SW 235 ° 1 min 95 W/m² 0,0 °C -7,7 °C 30,6 km/h (5 Bft)
03.01.2025 09:34 21,8 °C 1,8 °C 54 % 88 % 1013,5 hPa 0,0 l/m² 20,8 km/h (4 Bft) W 269 ° 2 min 132 W/m² 0,0 °C -7,7 °C 29,0 km/h (5 Bft)
03.01.2025 09:36 21,8 °C 1,9 °C 54 % 88 % 1013,6 hPa 0,0 l/m² 21,7 km/h (4 Bft) W-SW 240 ° 2 min 137 W/m² 0,1 °C -7,9 °C 30,6 km/h (5 Bft)
03.01.2025 09:38 21,8 °C 1,9 °C 54 % 88 % 1013,5 hPa 0,0 l/m² 20,4 km/h (4 Bft) W-SW 238 ° 2 min 120 W/m² 0,1 °C -7,4 °C 30,6 km/h (5 Bft)
03.01.2025 09:40 21,8 °C 2,0 °C 54 % 88 % 1013,5 hPa 0,0 l/m² 21,7 km/h (4 Bft) W-SW 237 ° 2 min 109 W/m² 0,2 °C -7,8 °C 33,8 km/h (5 Bft)
03.01.2025 09:41 21,8 °C 2,1 °C 54 % 88 % 1013,5 hPa 0,0 l/m² 27,1 km/h (5 Bft) S-SW 200 ° 1 min 90 W/m² 0,3 °C -9,6 °C 38,6 km/h (6 Bft)
03.01.2025 09:42 21,8 °C 2,1 °C 54 % 88 % 1013,5 hPa 0,0 l/m² 27,5 km/h (5 Bft) SW 225 ° 1 min 70 W/m² 0,3 °C -9,7 °C 33,8 km/h (5 Bft)
03.01.2025 09:44 21,9 °C 2,0 °C 54 % 88 % 1013,5 hPa 0,0 l/m² 23,5 km/h (4 Bft) W-SW 244 ° 2 min 67 W/m² 0,2 °C -8,5 °C 30,6 km/h (5 Bft)
03.01.2025 09:46 21,9 °C 2,0 °C 54 % 88 % 1013,6 hPa 0,0 l/m² 21,9 km/h (4 Bft) W-SW 240 ° 2 min 77 W/m² 0,2 °C -7,8 °C 32,2 km/h (5 Bft)
03.01.2025 09:47 21,9 °C 1,9 °C 54 % 88 % 1013,6 hPa 0,0 l/m² 20,3 km/h (4 Bft) W-SW 241 ° 1 min 84 W/m² 0,1 °C -7,3 °C 24,1 km/h (4 Bft)
03.01.2025 09:48 21,9 °C 1,9 °C 54 % 88 % 1013,6 hPa 0,0 l/m² 20,6 km/h (4 Bft) W-SW 249 ° 1 min 97 W/m² 0,1 °C -7,4 °C 27,4 km/h (5 Bft)
03.01.2025 09:49 21,8 °C 1,8 °C 54 % 88 % 1013,6 hPa 0,0 l/m² 17,4 km/h (3 Bft) W-SW 240 ° 1 min 125 W/m² 0,0 °C -6,1 °C 20,9 km/h (4 Bft)
03.01.2025 09:51 21,8 °C 1,8 °C 54 % 89 % 1013,6 hPa 0,0 l/m² 20,0 km/h (4 Bft) SW 234 ° 2 min 181 W/m² 0,2 °C -7,3 °C 29,0 km/h (5 Bft)
03.01.2025 09:54 21,9 °C 1,8 °C 54 % 89 % 1013,6 hPa 0,0 l/m² 19,3 km/h (3 Bft) W-SW 237 ° 3 min 97 W/m² 0,2 °C -7,0 °C 27,4 km/h (5 Bft)
03.01.2025 09:55 21,9 °C 1,8 °C 54 % 89 % 1013,6 hPa 0,0 l/m² 18,2 km/h (3 Bft) SW 229 ° 1 min 91 W/m² 0,2 °C -6,5 °C 24,1 km/h (4 Bft)
03.01.2025 09:56 21,9 °C 1,8 °C 54 % 89 % 1013,6 hPa 0,0 l/m² 19,6 km/h (3 Bft) SW 230 ° 1 min 91 W/m² 0,2 °C -7,1 °C 25,7 km/h (4 Bft)
03.01.2025 09:57 21,9 °C 1,8 °C 54 % 89 % 1013,5 hPa 0,0 l/m² 17,4 km/h (3 Bft) W-SW 248 ° 1 min 88 W/m² 0,2 °C -6,1 °C 22,5 km/h (4 Bft)
03.01.2025 09:58 21,9 °C 1,8 °C 54 % 89 % 1013,5 hPa 0,0 l/m² 19,9 km/h (4 Bft) SW 219 ° 1 min 86 W/m² 0,2 °C -7,3 °C 25,7 km/h (4 Bft)
03.01.2025 09:59 21,9 °C 1,7 °C 54 % 89 % 1013,5 hPa 0,0 l/m² 17,5 km/h (3 Bft) SW 234 ° 1 min 84 W/m² 0,1 °C -6,3 °C 24,1 km/h (4 Bft)
03.01.2025 10:01 21,9 °C 1,7 °C 54 % 89 % 1013,5 hPa 0,0 l/m² 20,6 km/h (4 Bft) W-SW 238 ° 2 min 88 W/m² 0,1 °C -7,7 °C 29,0 km/h (5 Bft)
03.01.2025 10:04 21,9 °C 1,7 °C 54 % 89 % 1013,5 hPa 0,0 l/m² 19,2 km/h (3 Bft) SW 229 ° 3 min 100 W/m² 0,1 °C -7,1 °C 25,7 km/h (4 Bft)
03.01.2025 10:05 21,9 °C 1,7 °C 54 % 89 % 1013,5 hPa 0,0 l/m² 22,3 km/h (4 Bft) SW 232 ° 1 min 107 W/m² 0,1 °C -8,4 °C 32,2 km/h (5 Bft)
03.01.2025 10:06 21,9 °C 1,7 °C 54 % 89 % 1013,5 hPa 0,0 l/m² 21,7 km/h (4 Bft) SW 221 ° 1 min 102 W/m² 0,1 °C -8,2 °C 27,4 km/h (5 Bft)
03.01.2025 10:07 21,9 °C 1,7 °C 54 % 89 % 1013,5 hPa 0,0 l/m² 20,9 km/h (4 Bft) W-SW 241 ° 1 min 97 W/m² 0,1 °C -7,8 °C 27,4 km/h (5 Bft)
03.01.2025 10:08 21,9 °C 1,8 °C 54 % 89 % 1013,5 hPa 0,0 l/m² 20,8 km/h (4 Bft) SW 220 ° 1 min 95 W/m² 0,2 °C -7,7 °C 25,7 km/h (4 Bft)
03.01.2025 10:09 21,8 °C 1,8 °C 54 % 89 % 1013,5 hPa 0,0 l/m² 21,8 km/h (4 Bft) SW 227 ° 1 min 93 W/m² 0,2 °C -8,1 °C 25,7 km/h (4 Bft)
03.01.2025 10:11 21,8 °C 1,8 °C 54 % 89 % 1013,5 hPa 0,0 l/m² 19,3 km/h (3 Bft) SW 236 ° 2 min 91 W/m² 0,2 °C -7,0 °C 24,1 km/h (4 Bft)
03.01.2025 10:13 21,9 °C 1,8 °C 54 % 89 % 1013,6 hPa 0,0 l/m² 19,2 km/h (3 Bft) SW 234 ° 2 min 91 W/m² 0,2 °C -6,9 °C 25,7 km/h (4 Bft)
03.01.2025 10:14 21,8 °C 1,9 °C 54 % 89 % 1013,5 hPa 0,0 l/m² 20,7 km/h (4 Bft) SW 234 ° 1 min 93 W/m² 0,3 °C -7,5 °C 25,7 km/h (4 Bft)
03.01.2025 10:15 21,8 °C 1,8 °C 54 % 89 % 1013,5 hPa 0,0 l/m² 23,0 km/h (4 Bft) SW 230 ° 1 min 95 W/m² 0,2 °C -8,5 °C 29,0 km/h (5 Bft)
03.01.2025 10:16 21,8 °C 1,9 °C 54 % 89 % 1013,5 hPa 0,0 l/m² 21,9 km/h (4 Bft) W-SW 249 ° 1 min 95 W/m² 0,3 °C -8,0 °C 29,0 km/h (5 Bft)
03.01.2025 10:17 21,8 °C 1,9 °C 54 % 88 % 1013,6 hPa 0,0 l/m² 20,9 km/h (4 Bft) SW 234 ° 1 min 98 W/m² 0,1 °C -7,6 °C 24,1 km/h (4 Bft)
03.01.2025 10:18 21,8 °C 1,9 °C 54 % 88 % 1013,7 hPa 0,0 l/m² 21,4 km/h (4 Bft) W 259 ° 1 min 98 W/m² 0,1 °C -7,8 °C 25,7 km/h (4 Bft)
03.01.2025 10:19 21,8 °C 1,9 °C 54 % 88 % 1013,6 hPa 0,0 l/m² 19,9 km/h (4 Bft) SW 234 ° 1 min 100 W/m² 0,1 °C -7,1 °C 24,1 km/h (4 Bft)
03.01.2025 10:21 21,8 °C 1,9 °C 54 % 88 % 1013,6 hPa 0,0 l/m² 23,3 km/h (4 Bft) W 268 ° 2 min 100 W/m² 0,1 °C -8,5 °C 29,0 km/h (5 Bft)
03.01.2025 10:23 21,8 °C 2,0 °C 54 % 88 % 1013,6 hPa 0,0 l/m² 21,3 km/h (4 Bft) SW 236 ° 2 min 102 W/m² 0,2 °C -7,6 °C 32,2 km/h (5 Bft)
03.01.2025 10:24 21,8 °C 2,0 °C 54 % 88 % 1013,6 hPa 0,0 l/m² 18,4 km/h (3 Bft) W-SW 238 ° 1 min 104 W/m² 0,2 °C -6,3 °C 29,0 km/h (5 Bft)
03.01.2025 10:25 21,8 °C 2,1 °C 54 % 88 % 1013,7 hPa 0,0 l/m² 22,5 km/h (4 Bft) W-SW 238 ° 1 min 104 W/m² 0,3 °C -8,0 °C 30,6 km/h (5 Bft)
03.01.2025 10:26 21,8 °C 2,1 °C 54 % 88 % 1013,6 hPa 0,0 l/m² 20,0 km/h (4 Bft) SW 233 ° 1 min 104 W/m² 0,3 °C -6,9 °C 27,4 km/h (5 Bft)
03.01.2025 10:27 21,8 °C 2,1 °C 54 % 87 % 1013,7 hPa 0,0 l/m² 22,1 km/h (4 Bft) W-SW 250 ° 1 min 104 W/m² 0,2 °C -7,8 °C 29,0 km/h (5 Bft)
03.01.2025 10:28 21,8 °C 2,1 °C 54 % 87 % 1013,6 hPa 0,0 l/m² 19,2 km/h (3 Bft) SW 224 ° 1 min 104 W/m² 0,2 °C -6,6 °C 29,0 km/h (5 Bft)
03.01.2025 10:29 21,8 °C 2,1 °C 54 % 87 % 1013,6 hPa 0,0 l/m² 18,4 km/h (3 Bft) W 262 ° 1 min 102 W/m² 0,2 °C -6,2 °C 24,1 km/h (4 Bft)
03.01.2025 10:31 21,8 °C 2,2 °C 54 % 87 % 1013,6 hPa 0,0 l/m² 15,4 km/h (3 Bft) SW 217 ° 2 min 102 W/m² 0,3 °C -4,5 °C 22,5 km/h (4 Bft)
03.01.2025 10:33 21,8 °C 2,2 °C 54 % 87 % 1013,7 hPa 0,0 l/m² 15,4 km/h (3 Bft) SW 227 ° 2 min 102 W/m² 0,3 °C -4,5 °C 20,9 km/h (4 Bft)
03.01.2025 10:34 21,8 °C 2,2 °C 54 % 87 % 1013,7 hPa 0,0 l/m² 17,0 km/h (3 Bft) SW 216 ° 1 min 102 W/m² 0,3 °C -5,4 °C 20,9 km/h (4 Bft)
03.01.2025 10:35 21,8 °C 2,2 °C 54 % 87 % 1013,7 hPa 0,0 l/m² 15,0 km/h (3 Bft) SW 214 ° 1 min 102 W/m² 0,3 °C -4,3 °C 20,9 km/h (4 Bft)
03.01.2025 10:36 21,8 °C 2,2 °C 54 % 87 % 1013,7 hPa 0,0 l/m² 14,0 km/h (3 Bft) SW 234 ° 1 min 102 W/m² 0,3 °C -3,7 °C 19,3 km/h (3 Bft)
03.01.2025 10:37 21,8 °C 2,2 °C 54 % 87 % 1013,7 hPa 0,0 l/m² 19,0 km/h (3 Bft) W-SW 240 ° 1 min 100 W/m² 0,3 °C -6,3 °C 24,1 km/h (4 Bft)
03.01.2025 10:38 21,8 °C 2,2 °C 54 % 87 % 1013,7 hPa 0,0 l/m² 17,2 km/h (3 Bft) SW 223 ° 1 min 98 W/m² 0,3 °C -5,5 °C 25,7 km/h (4 Bft)
03.01.2025 10:39 21,7 °C 2,2 °C 54 % 87 % 1013,7 hPa 0,0 l/m² 17,9 km/h (3 Bft) SW 228 ° 1 min 95 W/m² 0,3 °C -5,8 °C 25,7 km/h (4 Bft)
03.01.2025 10:41 21,7 °C 2,2 °C 54 % 87 % 1013,9 hPa 0,0 l/m² 18,7 km/h (3 Bft) SW 217 ° 2 min 69 W/m² 0,3 °C -6,2 °C 24,1 km/h (4 Bft)
03.01.2025 10:43 21,7 °C 2,3 °C 54 % 87 % 1013,9 hPa 0,0 l/m² 18,5 km/h (3 Bft) SW 225 ° 2 min 54 W/m² 0,4 °C -6,0 °C 25,7 km/h (4 Bft)
03.01.2025 10:44 21,7 °C 2,2 °C 54 % 86 % 1013,9 hPa 0,0 l/m² 19,0 km/h (3 Bft) W-SW 238 ° 0 min 47 W/m² 0,1 °C -6,3 °C 27,4 km/h (5 Bft)
03.01.2025 10:45 21,7 °C 2,2 °C 54 % 86 % 1013,9 hPa 0,0 l/m² 19,7 km/h (3 Bft) SW 223 ° 0 min 42 W/m² 0,1 °C -6,7 °C 24,1 km/h (4 Bft)
03.01.2025 10:46 21,7 °C 2,3 °C 54 % 86 % 1013,9 hPa 0,0 l/m² 23,2 km/h (4 Bft) SW 220 ° 0 min 32 W/m² 0,2 °C -8,0 °C 29,0 km/h (5 Bft)
03.01.2025 10:47 21,7 °C 2,3 °C 54 % 86 % 1013,9 hPa 0,0 l/m² 15,4 km/h (3 Bft) W-SW 245 ° 0 min 30 W/m² 0,2 °C -4,4 °C 22,5 km/h (4 Bft)
03.01.2025 10:48 21,7 °C 2,3 °C 54 % 86 % 1013,9 hPa 0,0 l/m² 19,9 km/h (4 Bft) SW 225 ° 0 min 33 W/m² 0,2 °C -6,6 °C 25,7 km/h (4 Bft)
03.01.2025 10:49 21,7 °C 2,2 °C 54 % 86 % 1013,9 hPa 0,0 l/m² 16,4 km/h (3 Bft) S-SW 213 ° 0 min 39 W/m² 0,1 °C -5,1 °C 20,9 km/h (4 Bft)
03.01.2025 10:51 21,7 °C 2,2 °C 54 % 86 % 1014,0 hPa 0,0 l/m² 15,5 km/h (3 Bft) W-SW 244 ° 0 min 37 W/m² 0,1 °C -4,6 °C 25,7 km/h (4 Bft)
03.01.2025 10:53 21,7 °C 2,2 °C 54 % 86 % 1014,0 hPa 0,0 l/m² 18,6 km/h (3 Bft) S-SW 213 ° 0 min 44 W/m² 0,1 °C -6,2 °C 24,1 km/h (4 Bft)
03.01.2025 10:54 21,7 °C 2,2 °C 54 % 86 % 1014,0 hPa 0,0 l/m² 20,2 km/h (4 Bft) W 260 ° 0 min 49 W/m² 0,1 °C -6,9 °C 22,5 km/h (4 Bft)
03.01.2025 10:55 21,7 °C 2,2 °C 54 % 86 % 1014,0 hPa 0,0 l/m² 21,8 km/h (4 Bft) SW 234 ° 1 min 58 W/m² 0,1 °C -7,5 °C 27,4 km/h (5 Bft)
03.01.2025 10:56 21,7 °C 2,2 °C 54 % 86 % 1014,0 hPa 0,0 l/m² 21,8 km/h (4 Bft) W-SW 244 ° 1 min 58 W/m² 0,1 °C -7,5 °C 27,4 km/h (5 Bft)
03.01.2025 10:57 21,7 °C 2,2 °C 54 % 86 % 1014,1 hPa 0,0 l/m² 21,5 km/h (4 Bft) SW 234 ° 1 min 67 W/m² 0,1 °C -7,4 °C 25,7 km/h (4 Bft)
03.01.2025 10:58 21,7 °C 2,2 °C 54 % 86 % 1014,0 hPa 0,0 l/m² 20,4 km/h (4 Bft) SW 221 ° 1 min 72 W/m² 0,1 °C -7,0 °C 22,5 km/h (4 Bft)
03.01.2025 10:59 21,7 °C 2,1 °C 54 % 86 % 1014,1 hPa 0,0 l/m² 19,8 km/h (3 Bft) SW 227 ° 1 min 76 W/m² 0,0 °C -6,8 °C 27,4 km/h (5 Bft)
03.01.2025 11:02 21,7 °C 2,1 °C 54 % 87 % 1014,0 hPa 0,0 l/m² 20,2 km/h (4 Bft) SW 227 ° 3 min 62 W/m² 0,2 °C -7,0 °C 27,4 km/h (5 Bft)
03.01.2025 11:03 21,7 °C 2,0 °C 54 % 87 % 1014,2 hPa 0,0 l/m² 20,0 km/h (4 Bft) W-SW 237 ° 0 min 39 W/m² 0,1 °C -7,0 °C 27,4 km/h (5 Bft)
03.01.2025 11:04 21,7 °C 1,9 °C 54 % 87 % 1014,2 hPa 0,0 l/m² 22,5 km/h (4 Bft) SW 227 ° 0 min 33 W/m² -0,0 °C -8,2 °C 29,0 km/h (5 Bft)
03.01.2025 11:05 21,7 °C 1,9 °C 54 % 87 % 1014,0 hPa 0,0 l/m² 18,8 km/h (3 Bft) W-SW 242 ° 0 min 40 W/m² -0,0 °C -6,6 °C 24,1 km/h (4 Bft)
03.01.2025 11:06 21,7 °C 1,9 °C 54 % 87 % 1014,0 hPa 0,0 l/m² 19,2 km/h (3 Bft) SW 232 ° 1 min 62 W/m² -0,0 °C -6,8 °C 24,1 km/h (4 Bft)
03.01.2025 11:07 21,7 °C 1,8 °C 54 % 88 % 1014,0 hPa 0,0 l/m² 18,1 km/h (3 Bft) S-SW 209 ° 1 min 84 W/m² 0,0 °C -6,4 °C 22,5 km/h (4 Bft)
03.01.2025 11:08 21,7 °C 1,7 °C 54 % 87 % 1013,9 hPa 0,0 l/m² 18,0 km/h (3 Bft) SW 224 ° 1 min 98 W/m² -0,2 °C -6,5 °C 24,1 km/h (4 Bft)
03.01.2025 11:09 21,6 °C 1,6 °C 54 % 88 % 1013,9 hPa 0,0 l/m² 19,4 km/h (3 Bft) SW 215 ° 1 min 156 W/m² -0,2 °C -7,3 °C 24,1 km/h (4 Bft)
03.01.2025 11:12 21,7 °C 1,4 °C 54 % 89 % 1013,8 hPa 0,2 l/m² 17,8 km/h (3 Bft) SW 234 ° 3 min 93 W/m² -0,2 °C -6,8 °C 24,1 km/h (4 Bft)
03.01.2025 11:13 21,7 °C 1,4 °C 54 % 89 % 1013,8 hPa 0,0 l/m² 19,3 km/h (3 Bft) SW 225 ° 1 min 98 W/m² -0,2 °C -7,5 °C 25,7 km/h (4 Bft)
03.01.2025 11:15 21,7 °C 1,5 °C 54 % 90 % 1013,7 hPa 0,0 l/m² 19,2 km/h (3 Bft) W-SW 240 ° 2 min 221 W/m² 0,0 °C -7,3 °C 27,4 km/h (5 Bft)
03.01.2025 11:16 21,6 °C 1,6 °C 54 % 90 % 1013,6 hPa 0,0 l/m² 18,1 km/h (3 Bft) SW 225 ° 1 min 288 W/m² 0,1 °C -6,7 °C 29,0 km/h (5 Bft)
03.01.2025 11:17 21,7 °C 1,7 °C 54 % 91 % 1013,5 hPa 0,0 l/m² 21,3 km/h (4 Bft) SW 221 ° 1 min 288 W/m² 0,4 °C -8,0 °C 27,4 km/h (5 Bft)
03.01.2025 11:18 21,7 °C 1,7 °C 54 % 91 % 1013,5 hPa 0,0 l/m² 20,5 km/h (4 Bft) SW 223 ° 1 min 102 W/m² 0,4 °C -7,7 °C 27,4 km/h (5 Bft)
03.01.2025 11:19 21,7 °C 1,7 °C 54 % 90 % 1013,5 hPa 0,0 l/m² 20,3 km/h (4 Bft) W-SW 251 ° 1 min 93 W/m² 0,2 °C -7,6 °C 25,7 km/h (4 Bft)
03.01.2025 11:22 21,7 °C 1,7 °C 53 % 90 % 1013,4 hPa 0,0 l/m² 18,0 km/h (3 Bft) SW 227 ° 3 min 195 W/m² 0,2 °C -6,5 °C 25,7 km/h (4 Bft)
03.01.2025 11:23 21,7 °C 1,7 °C 53 % 91 % 1013,3 hPa 0,0 l/m² 14,4 km/h (3 Bft) SW 229 ° 1 min 185 W/m² 0,4 °C -4,6 °C 20,9 km/h (4 Bft)
03.01.2025 11:25 21,7 °C 1,8 °C 53 % 91 % 1013,4 hPa 0,0 l/m² 18,1 km/h (3 Bft) SW 227 ° 2 min 148 W/m² 0,5 °C -6,4 °C 24,1 km/h (4 Bft)
03.01.2025 11:26 21,7 °C 1,8 °C 53 % 91 % 1013,3 hPa 0,0 l/m² 19,4 km/h (3 Bft) SW 222 ° 1 min 155 W/m² 0,5 °C -7,0 °C 24,1 km/h (4 Bft)
03.01.2025 11:27 21,7 °C 1,8 °C 53 % 91 % 1013,3 hPa 0,0 l/m² 18,4 km/h (3 Bft) SW 223 ° 1 min 141 W/m² 0,5 °C -6,6 °C 22,5 km/h (4 Bft)
03.01.2025 11:28 21,7 °C 1,8 °C 53 % 91 % 1013,3 hPa 0,0 l/m² 16,6 km/h (3 Bft) S-SW 210 ° 1 min 149 W/m² 0,5 °C -5,7 °C 22,5 km/h (4 Bft)
03.01.2025 11:29 21,7 °C 1,8 °C 53 % 91 % 1013,3 hPa 0,0 l/m² 18,8 km/h (3 Bft) SW 219 ° 1 min 139 W/m² 0,5 °C -6,8 °C 24,1 km/h (4 Bft)
03.01.2025 11:31 21,7 °C 1,8 °C 53 % 90 % 1013,2 hPa 0,0 l/m² 21,1 km/h (4 Bft) S-SW 210 ° 2 min 151 W/m² 0,3 °C -7,8 °C 29,0 km/h (5 Bft)
03.01.2025 11:34 21,8 °C 1,8 °C 53 % 90 % 1013,1 hPa 0,0 l/m² 18,6 km/h (3 Bft) S-SW 205 ° 3 min 139 W/m² 0,3 °C -6,7 °C 25,7 km/h (4 Bft)
03.01.2025 11:35 21,8 °C 1,9 °C 53 % 90 % 1013,3 hPa 0,0 l/m² 17,5 km/h (3 Bft) W-SW 245 ° 1 min 137 W/m² 0,4 °C -6,0 °C 20,9 km/h (4 Bft)
03.01.2025 11:36 21,7 °C 1,9 °C 53 % 90 % 1013,2 hPa 0,0 l/m² 16,4 km/h (3 Bft) S-SW 205 ° 1 min 160 W/m² 0,4 °C -5,4 °C 20,9 km/h (4 Bft)
03.01.2025 11:37 21,8 °C 1,9 °C 53 % 90 % 1013,2 hPa 0,0 l/m² 16,6 km/h (3 Bft) SW 227 ° 1 min 153 W/m² 0,4 °C -5,6 °C 22,5 km/h (4 Bft)
03.01.2025 11:38 21,8 °C 2,0 °C 53 % 90 % 1013,2 hPa 0,0 l/m² 12,9 km/h (3 Bft) SW 234 ° 1 min 127 W/m² 0,5 °C -3,3 °C 19,3 km/h (3 Bft)
03.01.2025 11:39 21,8 °C 2,0 °C 53 % 89 % 1013,2 hPa 0,0 l/m² 20,4 km/h (4 Bft) SW 232 ° 1 min 232 W/m² 0,4 °C -7,2 °C 24,1 km/h (4 Bft)
03.01.2025 11:41 21,8 °C 2,2 °C 53 % 90 % 1013,2 hPa 0,0 l/m² 15,2 km/h (3 Bft) W-SW 255 ° 2 min 225 W/m² 0,7 °C -4,4 °C 20,9 km/h (4 Bft)
03.01.2025 11:44 21,8 °C 2,4 °C 53 % 88 % 1013,3 hPa 0,0 l/m² 18,5 km/h (3 Bft) S-SW 212 ° 3 min 104 W/m² 0,6 °C -5,9 °C 25,7 km/h (4 Bft)
03.01.2025 11:45 21,8 °C 2,4 °C 53 % 88 % 1013,3 hPa 0,0 l/m² 17,2 km/h (3 Bft) SW 228 ° 1 min 104 W/m² 0,6 °C -5,2 °C 22,5 km/h (4 Bft)
03.01.2025 11:46 21,8 °C 2,4 °C 53 % 88 % 1013,2 hPa 0,0 l/m² 16,4 km/h (3 Bft) S-SW 213 ° 1 min 114 W/m² 0,6 °C -4,8 °C 20,9 km/h (4 Bft)
03.01.2025 11:47 21,9 °C 2,4 °C 53 % 87 % 1013,3 hPa 0,0 l/m² 17,8 km/h (3 Bft) SW 222 ° 1 min 134 W/m² 0,5 °C -5,5 °C 20,9 km/h (4 Bft)
03.01.2025 11:48 21,8 °C 2,4 °C 53 % 87 % 1013,1 hPa 0,0 l/m² 21,4 km/h (4 Bft) W-SW 240 ° 1 min 125 W/m² 0,5 °C -7,1 °C 30,6 km/h (5 Bft)
03.01.2025 11:49 21,9 °C 2,5 °C 53 % 86 % 1013,2 hPa 0,0 l/m² 18,3 km/h (3 Bft) SW 219 ° 1 min 132 W/m² 0,4 °C -5,6 °C 24,1 km/h (4 Bft)
03.01.2025 11:51 21,9 °C 2,6 °C 52 % 86 % 1013,2 hPa 0,0 l/m² 19,0 km/h (3 Bft) SW 231 ° 2 min 227 W/m² 0,5 °C -5,8 °C 29,0 km/h (5 Bft)
03.01.2025 11:53 21,8 °C 2,8 °C 51 % 86 % 1013,2 hPa 0,0 l/m² 19,7 km/h (3 Bft) SW 231 ° 2 min 225 W/m² 0,7 °C -5,9 °C 27,4 km/h (5 Bft)
03.01.2025 11:54 21,8 °C 2,9 °C 52 % 85 % 1013,2 hPa 0,0 l/m² 17,9 km/h (3 Bft) W-SW 238 ° 1 min 211 W/m² 0,6 °C -4,9 °C 29,0 km/h (5 Bft)
03.01.2025 11:55 21,8 °C 3,0 °C 51 % 85 % 1013,2 hPa 0,0 l/m² 20,3 km/h (4 Bft) W 273 ° 1 min 130 W/m² 0,7 °C -5,9 °C 27,4 km/h (5 Bft)
03.01.2025 11:56 21,8 °C 3,0 °C 51 % 84 % 1013,1 hPa 0,0 l/m² 18,8 km/h (3 Bft) SW 229 ° 1 min 128 W/m² 0,6 °C -5,2 °C 24,1 km/h (4 Bft)
03.01.2025 11:57 21,8 °C 3,1 °C 51 % 84 % 1013,1 hPa 0,0 l/m² 17,6 km/h (3 Bft) W-SW 242 ° 1 min 128 W/m² 0,7 °C -4,6 °C 24,1 km/h (4 Bft)
03.01.2025 11:58 21,8 °C 3,1 °C 51 % 83 % 1013,1 hPa 0,0 l/m² 16,0 km/h (3 Bft) SW 228 ° 1 min 130 W/m² 0,5 °C -3,8 °C 22,5 km/h (4 Bft)
03.01.2025 11:59 21,8 °C 3,1 °C 51 % 83 % 1013,1 hPa 0,0 l/m² 21,3 km/h (4 Bft) SW 224 ° 1 min 127 W/m² 0,5 °C -6,2 °C 29,0 km/h (5 Bft)
03.01.2025 12:02 21,8 °C 3,0 °C 51 % 83 % 1013,1 hPa 0,0 l/m² 19,6 km/h (3 Bft) W 279 ° 3 min 91 W/m² 0,4 °C -5,6 °C 30,6 km/h (5 Bft)
03.01.2025 12:03 21,8 °C 3,0 °C 51 % 82 % 1012,9 hPa 0,0 l/m² 16,5 km/h (3 Bft) W-SW 242 ° 1 min 116 W/m² 0,2 °C -4,1 °C 25,7 km/h (4 Bft)
03.01.2025 12:04 21,8 °C 2,9 °C 51 % 82 % 1012,9 hPa 0,0 l/m² 18,9 km/h (3 Bft) W-SW 247 ° 1 min 123 W/m² 0,1 °C -5,4 °C 29,0 km/h (5 Bft)
03.01.2025 12:05 21,8 °C 2,9 °C 51 % 82 % 1013,0 hPa 0,0 l/m² 24,5 km/h (4 Bft) SW 225 ° 1 min 100 W/m² 0,1 °C -7,6 °C 33,8 km/h (5 Bft)
03.01.2025 12:06 21,8 °C 2,9 °C 51 % 82 % 1012,9 hPa 0,0 l/m² 20,1 km/h (4 Bft) W-SW 244 ° 1 min 88 W/m² 0,1 °C -5,9 °C 25,7 km/h (4 Bft)
03.01.2025 12:07 21,8 °C 2,9 °C 51 % 82 % 1012,8 hPa 0,0 l/m² 16,6 km/h (3 Bft) W-SW 243 ° 1 min 86 W/m² 0,1 °C -4,3 °C 24,1 km/h (4 Bft)
03.01.2025 12:08 21,8 °C 2,9 °C 51 % 82 % 1012,9 hPa 0,0 l/m² 18,8 km/h (3 Bft) W-SW 237 ° 1 min 113 W/m² 0,1 °C -5,4 °C 25,7 km/h (4 Bft)
03.01.2025 12:09 21,8 °C 2,9 °C 51 % 82 % 1012,8 hPa 0,0 l/m² 18,5 km/h (3 Bft) SW 234 ° 1 min 113 W/m² 0,1 °C -5,2 °C 30,6 km/h (5 Bft)
03.01.2025 12:10 21,8 °C 2,9 °C 51 % 82 % 1012,8 hPa 0,0 l/m² 20,5 km/h (4 Bft) W-SW 242 ° 1 min 155 W/m² 0,1 °C -6,1 °C 25,7 km/h (4 Bft)
03.01.2025 12:11 21,8 °C 2,9 °C 51 % 82 % 1012,8 hPa 0,0 l/m² 21,3 km/h (4 Bft) SW 218 ° 1 min 155 W/m² 0,1 °C -6,4 °C 32,2 km/h (5 Bft)
03.01.2025 12:12 21,8 °C 3,0 °C 51 % 82 % 1012,8 hPa 0,0 l/m² 20,8 km/h (4 Bft) SW 234 ° 1 min 169 W/m² 0,2 °C -6,1 °C 29,0 km/h (5 Bft)
03.01.2025 12:13 21,8 °C 3,1 °C 51 % 82 % 1012,8 hPa 0,0 l/m² 25,3 km/h (4 Bft) SW 227 ° 1 min 155 W/m² 0,3 °C -7,6 °C 30,6 km/h (5 Bft)
03.01.2025 12:14 21,8 °C 3,1 °C 51 % 81 % 1012,7 hPa 0,0 l/m² 22,9 km/h (4 Bft) W-SW 242 ° 1 min 171 W/m² 0,2 °C -6,8 °C 29,0 km/h (5 Bft)
03.01.2025 12:15 21,8 °C 3,2 °C 51 % 81 % 1012,7 hPa 0,0 l/m² 22,9 km/h (4 Bft) SW 221 ° 1 min 151 W/m² 0,3 °C -6,6 °C 30,6 km/h (5 Bft)
03.01.2025 12:16 21,8 °C 3,2 °C 51 % 81 % 1012,7 hPa 0,0 l/m² 24,2 km/h (4 Bft) W-SW 242 ° 1 min 163 W/m² 0,3 °C -7,1 °C 30,6 km/h (5 Bft)
03.01.2025 12:17 21,8 °C 3,3 °C 51 % 81 % 1012,6 hPa 0,0 l/m² 25,5 km/h (4 Bft) SW 223 ° 1 min 163 W/m² 0,4 °C -7,4 °C 33,8 km/h (5 Bft)
03.01.2025 12:18 21,8 °C 3,4 °C 51 % 81 % 1012,7 hPa 0,0 l/m² 24,3 km/h (4 Bft) SW 236 ° 1 min 295 W/m² 0,5 °C -6,9 °C 32,2 km/h (5 Bft)
03.01.2025 12:19 21,8 °C 3,4 °C 51 % 81 % 1012,7 hPa 0,0 l/m² 27,6 km/h (5 Bft) SW 215 ° 1 min 376 W/m² 0,5 °C -7,9 °C 33,8 km/h (5 Bft)
03.01.2025 12:21 21,8 °C 3,7 °C 48 % 81 % 1012,5 hPa 0,0 l/m² 27,1 km/h (5 Bft) SW 225 ° 2 min 309 W/m² 0,7 °C -7,4 °C 38,6 km/h (6 Bft)
03.01.2025 12:23 21,8 °C 3,8 °C 48 % 80 % 1012,4 hPa 0,0 l/m² 26,9 km/h (4 Bft) W-SW 240 ° 2 min 343 W/m² 0,7 °C -7,2 °C 35,4 km/h (5 Bft)
03.01.2025 12:24 21,8 °C 3,8 °C 49 % 80 % 1012,4 hPa 0,0 l/m² 22,4 km/h (4 Bft) SW 233 ° 1 min 313 W/m² 0,7 °C -5,7 °C 32,2 km/h (5 Bft)
03.01.2025 12:25 21,8 °C 3,8 °C 49 % 80 % 1012,4 hPa 0,0 l/m² 28,1 km/h (5 Bft) SW 232 ° 1 min 246 W/m² 0,7 °C -7,5 °C 37,0 km/h (5 Bft)
03.01.2025 12:26 21,8 °C 3,8 °C 49 % 79 % 1012,3 hPa 0,0 l/m² 18,8 km/h (3 Bft) W 265 ° 1 min 308 W/m² 0,5 °C -4,2 °C 25,7 km/h (4 Bft)
03.01.2025 12:27 21,8 °C 3,8 °C 49 % 80 % 1012,5 hPa 0,0 l/m² 26,2 km/h (4 Bft) SW 219 ° 1 min 322 W/m² 0,7 °C -7,0 °C 41,8 km/h (6 Bft)
03.01.2025 12:28 21,8 °C 3,8 °C 49 % 80 % 1012,5 hPa 0,0 l/m² 29,3 km/h (5 Bft) W-SW 238 ° 1 min 297 W/m² 0,7 °C -7,9 °C 35,4 km/h (5 Bft)
03.01.2025 12:29 21,8 °C 3,8 °C 49 % 79 % 1012,4 hPa 0,0 l/m² 25,0 km/h (4 Bft) W-SW 239 ° 1 min 290 W/m² 0,5 °C -6,6 °C 35,4 km/h (5 Bft)
03.01.2025 12:31 21,8 °C 3,8 °C 49 % 78 % 1012,4 hPa 0,0 l/m² 29,2 km/h (5 Bft) SW 226 ° 2 min 281 W/m² 0,3 °C -7,8 °C 37,0 km/h (5 Bft)
03.01.2025 12:33 21,8 °C 3,8 °C 49 % 79 % 1012,4 hPa 0,0 l/m² 24,4 km/h (4 Bft) W-SW 241 ° 2 min 267 W/m² 0,5 °C -6,4 °C 35,4 km/h (5 Bft)
03.01.2025 12:34 21,8 °C 3,8 °C 49 % 79 % 1012,5 hPa 0,0 l/m² 22,4 km/h (4 Bft) SW 223 ° 1 min 281 W/m² 0,5 °C -5,7 °C 29,0 km/h (5 Bft)
03.01.2025 12:35 21,9 °C 3,8 °C 50 % 79 % 1012,5 hPa 0,0 l/m² 22,0 km/h (4 Bft) SW 223 ° 1 min 281 W/m² 0,5 °C -5,5 °C 29,0 km/h (5 Bft)
03.01.2025 12:36 21,9 °C 3,8 °C 50 % 79 % 1012,6 hPa 0,0 l/m² 23,7 km/h (4 Bft) SW 221 ° 1 min 294 W/m² 0,5 °C -6,1 °C 37,0 km/h (5 Bft)
03.01.2025 12:37 21,9 °C 3,8 °C 50 % 79 % 1012,5 hPa 0,0 l/m² 27,6 km/h (5 Bft) W-SW 237 ° 1 min 313 W/m² 0,5 °C -7,4 °C 32,2 km/h (5 Bft)
03.01.2025 12:38 21,9 °C 3,8 °C 50 % 79 % 1012,5 hPa 0,0 l/m² 25,2 km/h (4 Bft) SW 223 ° 1 min 325 W/m² 0,5 °C -6,6 °C 30,6 km/h (5 Bft)
03.01.2025 12:40 21,9 °C 3,9 °C 50 % 79 % 1012,5 hPa 0,0 l/m² 21,6 km/h (4 Bft) SW 232 ° 2 min 325 W/m² 0,6 °C -5,2 °C 33,8 km/h (5 Bft)
03.01.2025 12:41 21,9 °C 3,9 °C 50 % 79 % 1012,5 hPa 0,0 l/m² 23,5 km/h (4 Bft) SW 221 ° 1 min 325 W/m² 0,6 °C -5,9 °C 27,4 km/h (5 Bft)
03.01.2025 12:42 21,9 °C 3,9 °C 50 % 78 % 1012,5 hPa 0,0 l/m² 28,1 km/h (5 Bft) SW 234 ° 1 min 325 W/m² 0,4 °C -7,4 °C 38,6 km/h (6 Bft)
03.01.2025 12:43 21,9 °C 3,9 °C 50 % 78 % 1012,5 hPa 0,0 l/m² 23,0 km/h (4 Bft) SW 234 ° 1 min 195 W/m² 0,4 °C -5,7 °C 30,6 km/h (5 Bft)
03.01.2025 12:44 21,9 °C 3,9 °C 50 % 78 % 1012,5 hPa 0,0 l/m² 29,2 km/h (5 Bft) W-SW 246 ° 1 min 195 W/m² 0,4 °C -7,7 °C 35,4 km/h (5 Bft)
03.01.2025 12:45 21,9 °C 3,9 °C 50 % 78 % 1012,4 hPa 0,0 l/m² 30,0 km/h (5 Bft) SW 222 ° 1 min 188 W/m² 0,4 °C -7,9 °C 40,2 km/h (6 Bft)
03.01.2025 12:46 22,0 °C 3,8 °C 50 % 78 % 1012,5 hPa 0,0 l/m² 28,4 km/h (5 Bft) SW 231 ° 1 min 178 W/m² 0,3 °C -7,6 °C 40,2 km/h (6 Bft)
03.01.2025 12:47 21,9 °C 3,8 °C 50 % 78 % 1012,5 hPa 0,0 l/m² 27,6 km/h (5 Bft) SW 227 ° 1 min 163 W/m² 0,3 °C -7,4 °C 38,6 km/h (6 Bft)
03.01.2025 12:48 21,9 °C 3,8 °C 50 % 78 % 1012,5 hPa 0,0 l/m² 23,4 km/h (4 Bft) W-SW 244 ° 1 min 149 W/m² 0,3 °C -6,0 °C 37,0 km/h (5 Bft)
03.01.2025 12:49 21,9 °C 3,8 °C 50 % 78 % 1012,5 hPa 0,0 l/m² 28,4 km/h (5 Bft) W-SW 248 ° 1 min 123 W/m² 0,3 °C -7,6 °C 38,6 km/h (6 Bft)
03.01.2025 12:50 21,9 °C 3,7 °C 50 % 78 % 1012,5 hPa 0,0 l/m² 27,0 km/h (5 Bft) SW 227 ° 1 min 100 W/m² 0,2 °C -7,3 °C 37,0 km/h (5 Bft)
03.01.2025 12:51 21,9 °C 3,6 °C 50 % 78 % 1012,4 hPa 0,0 l/m² 29,4 km/h (5 Bft) SW 232 ° 1 min 74 W/m² 0,1 °C -8,2 °C 38,6 km/h (6 Bft)
03.01.2025 12:52 21,9 °C 3,6 °C 50 % 78 % 1012,4 hPa 0,0 l/m² 25,3 km/h (4 Bft) SW 234 ° 0 min 51 W/m² 0,1 °C -6,9 °C 32,2 km/h (5 Bft)
03.01.2025 12:53 21,9 °C 3,6 °C 50 % 78 % 1012,4 hPa 0,0 l/m² 24,5 km/h (4 Bft) SW 230 ° 0 min 42 W/m² 0,1 °C -6,7 °C 32,2 km/h (5 Bft)
03.01.2025 12:54 21,9 °C 3,5 °C 50 % 78 % 1012,3 hPa 0,0 l/m² 27,4 km/h (5 Bft) SW 225 ° 0 min 33 W/m² 0,0 °C -7,7 °C 38,6 km/h (6 Bft)
03.01.2025 12:55 21,9 °C 3,4 °C 50 % 78 % 1012,3 hPa 0,0 l/m² 26,9 km/h (4 Bft) W-SW 238 ° 0 min 30 W/m² -0,1 °C -7,7 °C 35,4 km/h (5 Bft)
03.01.2025 12:56 21,9 °C 3,4 °C 50 % 78 % 1012,3 hPa 0,0 l/m² 25,7 km/h (4 Bft) SW 236 ° 0 min 35 W/m² -0,1 °C -7,3 °C 37,0 km/h (5 Bft)
03.01.2025 12:57 21,9 °C 3,3 °C 50 % 78 % 1012,4 hPa 0,0 l/m² 31,9 km/h (5 Bft) SW 217 ° 0 min 51 W/m² -0,2 °C -9,3 °C 43,5 km/h (6 Bft)
03.01.2025 12:58 21,9 °C 3,2 °C 50 % 78 % 1012,3 hPa 0,0 l/m² 34,8 km/h (5 Bft) SW 232 ° 1 min 90 W/m² -0,3 °C -10,1 °C 45,1 km/h (6 Bft)
03.01.2025 12:59 21,9 °C 3,2 °C 50 % 78 % 1012,2 hPa 0,0 l/m² 31,4 km/h (5 Bft) W-SW 243 ° 1 min 104 W/m² -0,3 °C -9,3 °C 43,5 km/h (6 Bft)
03.01.2025 13:00 21,9 °C 3,1 °C 50 % 79 % 1012,3 hPa 0,0 l/m² 30,9 km/h (5 Bft) W-SW 246 ° 1 min 120 W/m² -0,2 °C -9,3 °C 40,2 km/h (6 Bft)
03.01.2025 13:01 21,9 °C 3,1 °C 50 % 79 % 1012,3 hPa 0,0 l/m² 32,6 km/h (5 Bft) W-SW 239 ° 1 min 243 W/m² -0,2 °C -9,7 °C 43,5 km/h (6 Bft)
03.01.2025 13:02 21,8 °C 3,2 °C 50 % 80 % 1012,2 hPa 0,0 l/m² 36,5 km/h (5 Bft) SW 233 ° 1 min 318 W/m² 0,1 °C -10,5 °C 45,1 km/h (6 Bft)
03.01.2025 13:03 21,8 °C 3,2 °C 50 % 80 % 1012,1 hPa 0,0 l/m² 31,1 km/h (5 Bft) SW 225 ° 1 min 325 W/m² 0,1 °C -9,2 °C 35,4 km/h (5 Bft)
03.01.2025 13:04 21,8 °C 3,4 °C 50 % 80 % 1012,2 hPa 0,0 l/m² 25,3 km/h (4 Bft) W-SW 247 ° 1 min 288 W/m² 0,3 °C -7,2 °C 30,6 km/h (5 Bft)
03.01.2025 13:05 21,9 °C 3,5 °C 50 % 80 % 1012,1 hPa 0,0 l/m² 24,9 km/h (4 Bft) W-SW 239 ° 1 min 309 W/m² 0,4 °C -6,9 °C 33,8 km/h (5 Bft)
03.01.2025 13:06 21,8 °C 3,6 °C 50 % 80 % 1012,2 hPa 0,0 l/m² 24,2 km/h (4 Bft) SW 217 ° 1 min 309 W/m² 0,5 °C -6,6 °C 29,0 km/h (5 Bft)
03.01.2025 13:07 21,9 °C 3,6 °C 50 % 79 % 1012,1 hPa 0,0 l/m² 22,7 km/h (4 Bft) SW 236 ° 1 min 74 W/m² 0,3 °C -6,0 °C 32,2 km/h (5 Bft)
03.01.2025 13:08 21,8 °C 3,6 °C 50 % 79 % 1012,1 hPa 0,0 l/m² 25,0 km/h (4 Bft) SW 223 ° 1 min 156 W/m² 0,3 °C -6,8 °C 30,6 km/h (5 Bft)
03.01.2025 13:09 21,9 °C 3,6 °C 50 % 78 % 1012,2 hPa 0,0 l/m² 30,2 km/h (5 Bft) W 271 ° 1 min 156 W/m² 0,1 °C -8,4 °C 43,5 km/h (6 Bft)
03.01.2025 13:10 21,8 °C 3,6 °C 50 % 78 % 1012,2 hPa 0,0 l/m² 28,7 km/h (5 Bft) W-SW 239 ° 1 min 181 W/m² 0,1 °C -8,0 °C 37,0 km/h (5 Bft)
03.01.2025 13:11 21,8 °C 3,6 °C 50 % 78 % 1012,2 hPa 0,0 l/m² 26,8 km/h (4 Bft) SW 223 ° 1 min 225 W/m² 0,1 °C -7,4 °C 38,6 km/h (6 Bft)
03.01.2025 13:12 21,8 °C 3,7 °C 50 % 78 % 1012,1 hPa 0,0 l/m² 33,5 km/h (5 Bft) SW 223 ° 1 min 227 W/m² 0,2 °C -9,1 °C 48,3 km/h (6 Bft)
03.01.2025 13:13 21,8 °C 3,7 °C 50 % 77 % 1012,2 hPa 0,0 l/m² 29,9 km/h (5 Bft) W-SW 245 ° 1 min 74 W/m² 0,1 °C -8,2 °C 41,8 km/h (6 Bft)
03.01.2025 13:14 21,8 °C 3,7 °C 50 % 77 % 1012,2 hPa 0,0 l/m² 36,3 km/h (5 Bft) W 265 ° 1 min 79 W/m² 0,1 °C -9,7 °C 46,7 km/h (6 Bft)
03.01.2025 13:15 21,8 °C 3,6 °C 50 % 77 % 1012,2 hPa 0,0 l/m² 30,4 km/h (5 Bft) W-SW 245 ° 1 min 100 W/m² -0,0 °C -8,5 °C 35,4 km/h (5 Bft)
03.01.2025 13:16 21,8 °C 3,6 °C 50 % 77 % 1012,2 hPa 0,0 l/m² 31,3 km/h (5 Bft) SW 233 ° 1 min 109 W/m² -0,0 °C -8,7 °C 37,0 km/h (5 Bft)
03.01.2025 13:17 21,8 °C 3,5 °C 50 % 77 % 1012,2 hPa 0,0 l/m² 26,9 km/h (4 Bft) W 267 ° 1 min 111 W/m² -0,1 °C -7,6 °C 32,2 km/h (5 Bft)
03.01.2025 13:18 21,8 °C 3,5 °C 50 % 77 % 1012,2 hPa 0,0 l/m² 25,1 km/h (4 Bft) W-SW 253 ° 1 min 114 W/m² -0,1 °C -7,0 °C 32,2 km/h (5 Bft)
03.01.2025 13:19 21,8 °C 3,4 °C 50 % 77 % 1012,1 hPa 0,0 l/m² 22,9 km/h (4 Bft) W-SW 248 ° 1 min 114 W/m² -0,2 °C -6,4 °C 30,6 km/h (5 Bft)
03.01.2025 13:20 21,8 °C 3,4 °C 50 % 78 % 1012,2 hPa 0,0 l/m² 28,1 km/h (5 Bft) SW 236 ° 1 min 258 W/m² -0,1 °C -8,1 °C 33,8 km/h (5 Bft)
03.01.2025 13:21 21,8 °C 3,5 °C 50 % 78 % 1012,2 hPa 0,0 l/m² 28,3 km/h (5 Bft) W-SW 242 ° 1 min 199 W/m² 0,0 °C -8,0 °C 38,6 km/h (6 Bft)
03.01.2025 13:22 21,8 °C 3,6 °C 50 % 77 % 1012,2 hPa 0,0 l/m² 25,5 km/h (4 Bft) SW 232 ° 1 min 199 W/m² -0,0 °C -7,0 °C 33,8 km/h (5 Bft)
03.01.2025 13:23 21,7 °C 3,6 °C 50 % 78 % 1012,2 hPa 0,0 l/m² 25,4 km/h (4 Bft) W-SW 240 ° 1 min 121 W/m² 0,1 °C -7,0 °C 32,2 km/h (5 Bft)
03.01.2025 13:24 21,8 °C 3,6 °C 50 % 78 % 1012,1 hPa 0,0 l/m² 26,9 km/h (4 Bft) SW 229 ° 1 min 142 W/m² 0,1 °C -7,4 °C 37,0 km/h (5 Bft)
03.01.2025 13:25 21,7 °C 3,6 °C 50 % 78 % 1012,2 hPa 0,0 l/m² 28,2 km/h (5 Bft) W-SW 238 ° 1 min 139 W/m² 0,1 °C -7,8 °C 38,6 km/h (6 Bft)
03.01.2025 13:26 21,8 °C 3,6 °C 50 % 78 % 1012,2 hPa 0,0 l/m² 27,2 km/h (5 Bft) W-SW 246 ° 1 min 121 W/m² 0,1 °C -7,5 °C 33,8 km/h (5 Bft)
03.01.2025 13:27 21,8 °C 3,6 °C 50 % 78 % 1012,2 hPa 0,0 l/m² 31,4 km/h (5 Bft) W-SW 248 ° 1 min 104 W/m² 0,1 °C -8,7 °C 38,6 km/h (6 Bft)
03.01.2025 13:28 21,8 °C 3,6 °C 50 % 77 % 1012,2 hPa 0,0 l/m² 29,4 km/h (5 Bft) SW 236 ° 1 min 97 W/m² -0,0 °C -8,2 °C 41,8 km/h (6 Bft)
03.01.2025 13:29 21,8 °C 3,5 °C 50 % 77 % 1012,2 hPa 0,0 l/m² 32,3 km/h (5 Bft) W-SW 250 ° 1 min 93 W/m² -0,1 °C -9,1 °C 37,0 km/h (5 Bft)
03.01.2025 13:30 21,7 °C 3,5 °C 50 % 77 % 1012,2 hPa 0,0 l/m² 28,8 km/h (5 Bft) W-SW 242 ° 1 min 93 W/m² -0,1 °C -8,1 °C 35,4 km/h (5 Bft)
03.01.2025 13:31 21,7 °C 3,5 °C 50 % 77 % 1012,2 hPa 0,0 l/m² 25,7 km/h (4 Bft) W-SW 247 ° 1 min 79 W/m² -0,1 °C -7,2 °C 33,8 km/h (5 Bft)
03.01.2025 13:32 21,7 °C 3,5 °C 50 % 78 % 1012,2 hPa 0,0 l/m² 29,0 km/h (5 Bft) W-SW 247 ° 1 min 88 W/m² 0,0 °C -8,2 °C 37,0 km/h (5 Bft)
03.01.2025 13:33 21,7 °C 3,5 °C 50 % 78 % 1012,2 hPa 0,0 l/m² 29,0 km/h (5 Bft) W-SW 247 ° 1 min 100 W/m² 0,0 °C -8,2 °C 37,0 km/h (5 Bft)
03.01.2025 13:34 21,7 °C 3,5 °C 50 % 78 % 1012,2 hPa 0,0 l/m² 27,4 km/h (5 Bft) W-SW 247 ° 1 min 105 W/m² 0,0 °C -7,7 °C 37,0 km/h (5 Bft)
03.01.2025 13:35 21,7 °C 3,4 °C 50 % 78 % 1012,2 hPa 0,0 l/m² 30,6 km/h (5 Bft) W-SW 247 ° 1 min 100 W/m² -0,1 °C -8,8 °C 40,2 km/h (6 Bft)
03.01.2025 13:36 21,7 °C 3,4 °C 50 % 78 % 1012,2 hPa 0,0 l/m² 32,2 km/h (5 Bft) W-SW 247 ° 1 min 107 W/m² -0,1 °C -9,2 °C 48,3 km/h (6 Bft)
03.01.2025 13:37 21,7 °C 3,4 °C 50 % 78 % 1012,1 hPa 0,0 l/m² 29,0 km/h (5 Bft) W-SW 247 ° 1 min 121 W/m² -0,1 °C -8,3 °C 35,4 km/h (5 Bft)
03.01.2025 13:38 21,7 °C 3,4 °C 50 % 78 % 1012,2 hPa 0,0 l/m² 35,4 km/h (5 Bft) W-SW 247 ° 1 min 134 W/m² -0,1 °C -10,0 °C 43,5 km/h (6 Bft)
03.01.2025 13:43 21,7 °C 3,5 °C 51 % 79 % 1012,1 hPa 0,0 l/m² 25,7 km/h (4 Bft) W-SW 250 ° 5 min 176 W/m² 0,2 °C -7,2 °C 32,2 km/h (5 Bft)
03.01.2025 13:45 21,7 °C 3,6 °C 51 % 80 % 1012,0 hPa 0,0 l/m² 24,4 km/h (4 Bft) W 259 ° 2 min 240 W/m² 0,5 °C -6,6 °C 35,4 km/h (5 Bft)
03.01.2025 13:46 21,7 °C 3,7 °C 51 % 79 % 1012,0 hPa 0,0 l/m² 30,7 km/h (5 Bft) W-SW 242 ° 1 min 239 W/m² 0,4 °C -8,4 °C 41,8 km/h (6 Bft)
03.01.2025 13:48 21,7 °C 3,7 °C 51 % 78 % 1012,0 hPa 0,0 l/m² 31,6 km/h (5 Bft) W-SW 257 ° 2 min 188 W/m² 0,2 °C -8,6 °C 45,1 km/h (6 Bft)
03.01.2025 13:50 21,7 °C 3,7 °C 51 % 78 % 1012,0 hPa 0,0 l/m² 28,1 km/h (5 Bft) W-SW 244 ° 2 min 223 W/m² 0,2 °C -7,7 °C 35,4 km/h (5 Bft)
03.01.2025 13:51 21,7 °C 3,8 °C 51 % 78 % 1012,0 hPa 0,0 l/m² 30,6 km/h (5 Bft) W 265 ° 1 min 149 W/m² 0,3 °C -8,2 °C 37,0 km/h (5 Bft)
03.01.2025 13:52 21,7 °C 3,7 °C 51 % 77 % 1012,0 hPa 0,0 l/m² 26,7 km/h (4 Bft) W-SW 244 ° 1 min 207 W/m² 0,1 °C -7,2 °C 30,6 km/h (5 Bft)
03.01.2025 13:54 21,7 °C 3,6 °C 51 % 77 % 1012,0 hPa 0,0 l/m² 26,1 km/h (4 Bft) SW 236 ° 2 min 60 W/m² -0,0 °C -7,2 °C 30,6 km/h (5 Bft)
03.01.2025 13:56 21,7 °C 3,4 °C 51 % 77 % 1012,0 hPa 0,0 l/m² 26,5 km/h (4 Bft) W-SW 243 ° 2 min 62 W/m² -0,2 °C -7,6 °C 35,4 km/h (5 Bft)
03.01.2025 13:58 21,7 °C 3,3 °C 51 % 77 % 1012,0 hPa 0,0 l/m² 30,1 km/h (5 Bft) W-SW 242 ° 2 min 100 W/m² -0,3 °C -8,8 °C 37,0 km/h (5 Bft)
03.01.2025 14:00 21,7 °C 3,3 °C 51 % 77 % 1011,9 hPa 0,0 l/m² 30,3 km/h (5 Bft) W-SW 246 ° 2 min 90 W/m² -0,3 °C -8,8 °C 37,0 km/h (5 Bft)
03.01.2025 14:01 21,7 °C 3,3 °C 51 % 77 % 1012,0 hPa 0,0 l/m² 25,6 km/h (4 Bft) W-SW 252 ° 1 min 95 W/m² -0,3 °C -7,4 °C 35,4 km/h (5 Bft)
03.01.2025 14:02 21,7 °C 3,3 °C 51 % 77 % 1012,0 hPa 0,0 l/m² 27,0 km/h (5 Bft) W 263 ° 1 min 90 W/m² -0,3 °C -7,9 °C 37,0 km/h (5 Bft)
03.01.2025 14:03 21,7 °C 3,3 °C 51 % 77 % 1012,0 hPa 0,0 l/m² 26,2 km/h (4 Bft) W-SW 254 ° 1 min 79 W/m² -0,3 °C -7,6 °C 30,6 km/h (5 Bft)
03.01.2025 14:04 21,7 °C 3,3 °C 51 % 77 % 1012,0 hPa 0,0 l/m² 24,7 km/h (4 Bft) W-SW 238 ° 1 min 77 W/m² -0,3 °C -7,1 °C 32,2 km/h (5 Bft)
03.01.2025 14:06 21,7 °C 3,2 °C 51 % 77 % 1011,9 hPa 0,0 l/m² 28,8 km/h (5 Bft) SW 235 ° 0 min 47 W/m² -0,4 °C -8,6 °C 38,6 km/h (6 Bft)
03.01.2025 14:08 21,7 °C 3,2 °C 51 % 77 % 1011,9 hPa 0,0 l/m² 22,8 km/h (4 Bft) SW 234 ° 0 min 37 W/m² -0,4 °C -6,6 °C 40,2 km/h (6 Bft)
03.01.2025 14:10 21,7 °C 3,2 °C 51 % 77 % 1011,9 hPa 0,0 l/m² 22,3 km/h (4 Bft) W 259 ° 0 min 35 W/m² -0,4 °C -6,4 °C 38,6 km/h (6 Bft)
03.01.2025 14:11 21,7 °C 3,2 °C 51 % 77 % 1011,7 hPa 0,0 l/m² 33,2 km/h (5 Bft) W-SW 248 ° 0 min 37 W/m² -0,4 °C -9,7 °C 43,5 km/h (6 Bft)
03.01.2025 14:12 21,7 °C 3,2 °C 51 % 77 % 1011,7 hPa 0,0 l/m² 33,9 km/h (5 Bft) W 269 ° 0 min 42 W/m² -0,4 °C -9,9 °C 41,8 km/h (6 Bft)
03.01.2025 14:14 21,7 °C 3,2 °C 51 % 76 % 1012,0 hPa 0,0 l/m² 29,3 km/h (5 Bft) W-SW 248 ° 2 min 123 W/m² -0,6 °C -8,7 °C 40,2 km/h (6 Bft)
03.01.2025 14:16 21,7 °C 3,3 °C 51 % 77 % 1012,0 hPa 0,0 l/m² 32,2 km/h (5 Bft) W-SW 244 ° 2 min 236 W/m² -0,3 °C -9,3 °C 40,2 km/h (6 Bft)
03.01.2025 14:18 21,7 °C 3,4 °C 51 % 77 % 1012,0 hPa 0,0 l/m² 30,7 km/h (5 Bft) W-SW 252 ° 2 min 67 W/m² -0,2 °C -8,8 °C 40,2 km/h (6 Bft)
03.01.2025 14:20 21,7 °C 3,4 °C 51 % 77 % 1011,9 hPa 0,0 l/m² 28,5 km/h (5 Bft) SW 216 ° 0 min 51 W/m² -0,2 °C -8,2 °C 37,0 km/h (5 Bft)
03.01.2025 14:21 21,7 °C 3,3 °C 51 % 77 % 1011,9 hPa 0,0 l/m² 28,3 km/h (5 Bft) SW 234 ° 1 min 53 W/m² -0,3 °C -8,3 °C 37,0 km/h (5 Bft)
03.01.2025 14:22 21,7 °C 3,3 °C 51 % 77 % 1011,9 hPa 0,0 l/m² 32,8 km/h (5 Bft) SW 232 ° 1 min 53 W/m² -0,3 °C -9,5 °C 40,2 km/h (6 Bft)
03.01.2025 14:24 21,7 °C 3,2 °C 51 % 77 % 1011,9 hPa 0,0 l/m² 30,4 km/h (5 Bft) SW 236 ° 2 min 58 W/m² -0,4 °C -9,0 °C 41,8 km/h (6 Bft)
03.01.2025 14:26 21,7 °C 3,0 °C 51 % 77 % 1011,8 hPa 0,0 l/m² 28,7 km/h (5 Bft) W-SW 243 ° 2 min 62 W/m² -0,6 °C -8,8 °C 37,0 km/h (5 Bft)
03.01.2025 14:28 21,7 °C 2,9 °C 51 % 78 % 1011,8 hPa 0,0 l/m² 27,0 km/h (5 Bft) W-SW 240 ° 2 min 93 W/m² -0,5 °C -8,4 °C 38,6 km/h (6 Bft)
03.01.2025 14:30 21,7 °C 2,8 °C 51 % 77 % 1011,8 hPa 0,0 l/m² 33,4 km/h (5 Bft) W-SW 257 ° 2 min 69 W/m² -0,8 °C -10,4 °C 46,7 km/h (6 Bft)
03.01.2025 14:31 21,7 °C 2,8 °C 51 % 78 % 1011,6 hPa 0,0 l/m² 26,6 km/h (4 Bft) W 260 ° 1 min 81 W/m² -0,6 °C -8,5 °C 37,0 km/h (5 Bft)
03.01.2025 14:32 21,7 °C 2,8 °C 51 % 78 % 1011,6 hPa 0,0 l/m² 28,0 km/h (5 Bft) W 259 ° 1 min 69 W/m² -0,6 °C -8,9 °C 37,0 km/h (5 Bft)
03.01.2025 14:34 21,7 °C 2,8 °C 51 % 78 % 1011,6 hPa 0,0 l/m² 28,9 km/h (5 Bft) W-SW 246 ° 2 min 56 W/m² -0,6 °C -9,2 °C 41,8 km/h (6 Bft)
03.01.2025 14:36 21,7 °C 2,8 °C 51 % 78 % 1011,4 hPa 0,0 l/m² 29,3 km/h (5 Bft) W-SW 238 ° 2 min 86 W/m² -0,6 °C -9,3 °C 38,6 km/h (6 Bft)
03.01.2025 14:38 21,7 °C 2,7 °C 51 % 78 % 1011,5 hPa 0,0 l/m² 24,2 km/h (4 Bft) SW 215 ° 2 min 69 W/m² -0,7 °C -7,8 °C 33,8 km/h (5 Bft)
03.01.2025 14:40 21,7 °C 2,7 °C 51 % 78 % 1011,4 hPa 0,0 l/m² 24,9 km/h (4 Bft) SW 227 ° 2 min 88 W/m² -0,7 °C -8,0 °C 32,2 km/h (5 Bft)
03.01.2025 14:41 21,7 °C 2,7 °C 51 % 78 % 1011,2 hPa 0,0 l/m² 24,6 km/h (4 Bft) SW 229 ° 1 min 102 W/m² -0,7 °C -7,9 °C 32,2 km/h (5 Bft)
03.01.2025 14:42 21,7 °C 2,7 °C 51 % 78 % 1011,2 hPa 0,0 l/m² 23,4 km/h (4 Bft) SW 223 ° 1 min 93 W/m² -0,7 °C -7,5 °C 27,4 km/h (5 Bft)
03.01.2025 14:44 21,7 °C 2,8 °C 51 % 78 % 1011,1 hPa 0,0 l/m² 27,0 km/h (5 Bft) W-SW 242 ° 2 min 74 W/m² -0,6 °C -8,6 °C 38,6 km/h (6 Bft)
03.01.2025 14:46 21,7 °C 2,8 °C 51 % 78 % 1011,1 hPa 0,0 l/m² 25,1 km/h (4 Bft) W-SW 240 ° 2 min 83 W/m² -0,6 °C -8,0 °C 46,7 km/h (6 Bft)
03.01.2025 14:48 21,7 °C 2,8 °C 51 % 78 % 1011,2 hPa 0,0 l/m² 29,4 km/h (5 Bft) W-SW 238 ° 2 min 83 W/m² -0,6 °C -9,3 °C 46,7 km/h (6 Bft)
03.01.2025 14:50 21,7 °C 2,9 °C 51 % 77 % 1011,2 hPa 0,0 l/m² 31,0 km/h (5 Bft) SW 223 ° 2 min 90 W/m² -0,7 °C -9,6 °C 38,6 km/h (6 Bft)
03.01.2025 14:51 21,7 °C 2,9 °C 51 % 76 % 1011,2 hPa 0,0 l/m² 30,0 km/h (5 Bft) SW 228 ° 1 min 127 W/m² -0,9 °C -9,3 °C 43,5 km/h (6 Bft)
03.01.2025 14:52 21,7 °C 2,9 °C 51 % 76 % 1011,2 hPa 0,0 l/m² 29,8 km/h (5 Bft) W-SW 254 ° 1 min 137 W/m² -0,9 °C -9,3 °C 37,0 km/h (5 Bft)
03.01.2025 14:54 21,7 °C 3,0 °C 51 % 76 % 1011,3 hPa 0,0 l/m² 29,2 km/h (5 Bft) W-SW 248 ° 2 min 118 W/m² -0,8 °C -9,0 °C 41,8 km/h (6 Bft)
03.01.2025 14:56 21,7 °C 3,1 °C 51 % 75 % 1011,2 hPa 0,0 l/m² 35,7 km/h (5 Bft) W-SW 250 ° 2 min 116 W/m² -0,9 °C -10,5 °C 49,9 km/h (7 Bft)
03.01.2025 14:58 21,7 °C 3,1 °C 51 % 75 % 1011,2 hPa 0,0 l/m² 33,2 km/h (5 Bft) W-SW 248 ° 2 min 102 W/m² -0,9 °C -9,9 °C 43,5 km/h (6 Bft)
03.01.2025 15:00 21,7 °C 3,1 °C 51 % 75 % 1011,2 hPa 0,0 l/m² 29,7 km/h (5 Bft) W-SW 247 ° 2 min 148 W/m² -0,9 °C -9,0 °C 41,8 km/h (6 Bft)
03.01.2025 15:01 21,7 °C 3,2 °C 51 % 75 % 1011,2 hPa 0,0 l/m² 36,2 km/h (5 Bft) W 264 ° 1 min 116 W/m² -0,8 °C -10,4 °C 53,1 km/h (7 Bft)
03.01.2025 15:02 21,7 °C 3,2 °C 51 % 74 % 1011,2 hPa 0,0 l/m² 28,6 km/h (5 Bft) SW 221 ° 1 min 84 W/m² -1,0 °C -8,5 °C 33,8 km/h (5 Bft)
03.01.2025 15:03 21,7 °C 3,2 °C 51 % 75 % 1011,2 hPa 0,0 l/m² 28,3 km/h (5 Bft) W 264 ° 1 min 81 W/m² -0,8 °C -8,4 °C 37,0 km/h (5 Bft)
03.01.2025 15:04 21,7 °C 3,2 °C 51 % 75 % 1011,3 hPa 0,0 l/m² 34,4 km/h (5 Bft) SW 227 ° 1 min 81 W/m² -0,8 °C -10,0 °C 45,1 km/h (6 Bft)
03.01.2025 15:05 21,7 °C 3,2 °C 51 % 74 % 1011,2 hPa 0,0 l/m² 39,3 km/h (6 Bft) W-SW 246 ° 1 min 76 W/m² -1,0 °C -11,1 °C 46,7 km/h (6 Bft)
03.01.2025 15:07 21,7 °C 3,2 °C 51 % 74 % 1011,2 hPa 0,0 l/m² 34,6 km/h (5 Bft) SW 233 ° 2 min 135 W/m² -1,0 °C -10,1 °C 49,9 km/h (7 Bft)
03.01.2025 15:09 21,7 °C 3,2 °C 51 % 74 % 1011,3 hPa 0,0 l/m² 31,5 km/h (5 Bft) SW 236 ° 2 min 146 W/m² -1,0 °C -9,3 °C 43,5 km/h (6 Bft)
03.01.2025 15:10 21,7 °C 3,3 °C 51 % 74 % 1011,3 hPa 0,0 l/m² 38,6 km/h (6 Bft) W-SW 245 ° 1 min 149 W/m² -0,9 °C -10,8 °C 46,7 km/h (6 Bft)
03.01.2025 15:11 21,7 °C 3,3 °C 51 % 74 % 1011,4 hPa 0,0 l/m² 38,8 km/h (6 Bft) W-SW 246 ° 1 min 146 W/m² -0,9 °C -10,8 °C 46,7 km/h (6 Bft)
03.01.2025 15:12 21,7 °C 3,3 °C 51 % 73 % 1011,4 hPa 0,0 l/m² 31,9 km/h (5 Bft) SW 227 ° 1 min 142 W/m² -1,1 °C -9,3 °C 41,8 km/h (6 Bft)
03.01.2025 15:13 21,7 °C 3,4 °C 51 % 73 % 1011,4 hPa 0,0 l/m² 30,9 km/h (5 Bft) W-SW 254 ° 1 min 139 W/m² -1,0 °C -8,9 °C 38,6 km/h (6 Bft)
03.01.2025 15:14 21,7 °C 3,4 °C 51 % 73 % 1011,5 hPa 0,0 l/m² 35,7 km/h (5 Bft) W 261 ° 1 min 134 W/m² -1,0 °C -10,0 °C 43,5 km/h (6 Bft)
03.01.2025 15:16 21,7 °C 3,4 °C 51 % 73 % 1011,5 hPa 0,0 l/m² 34,2 km/h (5 Bft) W-SW 242 ° 2 min 104 W/m² -1,0 °C -9,7 °C 46,7 km/h (6 Bft)
03.01.2025 15:18 21,7 °C 3,5 °C 51 % 73 % 1011,6 hPa 0,0 l/m² 33,4 km/h (5 Bft) W-SW 244 ° 2 min 100 W/m² -0,9 °C -9,4 °C 43,5 km/h (6 Bft)
03.01.2025 15:20 21,7 °C 3,4 °C 51 % 73 % 1011,6 hPa 0,0 l/m² 32,9 km/h (5 Bft) SW 225 ° 2 min 81 W/m² -1,0 °C -9,4 °C 43,5 km/h (6 Bft)
03.01.2025 15:21 21,7 °C 3,4 °C 51 % 73 % 1011,5 hPa 0,0 l/m² 33,9 km/h (5 Bft) SW 232 ° 1 min 60 W/m² -1,0 °C -9,6 °C 43,5 km/h (6 Bft)
03.01.2025 15:23 21,7 °C 3,4 °C 52 % 73 % 1011,6 hPa 0,0 l/m² 28,9 km/h (5 Bft) SW 232 ° 0 min 42 W/m² -1,0 °C -8,3 °C 41,8 km/h (6 Bft)
03.01.2025 15:24 21,7 °C 3,4 °C 52 % 73 % 1011,7 hPa 0,0 l/m² 27,7 km/h (5 Bft) SW 230 ° 0 min 39 W/m² -1,0 °C -8,0 °C 33,8 km/h (5 Bft)
03.01.2025 15:26 21,7 °C 3,3 °C 52 % 73 % 1011,7 hPa 0,0 l/m² 28,3 km/h (5 Bft) W-NW 294 ° 0 min 35 W/m² -1,1 °C -8,3 °C 38,6 km/h (6 Bft)
03.01.2025 15:28 21,7 °C 3,3 °C 52 % 73 % 1011,9 hPa 0,0 l/m² 31,3 km/h (5 Bft) W-SW 247 ° 0 min 30 W/m² -1,1 °C -9,1 °C 43,5 km/h (6 Bft)
03.01.2025 15:30 21,7 °C 3,2 °C 52 % 73 % 1011,8 hPa 0,0 l/m² 35,6 km/h (5 Bft) W 279 ° 0 min 28 W/m² -1,2 °C -10,3 °C 45,1 km/h (6 Bft)
03.01.2025 15:31 21,7 °C 3,2 °C 52 % 72 % 1011,8 hPa 0,0 l/m² 33,2 km/h (5 Bft) W-SW 248 ° 0 min 26 W/m² -1,3 °C -9,7 °C 41,8 km/h (6 Bft)
03.01.2025 15:32 21,7 °C 3,1 °C 52 % 72 % 1011,8 hPa 0,0 l/m² 37,7 km/h (5 Bft) W-SW 240 ° 0 min 25 W/m² -1,4 °C -10,9 °C 46,7 km/h (6 Bft)
03.01.2025 15:34 21,7 °C 3,1 °C 52 % 72 % 1012,0 hPa 0,0 l/m² 31,1 km/h (5 Bft) SW 230 ° 0 min 19 W/m² -1,4 °C -9,3 °C 41,8 km/h (6 Bft)
03.01.2025 15:36 21,7 °C 3,1 °C 52 % 72 % 1011,9 hPa 0,0 l/m² 33,6 km/h (5 Bft) W-SW 240 ° 0 min 18 W/m² -1,4 °C -10,0 °C 41,8 km/h (6 Bft)
03.01.2025 15:38 21,7 °C 2,9 °C 52 % 72 % 1012,0 hPa 0,0 l/m² 23,8 km/h (4 Bft) W 263 ° 0 min 18 W/m² -1,6 °C -7,4 °C 35,4 km/h (5 Bft)
03.01.2025 15:40 21,8 °C 2,8 °C 52 % 73 % 1012,0 hPa 0,0 l/m² 32,1 km/h (5 Bft) W-SW 237 ° 0 min 28 W/m² -1,5 °C -10,0 °C 46,7 km/h (6 Bft)
03.01.2025 15:41 21,8 °C 2,8 °C 52 % 73 % 1012,1 hPa 0,0 l/m² 34,7 km/h (5 Bft) W-SW 247 ° 0 min 25 W/m² -1,5 °C -10,7 °C 46,7 km/h (6 Bft)
03.01.2025 15:42 21,8 °C 2,8 °C 52 % 72 % 1012,1 hPa 0,0 l/m² 24,9 km/h (4 Bft) W 269 ° 0 min 25 W/m² -1,7 °C -7,9 °C 32,2 km/h (5 Bft)
03.01.2025 15:44 21,7 °C 2,8 °C 52 % 73 % 1012,0 hPa 0,0 l/m² 29,5 km/h (5 Bft) W-SW 246 ° 0 min 19 W/m² -1,5 °C -9,3 °C 37,0 km/h (5 Bft)
03.01.2025 15:46 21,8 °C 2,8 °C 52 % 73 % 1012,2 hPa 0,0 l/m² 29,4 km/h (5 Bft) W-SW 258 ° 0 min 16 W/m² -1,5 °C -9,3 °C 41,8 km/h (6 Bft)
03.01.2025 15:48 21,8 °C 2,8 °C 52 % 73 % 1012,2 hPa 0,0 l/m² 31,7 km/h (5 Bft) W-SW 249 ° 0 min 12 W/m² -1,5 °C -9,9 °C 45,1 km/h (6 Bft)
03.01.2025 15:50 21,7 °C 2,7 °C 52 % 73 % 1012,2 hPa 0,0 l/m² 31,6 km/h (5 Bft) W 262 ° 0 min 12 W/m² -1,6 °C -10,0 °C 41,8 km/h (6 Bft)
03.01.2025 15:51 21,8 °C 2,8 °C 52 % 73 % 1012,2 hPa 0,0 l/m² 30,6 km/h (5 Bft) SW 227 ° 0 min 14 W/m² -1,5 °C -9,6 °C 40,2 km/h (6 Bft)
03.01.2025 15:52 21,8 °C 2,7 °C 52 % 74 % 1012,2 hPa 0,0 l/m² 36,0 km/h (5 Bft) W 259 ° 0 min 16 W/m² -1,5 °C -11,1 °C 51,5 km/h (7 Bft)
03.01.2025 15:54 21,7 °C 2,7 °C 52 % 74 % 1012,2 hPa 0,0 l/m² 38,0 km/h (6 Bft) W-SW 248 ° 0 min 14 W/m² -1,5 °C -11,5 °C 51,5 km/h (7 Bft)
03.01.2025 15:55 21,7 °C 2,7 °C 52 % 73 % 1012,2 hPa 0,0 l/m² 40,0 km/h (6 Bft) W-SW 238 ° 0 min 12 W/m² -1,6 °C -11,9 °C 53,1 km/h (7 Bft)
03.01.2025 15:57 21,7 °C 2,7 °C 52 % 74 % 1012,3 hPa 0,0 l/m² 33,6 km/h (5 Bft) W-SW 239 ° 0 min 9 W/m² -1,5 °C -10,5 °C 41,8 km/h (6 Bft)
03.01.2025 15:59 21,7 °C 2,7 °C 52 % 74 % 1012,3 hPa 0,0 l/m² 33,2 km/h (5 Bft) W 259 ° 0 min 7 W/m² -1,5 °C -10,5 °C 43,5 km/h (6 Bft)
03.01.2025 16:01 21,7 °C 2,7 °C 52 % 74 % 1012,4 hPa 0,0 l/m² 25,2 km/h (4 Bft) W 268 ° 0 min 9 W/m² -1,5 °C -8,1 °C 35,4 km/h (5 Bft)
03.01.2025 16:02 21,7 °C 2,7 °C 52 % 75 % 1012,5 hPa 0,0 l/m² 30,7 km/h (5 Bft) SW 236 ° 0 min 7 W/m² -1,3 °C -9,8 °C 48,3 km/h (6 Bft)
03.01.2025 16:03 21,7 °C 2,6 °C 52 % 75 % 1012,5 hPa 0,0 l/m² 37,7 km/h (5 Bft) W-SW 251 ° 0 min 5 W/m² -1,4 °C -11,6 °C 49,9 km/h (7 Bft)
03.01.2025 16:06 21,7 °C 2,6 °C 52 % 75 % 1012,4 hPa 0,0 l/m² 28,8 km/h (5 Bft) S-SW 209 ° 0 min 5 W/m² -1,4 °C -9,4 °C 40,2 km/h (6 Bft)
03.01.2025 16:08 21,7 °C 2,6 °C 52 % 75 % 1012,4 hPa 0,0 l/m² 35,6 km/h (5 Bft) W-SW 242 ° 0 min 7 W/m² -1,4 °C -11,2 °C 46,7 km/h (6 Bft)
03.01.2025 16:10 21,7 °C 2,5 °C 52 % 76 % 1012,6 hPa 0,0 l/m² 24,9 km/h (4 Bft) SW 232 ° 0 min 7 W/m² -1,3 °C -8,3 °C 35,4 km/h (5 Bft)
03.01.2025 16:11 21,7 °C 2,5 °C 52 % 76 % 1012,6 hPa 0,0 l/m² 37,0 km/h (5 Bft) SW 226 ° 0 min 7 W/m² -1,3 °C -11,6 °C 46,7 km/h (6 Bft)
03.01.2025 16:13 21,7 °C 2,4 °C 52 % 76 % 1012,6 hPa 0,0 l/m² 31,5 km/h (5 Bft) W-SW 239 ° 0 min 5 W/m² -1,4 °C -10,4 °C 38,6 km/h (6 Bft)
03.01.2025 16:15 21,7 °C 2,4 °C 52 % 76 % 1012,7 hPa 0,0 l/m² 44,0 km/h (6 Bft) W-SW 244 ° 0 min 0 W/m² -1,4 °C -13,1 °C 56,3 km/h (7 Bft)
03.01.2025 16:17 21,6 °C 2,3 °C 52 % 78 % 1012,8 hPa 0,0 l/m² 31,5 km/h (5 Bft) W-SW 244 ° 0 min 0 W/m² -1,1 °C -10,6 °C 45,1 km/h (6 Bft)
03.01.2025 16:19 21,6 °C 2,2 °C 52 % 78 % 1012,8 hPa 0,0 l/m² 30,2 km/h (5 Bft) W-SW 246 ° 0 min 0 W/m² -1,2 °C -10,4 °C 40,2 km/h (6 Bft)
03.01.2025 16:21 21,6 °C 2,2 °C 52 % 78 % 1012,8 hPa 0,0 l/m² 32,9 km/h (5 Bft) W-SW 250 ° 0 min 0 W/m² -1,2 °C -11,1 °C 54,7 km/h (7 Bft)
03.01.2025 16:22 21,6 °C 2,1 °C 52 % 79 % 1012,9 hPa 0,0 l/m² 27,5 km/h (5 Bft) W-SW 244 ° 0 min 0 W/m² -1,2 °C -9,7 °C 35,4 km/h (5 Bft)
03.01.2025 16:23 21,6 °C 2,1 °C 52 % 79 % 1012,9 hPa 0,0 l/m² 27,3 km/h (5 Bft) W-SW 241 ° 0 min 0 W/m² -1,2 °C -9,6 °C 32,2 km/h (5 Bft)
03.01.2025 16:24 21,6 °C 2,1 °C 52 % 79 % 1012,8 hPa 0,0 l/m² 23,9 km/h (4 Bft) W-SW 249 ° 0 min 0 W/m² -1,2 °C -8,5 °C 32,2 km/h (5 Bft)
03.01.2025 16:25 21,6 °C 2,0 °C 52 % 79 % 1012,7 hPa 0,0 l/m² 24,7 km/h (4 Bft) W-SW 252 ° 0 min 0 W/m² -1,2 °C -8,9 °C 35,4 km/h (5 Bft)
03.01.2025 16:27 21,6 °C 1,9 °C 52 % 80 % 1012,7 hPa 0,0 l/m² 27,2 km/h (5 Bft) W-SW 257 ° 0 min 0 W/m² -1,2 °C -9,9 °C 37,0 km/h (5 Bft)
03.01.2025 16:28 21,6 °C 1,9 °C 52 % 80 % 1012,7 hPa 0,0 l/m² 24,2 km/h (4 Bft) W-SW 242 ° 0 min 0 W/m² -1,2 °C -8,9 °C 30,6 km/h (5 Bft)
03.01.2025 16:29 21,6 °C 1,9 °C 52 % 80 % 1012,7 hPa 0,0 l/m² 26,2 km/h (4 Bft) W-SW 244 ° 0 min 0 W/m² -1,2 °C -9,6 °C 33,8 km/h (5 Bft)
03.01.2025 16:30 21,6 °C 1,8 °C 52 % 80 % 1012,8 hPa 0,0 l/m² 26,9 km/h (4 Bft) SW 217 ° 0 min 0 W/m² -1,3 °C -9,9 °C 35,4 km/h (5 Bft)
03.01.2025 16:31 21,6 °C 1,8 °C 52 % 80 % 1012,8 hPa 0,0 l/m² 28,7 km/h (5 Bft) W-SW 243 ° 0 min 0 W/m² -1,3 °C -10,5 °C 38,6 km/h (6 Bft)
03.01.2025 16:32 21,6 °C 1,7 °C 52 % 80 % 1012,8 hPa 0,0 l/m² 34,6 km/h (5 Bft) W-SW 250 ° 0 min 0 W/m² -1,4 °C -12,2 °C 40,2 km/h (6 Bft)
03.01.2025 16:33 21,6 °C 1,7 °C 52 % 80 % 1012,8 hPa 0,0 l/m² 28,6 km/h (5 Bft) W-SW 246 ° 0 min 0 W/m² -1,4 °C -10,6 °C 38,6 km/h (6 Bft)
03.01.2025 16:34 21,6 °C 1,7 °C 52 % 80 % 1012,7 hPa 0,0 l/m² 28,8 km/h (5 Bft) W-SW 240 ° 0 min 0 W/m² -1,4 °C -10,7 °C 40,2 km/h (6 Bft)
03.01.2025 16:35 21,6 °C 1,7 °C 52 % 80 % 1012,8 hPa 0,0 l/m² 30,2 km/h (5 Bft) W-SW 242 ° 0 min 0 W/m² -1,4 °C -11,1 °C 38,6 km/h (6 Bft)
03.01.2025 16:36 21,6 °C 1,7 °C 52 % 80 % 1012,8 hPa 0,0 l/m² 25,0 km/h (4 Bft) SW 225 ° 0 min 0 W/m² -1,4 °C -9,4 °C 30,6 km/h (5 Bft)
03.01.2025 16:37 21,6 °C 1,7 °C 52 % 80 % 1012,9 hPa 0,0 l/m² 30,6 km/h (5 Bft) SW 233 ° 0 min 0 W/m² -1,4 °C -11,2 °C 40,2 km/h (6 Bft)
03.01.2025 16:38 21,6 °C 1,6 °C 52 % 81 % 1012,9 hPa 0,0 l/m² 25,1 km/h (4 Bft) W-SW 240 ° 0 min 0 W/m² -1,3 °C -9,6 °C 33,8 km/h (5 Bft)
03.01.2025 16:39 21,6 °C 1,6 °C 51 % 81 % 1012,9 hPa 0,0 l/m² 32,1 km/h (5 Bft) W-SW 247 ° 0 min 0 W/m² -1,3 °C -11,7 °C 38,6 km/h (6 Bft)
03.01.2025 16:40 21,6 °C 1,6 °C 51 % 81 % 1012,9 hPa 0,0 l/m² 25,7 km/h (4 Bft) W-SW 238 ° 0 min 0 W/m² -1,3 °C -9,8 °C 30,6 km/h (5 Bft)
03.01.2025 16:41 21,5 °C 1,6 °C 50 % 81 % 1012,9 hPa 0,0 l/m² 26,8 km/h (4 Bft) SW 229 ° 0 min 0 W/m² -1,3 °C -10,2 °C 33,8 km/h (5 Bft)
03.01.2025 16:42 21,5 °C 1,6 °C 50 % 81 % 1012,9 hPa 0,0 l/m² 24,5 km/h (4 Bft) W-SW 246 ° 0 min 0 W/m² -1,3 °C -9,4 °C 29,0 km/h (5 Bft)
03.01.2025 16:43 21,5 °C 1,6 °C 50 % 81 % 1013,0 hPa 0,0 l/m² 25,7 km/h (4 Bft) W-SW 244 ° 0 min 0 W/m² -1,3 °C -9,8 °C 33,8 km/h (5 Bft)
03.01.2025 16:44 21,5 °C 1,6 °C 50 % 81 % 1013,0 hPa 0,0 l/m² 23,8 km/h (4 Bft) W-SW 244 ° 0 min 0 W/m² -1,3 °C -9,1 °C 30,6 km/h (5 Bft)
03.01.2025 16:45 21,5 °C 1,6 °C 48 % 81 % 1013,0 hPa 0,0 l/m² 23,7 km/h (4 Bft) SW 230 ° 0 min 0 W/m² -1,3 °C -9,1 °C 30,6 km/h (5 Bft)
03.01.2025 16:46 21,4 °C 1,6 °C 47 % 81 % 1013,0 hPa 0,0 l/m² 25,8 km/h (4 Bft) W-SW 244 ° 0 min 0 W/m² -1,3 °C -9,8 °C 30,6 km/h (5 Bft)
03.01.2025 16:47 21,4 °C 1,6 °C 47 % 81 % 1013,0 hPa 0,0 l/m² 28,5 km/h (5 Bft) SW 236 ° 0 min 0 W/m² -1,3 °C -10,7 °C 33,8 km/h (5 Bft)
03.01.2025 16:48 21,4 °C 1,6 °C 47 % 81 % 1013,0 hPa 0,0 l/m² 22,2 km/h (4 Bft) W-SW 248 ° 0 min 0 W/m² -1,3 °C -8,5 °C 29,0 km/h (5 Bft)
03.01.2025 16:49 21,4 °C 1,6 °C 47 % 81 % 1013,1 hPa 0,0 l/m² 26,5 km/h (4 Bft) W-SW 241 ° 0 min 0 W/m² -1,3 °C -10,1 °C 30,6 km/h (5 Bft)
03.01.2025 16:50 21,4 °C 1,6 °C 47 % 81 % 1013,1 hPa 0,0 l/m² 27,6 km/h (5 Bft) W-SW 242 ° 0 min 0 W/m² -1,3 °C -10,4 °C 38,6 km/h (6 Bft)
03.01.2025 16:51 21,4 °C 1,6 °C 48 % 81 % 1013,3 hPa 0,0 l/m² 28,7 km/h (5 Bft) W-SW 249 ° 0 min 0 W/m² -1,3 °C -10,8 °C 35,4 km/h (5 Bft)
03.01.2025 16:52 21,4 °C 1,6 °C 48 % 81 % 1013,3 hPa 0,0 l/m² 26,0 km/h (4 Bft) W-SW 254 ° 0 min 0 W/m² -1,3 °C -9,9 °C 33,8 km/h (5 Bft)
03.01.2025 16:53 21,3 °C 1,6 °C 48 % 81 % 1013,2 hPa 0,0 l/m² 34,4 km/h (5 Bft) S-SW 209 ° 0 min 0 W/m² -1,3 °C -12,3 °C 40,2 km/h (6 Bft)
03.01.2025 16:54 21,4 °C 1,7 °C 48 % 81 % 1013,3 hPa 0,0 l/m² 31,7 km/h (5 Bft) W-SW 241 ° 0 min 0 W/m² -1,2 °C -11,5 °C 40,2 km/h (6 Bft)
03.01.2025 16:55 21,3 °C 1,7 °C 48 % 81 % 1013,3 hPa 0,0 l/m² 31,9 km/h (5 Bft) W 264 ° 0 min 0 W/m² -1,2 °C -11,5 °C 43,5 km/h (6 Bft)
03.01.2025 16:56 21,3 °C 1,7 °C 48 % 81 % 1013,3 hPa 0,0 l/m² 43,0 km/h (6 Bft) W-SW 242 ° 0 min 0 W/m² -1,2 °C -14,0 °C 54,7 km/h (7 Bft)
03.01.2025 16:57 21,3 °C 1,7 °C 48 % 81 % 1013,3 hPa 0,0 l/m² 40,8 km/h (6 Bft) SW 234 ° 0 min 0 W/m² -1,2 °C -13,6 °C 49,9 km/h (7 Bft)
03.01.2025 16:58 21,4 °C 1,7 °C 48 % 82 % 1013,3 hPa 0,0 l/m² 37,7 km/h (5 Bft) W 273 ° 0 min 0 W/m² -1,0 °C -12,9 °C 53,1 km/h (7 Bft)
03.01.2025 16:59 21,3 °C 1,6 °C 48 % 82 % 1013,3 hPa 0,0 l/m² 36,9 km/h (5 Bft) W-SW 238 ° 0 min 0 W/m² -1,1 °C -12,9 °C 43,5 km/h (6 Bft)
03.01.2025 17:00 21,3 °C 1,6 °C 48 % 82 % 1013,3 hPa 0,0 l/m² 35,7 km/h (5 Bft) W-SW 250 ° 0 min 0 W/m² -1,1 °C -12,6 °C 45,1 km/h (6 Bft)
03.01.2025 17:01 21,4 °C 1,6 °C 49 % 82 % 1013,5 hPa 0,0 l/m² 36,2 km/h (5 Bft) W-SW 255 ° 0 min 0 W/m² -1,1 °C -12,8 °C 51,5 km/h (7 Bft)
03.01.2025 17:02 21,4 °C 1,6 °C 49 % 82 % 1013,5 hPa 0,0 l/m² 33,2 km/h (5 Bft) W-SW 251 ° 0 min 0 W/m² -1,1 °C -12,0 °C 43,5 km/h (6 Bft)
03.01.2025 17:03 21,3 °C 1,6 °C 49 % 83 % 1013,5 hPa 0,0 l/m² 32,3 km/h (5 Bft) W-SW 247 ° 0 min 0 W/m² -1,0 °C -11,8 °C 41,8 km/h (6 Bft)
03.01.2025 17:04 21,3 °C 1,6 °C 49 % 83 % 1013,5 hPa 0,0 l/m² 30,0 km/h (5 Bft) W-SW 237 ° 0 min 0 W/m² -1,0 °C -11,2 °C 35,4 km/h (5 Bft)
03.01.2025 17:05 21,3 °C 1,4 °C 49 % 83 % 1013,5 hPa 0,0 l/m² 29,2 km/h (5 Bft) W-SW 242 ° 0 min 0 W/m² -1,2 °C -11,2 °C 35,4 km/h (5 Bft)
03.01.2025 17:06 21,3 °C 1,4 °C 49 % 84 % 1013,5 hPa 0,0 l/m² 26,8 km/h (4 Bft) SW 232 ° 0 min 0 W/m² -1,0 °C -10,4 °C 30,6 km/h (5 Bft)
03.01.2025 17:07 21,4 °C 1,4 °C 49 % 84 % 1013,5 hPa 0,0 l/m² 35,3 km/h (5 Bft) SW 231 ° 0 min 0 W/m² -1,0 °C -12,8 °C 56,3 km/h (7 Bft)
03.01.2025 17:08 21,3 °C 1,4 °C 49 % 84 % 1013,5 hPa 0,0 l/m² 34,6 km/h (5 Bft) W-SW 243 ° 0 min 0 W/m² -1,0 °C -12,7 °C 43,5 km/h (6 Bft)
03.01.2025 17:09 21,3 °C 1,3 °C 49 % 84 % 1013,5 hPa 0,0 l/m² 35,1 km/h (5 Bft) SW 219 ° 0 min 0 W/m² -1,1 °C -12,9 °C 46,7 km/h (6 Bft)
03.01.2025 17:10 21,3 °C 1,3 °C 49 % 84 % 1013,5 hPa 0,0 l/m² 29,2 km/h (5 Bft) W-SW 238 ° 0 min 0 W/m² -1,1 °C -11,3 °C 38,6 km/h (6 Bft)
03.01.2025 17:11 21,4 °C 1,3 °C 49 % 84 % 1013,4 hPa 0,0 l/m² 33,5 km/h (5 Bft) W 265 ° 0 min 0 W/m² -1,1 °C -12,5 °C 41,8 km/h (6 Bft)
03.01.2025 17:12 21,4 °C 1,3 °C 49 % 84 % 1013,4 hPa 0,0 l/m² 33,2 km/h (5 Bft) W-SW 242 ° 0 min 0 W/m² -1,1 °C -12,5 °C 41,8 km/h (6 Bft)
03.01.2025 17:13 21,3 °C 1,3 °C 49 % 84 % 1013,5 hPa 0,0 l/m² 38,6 km/h (6 Bft) W-SW 250 ° 0 min 0 W/m² -1,1 °C -13,7 °C 46,7 km/h (6 Bft)
03.01.2025 17:14 21,3 °C 1,2 °C 49 % 84 % 1013,5 hPa 0,0 l/m² 36,9 km/h (5 Bft) W-SW 240 ° 0 min 0 W/m² -1,2 °C -13,5 °C 45,1 km/h (6 Bft)
03.01.2025 17:15 21,3 °C 1,2 °C 49 % 84 % 1013,5 hPa 0,0 l/m² 32,1 km/h (5 Bft) W-SW 242 ° 0 min 0 W/m² -1,2 °C -12,3 °C 45,1 km/h (6 Bft)
03.01.2025 17:16 21,3 °C 1,2 °C 49 % 84 % 1013,5 hPa 0,0 l/m² 35,1 km/h (5 Bft) W-SW 248 ° 0 min 0 W/m² -1,2 °C -13,1 °C 46,7 km/h (6 Bft)
03.01.2025 17:17 21,3 °C 1,2 °C 49 % 84 % 1013,5 hPa 0,0 l/m² 35,1 km/h (5 Bft) W-SW 255 ° 0 min 0 W/m² -1,2 °C -13,1 °C 45,1 km/h (6 Bft)
03.01.2025 17:18 21,3 °C 1,1 °C 49 % 84 % 1013,5 hPa 0,0 l/m² 29,7 km/h (5 Bft) W-SW 238 ° 0 min 0 W/m² -1,3 °C -11,8 °C 38,6 km/h (6 Bft)
03.01.2025 17:19 21,4 °C 1,1 °C 49 % 84 % 1013,4 hPa 0,0 l/m² 26,8 km/h (4 Bft) W-SW 252 ° 0 min 0 W/m² -1,3 °C -10,9 °C 35,4 km/h (5 Bft)
03.01.2025 17:20 21,4 °C 1,1 °C 49 % 84 % 1013,5 hPa 0,0 l/m² 27,6 km/h (5 Bft) W-SW 244 ° 0 min 0 W/m² -1,3 °C -11,1 °C 35,4 km/h (5 Bft)
03.01.2025 17:21 21,3 °C 1,0 °C 49 % 84 % 1013,5 hPa 0,0 l/m² 31,2 km/h (5 Bft) W-SW 244 ° 0 min 0 W/m² -1,4 °C -12,3 °C 37,0 km/h (5 Bft)
03.01.2025 17:22 21,3 °C 1,0 °C 49 % 84 % 1013,5 hPa 0,0 l/m² 29,1 km/h (5 Bft) SW 236 ° 0 min 0 W/m² -1,4 °C -11,7 °C 35,4 km/h (5 Bft)
03.01.2025 17:23 21,4 °C 1,0 °C 49 % 84 % 1013,5 hPa 0,0 l/m² 32,7 km/h (5 Bft) W-SW 250 ° 0 min 0 W/m² -1,4 °C -12,8 °C 40,2 km/h (6 Bft)
03.01.2025 17:24 21,3 °C 0,9 °C 49 % 84 % 1013,5 hPa 0,0 l/m² 30,5 km/h (5 Bft) W-SW 257 ° 0 min 0 W/m² -1,5 °C -12,3 °C 38,6 km/h (6 Bft)
03.01.2025 17:25 21,4 °C 0,9 °C 49 % 84 % 1013,4 hPa 0,0 l/m² 33,1 km/h (5 Bft) W 261 ° 0 min 0 W/m² -1,5 °C -13,0 °C 45,1 km/h (6 Bft)
03.01.2025 17:26 21,4 °C 0,9 °C 49 % 84 % 1013,5 hPa 0,0 l/m² 26,8 km/h (4 Bft) W 264 ° 0 min 0 W/m² -1,5 °C -11,1 °C 33,8 km/h (5 Bft)
03.01.2025 17:27 21,3 °C 0,9 °C 49 % 84 % 1013,4 hPa 0,0 l/m² 30,5 km/h (5 Bft) W-SW 257 ° 0 min 0 W/m² -1,5 °C -12,3 °C 38,6 km/h (6 Bft)
03.01.2025 17:28 21,4 °C 0,8 °C 49 % 84 % 1013,4 hPa 0,0 l/m² 32,3 km/h (5 Bft) SW 221 ° 0 min 0 W/m² -1,6 °C -12,9 °C 40,2 km/h (6 Bft)
03.01.2025 17:29 21,4 °C 0,8 °C 49 % 84 % 1013,4 hPa 0,0 l/m² 32,4 km/h (5 Bft) W-SW 238 ° 0 min 0 W/m² -1,6 °C -13,0 °C 43,5 km/h (6 Bft)
03.01.2025 17:32 21,4 °C 0,9 °C 50 % 84 % 1013,4 hPa 0,0 l/m² 32,1 km/h (5 Bft) W-SW 242 ° 0 min 0 W/m² -1,5 °C -12,7 °C 46,7 km/h (6 Bft)
03.01.2025 17:33 21,4 °C 0,8 °C 50 % 84 % 1013,3 hPa 0,0 l/m² 26,1 km/h (4 Bft) SW 226 ° 0 min 0 W/m² -1,6 °C -11,0 °C 32,2 km/h (5 Bft)
03.01.2025 17:34 21,4 °C 0,8 °C 50 % 84 % 1013,3 hPa 0,0 l/m² 30,3 km/h (5 Bft) W-SW 252 ° 0 min 0 W/m² -1,6 °C -12,4 °C 37,0 km/h (5 Bft)
03.01.2025 17:35 21,4 °C 0,8 °C 50 % 84 % 1013,4 hPa 0,0 l/m² 28,6 km/h (5 Bft) W-SW 248 ° 0 min 0 W/m² -1,6 °C -11,9 °C 33,8 km/h (5 Bft)
03.01.2025 17:36 21,3 °C 0,8 °C 50 % 84 % 1013,3 hPa 0,0 l/m² 29,0 km/h (5 Bft) W 259 ° 0 min 0 W/m² -1,6 °C -12,0 °C 33,8 km/h (5 Bft)
03.01.2025 17:37 21,4 °C 0,8 °C 50 % 84 % 1013,4 hPa 0,0 l/m² 24,5 km/h (4 Bft) W 271 ° 0 min 0 W/m² -1,6 °C -10,5 °C 32,2 km/h (5 Bft)
03.01.2025 17:38 21,3 °C 0,8 °C 50 % 84 % 1013,5 hPa 0,0 l/m² 24,1 km/h (4 Bft) W-SW 254 ° 0 min 0 W/m² -1,6 °C -10,3 °C 30,6 km/h (5 Bft)
03.01.2025 17:39 21,4 °C 0,8 °C 50 % 84 % 1013,4 hPa 0,0 l/m² 25,9 km/h (4 Bft) SW 234 ° 0 min 0 W/m² -1,6 °C -11,0 °C 32,2 km/h (5 Bft)
03.01.2025 17:42 21,4 °C 0,9 °C 50 % 83 % 1013,5 hPa 0,0 l/m² 27,1 km/h (5 Bft) W 279 ° 0 min 0 W/m² -1,7 °C -11,2 °C 37,0 km/h (5 Bft)
03.01.2025 17:43 21,3 °C 0,9 °C 50 % 83 % 1013,5 hPa 0,0 l/m² 25,0 km/h (4 Bft) W-SW 240 ° 0 min 0 W/m² -1,7 °C -10,5 °C 32,2 km/h (5 Bft)
03.01.2025 17:44 21,3 °C 0,9 °C 50 % 83 % 1013,5 hPa 0,0 l/m² 24,8 km/h (4 Bft) W-SW 248 ° 0 min 0 W/m² -1,7 °C -10,4 °C 27,4 km/h (5 Bft)
03.01.2025 17:45 21,4 °C 0,9 °C 50 % 83 % 1013,5 hPa 0,0 l/m² 27,6 km/h (5 Bft) W-SW 244 ° 0 min 0 W/m² -1,7 °C -11,4 °C 32,2 km/h (5 Bft)
03.01.2025 17:46 21,4 °C 0,9 °C 50 % 83 % 1013,5 hPa 0,0 l/m² 25,0 km/h (4 Bft) SW 227 ° 0 min 0 W/m² -1,7 °C -10,5 °C 33,8 km/h (5 Bft)
03.01.2025 17:47 21,4 °C 0,9 °C 50 % 83 % 1013,5 hPa 0,0 l/m² 22,7 km/h (4 Bft) SW 228 ° 0 min 0 W/m² -1,7 °C -9,6 °C 29,0 km/h (5 Bft)
03.01.2025 17:48 21,3 °C 0,9 °C 50 % 83 % 1013,5 hPa 0,0 l/m² 24,5 km/h (4 Bft) S-SW 213 ° 0 min 0 W/m² -1,7 °C -10,3 °C 32,2 km/h (5 Bft)
03.01.2025 17:49 21,4 °C 0,9 °C 50 % 83 % 1013,6 hPa 0,0 l/m² 18,7 km/h (3 Bft) W-SW 245 ° 0 min 0 W/m² -1,7 °C -7,9 °C 24,1 km/h (4 Bft)
03.01.2025 17:52 21,4 °C 0,8 °C 50 % 84 % 1013,6 hPa 0,0 l/m² 23,6 km/h (4 Bft) W-SW 246 ° 0 min 0 W/m² -1,6 °C -10,1 °C 33,8 km/h (5 Bft)
03.01.2025 17:53 21,4 °C 0,8 °C 50 % 84 % 1013,6 hPa 0,0 l/m² 23,1 km/h (4 Bft) SW 229 ° 0 min 0 W/m² -1,6 °C -9,9 °C 30,6 km/h (5 Bft)
03.01.2025 17:54 21,4 °C 0,8 °C 50 % 84 % 1013,6 hPa 0,0 l/m² 25,9 km/h (4 Bft) SW 233 ° 0 min 0 W/m² -1,6 °C -11,0 °C 30,6 km/h (5 Bft)
03.01.2025 17:55 21,4 °C 0,8 °C 50 % 84 % 1013,7 hPa 0,0 l/m² 23,0 km/h (4 Bft) W-SW 240 ° 0 min 0 W/m² -1,6 °C -9,9 °C 30,6 km/h (5 Bft)
03.01.2025 17:56 21,4 °C 0,8 °C 50 % 84 % 1013,7 hPa 0,0 l/m² 25,8 km/h (4 Bft) SW 233 ° 0 min 0 W/m² -1,6 °C -10,9 °C 30,6 km/h (5 Bft)
03.01.2025 17:57 21,4 °C 0,8 °C 50 % 84 % 1013,8 hPa 0,0 l/m² 20,0 km/h (4 Bft) SW 234 ° 0 min 0 W/m² -1,6 °C -8,6 °C 29,0 km/h (5 Bft)
03.01.2025 17:58 21,4 °C 0,8 °C 49 % 84 % 1013,9 hPa 0,0 l/m² 23,4 km/h (4 Bft) SW 235 ° 0 min 0 W/m² -1,6 °C -10,0 °C 30,6 km/h (5 Bft)
03.01.2025 17:59 21,4 °C 0,8 °C 49 % 84 % 1013,8 hPa 0,0 l/m² 20,7 km/h (4 Bft) SW 232 ° 0 min 0 W/m² -1,6 °C -8,9 °C 27,4 km/h (5 Bft)
03.01.2025 18:02 21,3 °C 0,8 °C 49 % 84 % 1013,9 hPa 0,0 l/m² 20,1 km/h (4 Bft) W-SW 244 ° 0 min 0 W/m² -1,6 °C -8,6 °C 29,0 km/h (5 Bft)
03.01.2025 18:03 21,3 °C 0,8 °C 49 % 84 % 1013,9 hPa 0,0 l/m² 20,2 km/h (4 Bft) W-SW 245 ° 0 min 0 W/m² -1,6 °C -8,7 °C 29,0 km/h (5 Bft)
03.01.2025 18:04 21,3 °C 0,8 °C 49 % 84 % 1013,9 hPa 0,0 l/m² 19,8 km/h (3 Bft) W-SW 238 ° 0 min 0 W/m² -1,6 °C -8,5 °C 24,1 km/h (4 Bft)
03.01.2025 18:05 21,4 °C 0,8 °C 49 % 84 % 1013,9 hPa 0,0 l/m² 20,3 km/h (4 Bft) W-SW 245 ° 0 min 0 W/m² -1,6 °C -8,7 °C 25,7 km/h (4 Bft)
03.01.2025 18:06 21,3 °C 0,8 °C 49 % 84 % 1013,8 hPa 0,0 l/m² 18,9 km/h (3 Bft) W-SW 242 ° 0 min 0 W/m² -1,6 °C -8,1 °C 24,1 km/h (4 Bft)
03.01.2025 18:07 21,3 °C 0,8 °C 49 % 84 % 1013,9 hPa 0,0 l/m² 17,2 km/h (3 Bft) SW 234 ° 0 min 0 W/m² -1,6 °C -7,2 °C 20,9 km/h (4 Bft)
03.01.2025 18:08 21,3 °C 0,8 °C 49 % 84 % 1013,9 hPa 0,0 l/m² 21,5 km/h (4 Bft) W-SW 239 ° 0 min 0 W/m² -1,6 °C -9,3 °C 27,4 km/h (5 Bft)
03.01.2025 18:09 21,3 °C 0,8 °C 49 % 84 % 1014,0 hPa 0,0 l/m² 16,3 km/h (3 Bft) W-SW 242 ° 0 min 0 W/m² -1,6 °C -6,8 °C 22,5 km/h (4 Bft)
03.01.2025 18:12 21,4 °C 0,8 °C 49 % 84 % 1014,0 hPa 0,0 l/m² 20,3 km/h (4 Bft) W-SW 241 ° 0 min 0 W/m² -1,6 °C -8,7 °C 25,7 km/h (4 Bft)
03.01.2025 18:13 21,4 °C 0,9 °C 49 % 84 % 1014,0 hPa 0,0 l/m² 20,6 km/h (4 Bft) W-SW 240 ° 0 min 0 W/m² -1,5 °C -8,7 °C 32,2 km/h (5 Bft)
03.01.2025 18:14 21,4 °C 0,9 °C 49 % 84 % 1014,0 hPa 0,0 l/m² 15,8 km/h (3 Bft) W-SW 252 ° 0 min 0 W/m² -1,5 °C -6,4 °C 20,9 km/h (4 Bft)
03.01.2025 18:15 21,3 °C 0,9 °C 49 % 84 % 1014,0 hPa 0,0 l/m² 18,5 km/h (3 Bft) W-SW 246 ° 0 min 0 W/m² -1,5 °C -7,8 °C 24,1 km/h (4 Bft)
03.01.2025 18:16 21,3 °C 0,9 °C 49 % 84 % 1014,0 hPa 0,0 l/m² 18,5 km/h (3 Bft) SW 219 ° 0 min 0 W/m² -1,5 °C -7,8 °C 20,9 km/h (4 Bft)
03.01.2025 18:17 21,4 °C 0,9 °C 49 % 84 % 1014,0 hPa 0,0 l/m² 18,0 km/h (3 Bft) SW 216 ° 0 min 0 W/m² -1,5 °C -7,5 °C 22,5 km/h (4 Bft)
03.01.2025 18:18 21,4 °C 1,0 °C 49 % 84 % 1014,0 hPa 0,0 l/m² 12,9 km/h (3 Bft) W-SW 240 ° 0 min 0 W/m² -1,4 °C -4,5 °C 17,7 km/h (3 Bft)
03.01.2025 18:19 21,3 °C 0,9 °C 49 % 84 % 1014,1 hPa 0,0 l/m² 14,0 km/h (3 Bft) SW 236 ° 0 min 0 W/m² -1,5 °C -5,3 °C 17,7 km/h (3 Bft)
03.01.2025 18:22 21,4 °C 1,1 °C 49 % 84 % 1014,2 hPa 0,0 l/m² 14,9 km/h (3 Bft) SW 222 ° 0 min 0 W/m² -1,3 °C -5,6 °C 20,9 km/h (4 Bft)
03.01.2025 18:23 21,4 °C 1,1 °C 48 % 84 % 1014,1 hPa 0,0 l/m² 14,3 km/h (3 Bft) SW 221 ° 0 min 0 W/m² -1,3 °C -5,2 °C 22,5 km/h (4 Bft)
03.01.2025 18:24 21,4 °C 1,1 °C 48 % 84 % 1014,1 hPa 0,0 l/m² 15,3 km/h (3 Bft) SW 232 ° 0 min 0 W/m² -1,3 °C -5,8 °C 19,3 km/h (3 Bft)
03.01.2025 18:25 21,4 °C 1,1 °C 48 % 84 % 1014,2 hPa 0,0 l/m² 14,0 km/h (3 Bft) SW 219 ° 0 min 0 W/m² -1,3 °C -5,0 °C 19,3 km/h (3 Bft)
03.01.2025 18:26 21,3 °C 1,1 °C 48 % 84 % 1014,1 hPa 0,0 l/m² 15,7 km/h (3 Bft) SW 234 ° 0 min 0 W/m² -1,3 °C -6,0 °C 19,3 km/h (3 Bft)
03.01.2025 18:27 21,3 °C 1,1 °C 48 % 85 % 1014,2 hPa 0,0 l/m² 14,0 km/h (3 Bft) W-SW 239 ° 0 min 0 W/m² -1,1 °C -5,0 °C 17,7 km/h (3 Bft)
03.01.2025 18:28 21,3 °C 1,1 °C 48 % 85 % 1014,2 hPa 0,0 l/m² 17,8 km/h (3 Bft) W-SW 242 ° 0 min 0 W/m² -1,1 °C -7,2 °C 20,9 km/h (4 Bft)
03.01.2025 18:29 21,3 °C 1,1 °C 48 % 85 % 1014,2 hPa 0,0 l/m² 18,0 km/h (3 Bft) SW 236 ° 0 min 0 W/m² -1,1 °C -7,3 °C 22,5 km/h (4 Bft)
03.01.2025 18:32 21,3 °C 1,1 °C 48 % 85 % 1014,3 hPa 0,0 l/m² 15,8 km/h (3 Bft) SW 226 ° 0 min 0 W/m² -1,1 °C -6,1 °C 22,5 km/h (4 Bft)
03.01.2025 18:33 21,3 °C 1,1 °C 48 % 85 % 1014,3 hPa 0,0 l/m² 16,4 km/h (3 Bft) SW 220 ° 0 min 0 W/m² -1,1 °C -6,4 °C 20,9 km/h (4 Bft)
03.01.2025 18:34 21,3 °C 1,1 °C 48 % 85 % 1014,3 hPa 0,0 l/m² 17,2 km/h (3 Bft) SW 220 ° 0 min 0 W/m² -1,1 °C -6,9 °C 22,5 km/h (4 Bft)
03.01.2025 18:35 21,3 °C 1,1 °C 48 % 85 % 1014,2 hPa 0,0 l/m² 19,2 km/h (3 Bft) W-SW 250 ° 0 min 0 W/m² -1,1 °C -7,8 °C 25,7 km/h (4 Bft)
03.01.2025 18:36 21,4 °C 1,1 °C 48 % 85 % 1014,3 hPa 0,0 l/m² 16,8 km/h (3 Bft) W-SW 237 ° 0 min 0 W/m² -1,1 °C -6,6 °C 22,5 km/h (4 Bft)
03.01.2025 18:37 21,3 °C 1,1 °C 48 % 85 % 1014,3 hPa 0,0 l/m² 14,8 km/h (3 Bft) SW 224 ° 0 min 0 W/m² -1,1 °C -5,5 °C 20,9 km/h (4 Bft)
03.01.2025 18:38 21,3 °C 1,1 °C 48 % 85 % 1014,4 hPa 0,0 l/m² 14,6 km/h (3 Bft) SW 225 ° 0 min 0 W/m² -1,1 °C -5,4 °C 19,3 km/h (3 Bft)
03.01.2025 18:39 21,3 °C 1,1 °C 48 % 86 % 1014,3 hPa 0,0 l/m² 16,9 km/h (3 Bft) W-SW 237 ° 0 min 0 W/m² -1,0 °C -6,7 °C 20,9 km/h (4 Bft)
03.01.2025 18:42 21,3 °C 1,1 °C 48 % 85 % 1014,3 hPa 0,0 l/m² 16,7 km/h (3 Bft) W 259 ° 0 min 0 W/m² -1,1 °C -6,6 °C 25,7 km/h (4 Bft)
03.01.2025 18:43 21,3 °C 1,1 °C 48 % 85 % 1014,4 hPa 0,0 l/m² 17,5 km/h (3 Bft) W-SW 240 ° 0 min 0 W/m² -1,1 °C -7,0 °C 24,1 km/h (4 Bft)
03.01.2025 18:45 21,3 °C 1,1 °C 48 % 85 % 1014,4 hPa 0,0 l/m² 17,2 km/h (3 Bft) W-SW 240 ° 0 min 0 W/m² -1,1 °C -6,9 °C 25,7 km/h (4 Bft)
03.01.2025 18:46 21,3 °C 1,1 °C 48 % 86 % 1014,3 hPa 0,0 l/m² 22,7 km/h (4 Bft) SW 233 ° 0 min 0 W/m² -1,0 °C -9,4 °C 33,8 km/h (5 Bft)
03.01.2025 18:47 21,3 °C 1,1 °C 48 % 85 % 1014,3 hPa 0,0 l/m² 15,4 km/h (3 Bft) W-SW 248 ° 0 min 0 W/m² -1,1 °C -5,9 °C 22,5 km/h (4 Bft)
03.01.2025 18:48 21,3 °C 1,1 °C 49 % 85 % 1014,3 hPa 0,0 l/m² 14,1 km/h (3 Bft) SW 230 ° 0 min 0 W/m² -1,1 °C -5,1 °C 19,3 km/h (3 Bft)
03.01.2025 18:49 21,3 °C 1,1 °C 49 % 85 % 1014,3 hPa 0,0 l/m² 14,3 km/h (3 Bft) SW 223 ° 0 min 0 W/m² -1,1 °C -5,2 °C 22,5 km/h (4 Bft)
03.01.2025 18:52 21,3 °C 1,1 °C 49 % 86 % 1014,4 hPa 0,0 l/m² 16,7 km/h (3 Bft) SW 232 ° 0 min 0 W/m² -1,0 °C -6,6 °C 25,7 km/h (4 Bft)
03.01.2025 18:53 21,3 °C 1,1 °C 49 % 86 % 1014,4 hPa 0,0 l/m² 13,2 km/h (3 Bft) SW 223 ° 0 min 0 W/m² -1,0 °C -4,5 °C 19,3 km/h (3 Bft)
03.01.2025 18:54 21,3 °C 1,1 °C 49 % 86 % 1014,4 hPa 0,0 l/m² 15,4 km/h (3 Bft) SW 236 ° 0 min 0 W/m² -1,0 °C -5,9 °C 20,9 km/h (4 Bft)
03.01.2025 18:55 21,3 °C 1,1 °C 49 % 86 % 1014,4 hPa 0,0 l/m² 16,3 km/h (3 Bft) S-SW 211 ° 0 min 0 W/m² -1,0 °C -6,4 °C 19,3 km/h (3 Bft)
03.01.2025 18:56 21,3 °C 1,1 °C 49 % 86 % 1014,4 hPa 0,0 l/m² 19,4 km/h (3 Bft) SW 217 ° 0 min 0 W/m² -1,0 °C -7,9 °C 24,1 km/h (4 Bft)
03.01.2025 18:57 21,3 °C 1,1 °C 49 % 86 % 1014,4 hPa 0,0 l/m² 15,8 km/h (3 Bft) SW 223 ° 0 min 0 W/m² -1,0 °C -6,1 °C 19,3 km/h (3 Bft)
03.01.2025 18:58 21,3 °C 1,1 °C 49 % 86 % 1014,4 hPa 0,0 l/m² 18,8 km/h (3 Bft) SW 225 ° 0 min 0 W/m² -1,0 °C -7,7 °C 27,4 km/h (5 Bft)
03.01.2025 18:59 21,3 °C 1,0 °C 49 % 86 % 1014,4 hPa 0,0 l/m² 17,7 km/h (3 Bft) W-SW 240 ° 0 min 0 W/m² -1,1 °C -7,2 °C 27,4 km/h (5 Bft)
03.01.2025 19:02 21,3 °C 1,0 °C 49 % 86 % 1014,4 hPa 0,0 l/m² 17,8 km/h (3 Bft) SW 219 ° 0 min 0 W/m² -1,1 °C -7,3 °C 25,7 km/h (4 Bft)
03.01.2025 19:03 21,3 °C 1,0 °C 49 % 86 % 1014,4 hPa 0,0 l/m² 16,7 km/h (3 Bft) SW 219 ° 0 min 0 W/m² -1,1 °C -6,7 °C 24,1 km/h (4 Bft)
03.01.2025 19:04 21,3 °C 1,0 °C 49 % 86 % 1014,4 hPa 0,0 l/m² 15,9 km/h (3 Bft) SW 226 ° 0 min 0 W/m² -1,1 °C -6,3 °C 20,9 km/h (4 Bft)
03.01.2025 19:05 21,3 °C 1,0 °C 49 % 86 % 1014,3 hPa 0,0 l/m² 17,2 km/h (3 Bft) SW 228 ° 0 min 0 W/m² -1,1 °C -7,0 °C 20,9 km/h (4 Bft)
03.01.2025 19:06 21,3 °C 0,9 °C 49 % 87 % 1014,4 hPa 0,0 l/m² 21,7 km/h (4 Bft) W-SW 239 ° 0 min 0 W/m² -1,0 °C -9,2 °C 30,6 km/h (5 Bft)
03.01.2025 19:07 21,3 °C 1,0 °C 49 % 87 % 1014,4 hPa 0,0 l/m² 18,8 km/h (3 Bft) SW 228 ° 0 min 0 W/m² -0,9 °C -7,8 °C 22,5 km/h (4 Bft)
03.01.2025 19:08 21,3 °C 0,9 °C 49 % 87 % 1014,4 hPa 0,0 l/m² 18,7 km/h (3 Bft) SW 230 ° 0 min 0 W/m² -1,0 °C -7,9 °C 32,2 km/h (5 Bft)
03.01.2025 19:09 21,3 °C 0,9 °C 49 % 87 % 1014,4 hPa 0,0 l/m² 17,4 km/h (3 Bft) SW 229 ° 0 min 0 W/m² -1,0 °C -7,2 °C 25,7 km/h (4 Bft)
03.01.2025 19:11 21,3 °C 0,9 °C 49 % 87 % 1014,4 hPa 0,0 l/m² 15,7 km/h (3 Bft) SW 225 ° 0 min 0 W/m² -1,0 °C -6,3 °C 24,1 km/h (4 Bft)
03.01.2025 19:14 21,3 °C 0,9 °C 49 % 87 % 1014,5 hPa 0,0 l/m² 17,9 km/h (3 Bft) S-SW 207 ° 0 min 0 W/m² -1,0 °C -7,5 °C 29,0 km/h (5 Bft)
03.01.2025 19:15 21,3 °C 0,8 °C 49 % 87 % 1014,5 hPa 0,0 l/m² 15,2 km/h (3 Bft) SW 223 ° 0 min 0 W/m² -1,1 °C -6,1 °C 20,9 km/h (4 Bft)
03.01.2025 19:16 21,3 °C 0,8 °C 49 % 87 % 1014,4 hPa 0,0 l/m² 17,2 km/h (3 Bft) W-SW 242 ° 0 min 0 W/m² -1,1 °C -7,2 °C 22,5 km/h (4 Bft)
03.01.2025 19:17 21,3 °C 0,8 °C 49 % 87 % 1014,4 hPa 0,0 l/m² 16,4 km/h (3 Bft) SW 219 ° 0 min 0 W/m² -1,1 °C -6,8 °C 22,5 km/h (4 Bft)
03.01.2025 19:18 21,3 °C 0,8 °C 49 % 87 % 1014,5 hPa 0,0 l/m² 17,4 km/h (3 Bft) SW 221 ° 0 min 0 W/m² -1,1 °C -7,3 °C 24,1 km/h (4 Bft)
03.01.2025 19:19 21,3 °C 0,8 °C 49 % 87 % 1014,5 hPa 0,0 l/m² 15,8 km/h (3 Bft) SW 221 ° 0 min 0 W/m² -1,1 °C -6,5 °C 22,5 km/h (4 Bft)
03.01.2025 19:22 21,3 °C 0,7 °C 49 % 87 % 1014,5 hPa 0,0 l/m² 18,4 km/h (3 Bft) SW 217 ° 0 min 0 W/m² -1,2 °C -8,0 °C 30,6 km/h (5 Bft)
03.01.2025 19:23 21,3 °C 0,7 °C 49 % 87 % 1014,6 hPa 0,0 l/m² 15,2 km/h (3 Bft) SW 217 ° 0 min 0 W/m² -1,2 °C -6,3 °C 22,5 km/h (4 Bft)
03.01.2025 19:24 21,3 °C 0,7 °C 49 % 87 % 1014,6 hPa 0,0 l/m² 16,2 km/h (3 Bft) W-SW 252 ° 0 min 0 W/m² -1,2 °C -6,8 °C 24,1 km/h (4 Bft)
03.01.2025 19:25 21,3 °C 0,7 °C 49 % 88 % 1014,6 hPa 0,0 l/m² 15,7 km/h (3 Bft) W-SW 247 ° 0 min 0 W/m² -1,1 °C -6,5 °C 25,7 km/h (4 Bft)
03.01.2025 19:26 21,3 °C 0,7 °C 49 % 87 % 1014,6 hPa 0,0 l/m² 19,5 km/h (3 Bft) W-SW 250 ° 0 min 0 W/m² -1,2 °C -8,5 °C 25,7 km/h (4 Bft)
03.01.2025 19:27 21,3 °C 0,7 °C 49 % 88 % 1014,7 hPa 0,0 l/m² 21,4 km/h (4 Bft) W-SW 239 ° 0 min 0 W/m² -1,1 °C -9,3 °C 30,6 km/h (5 Bft)
03.01.2025 19:28 21,3 °C 0,7 °C 50 % 88 % 1014,7 hPa 0,0 l/m² 21,9 km/h (4 Bft) SW 232 ° 0 min 0 W/m² -1,1 °C -9,6 °C 27,4 km/h (5 Bft)
03.01.2025 19:29 21,3 °C 0,7 °C 50 % 87 % 1014,7 hPa 0,0 l/m² 20,4 km/h (4 Bft) SW 232 ° 0 min 0 W/m² -1,2 °C -8,9 °C 25,7 km/h (4 Bft)
03.01.2025 19:32 21,3 °C 0,7 °C 50 % 88 % 1014,7 hPa 0,0 l/m² 19,1 km/h (3 Bft) SW 221 ° 0 min 0 W/m² -1,1 °C -8,3 °C 27,4 km/h (5 Bft)
03.01.2025 19:33 21,3 °C 0,7 °C 50 % 88 % 1014,6 hPa 0,0 l/m² 16,9 km/h (3 Bft) SW 232 ° 0 min 0 W/m² -1,1 °C -7,2 °C 25,7 km/h (4 Bft)
03.01.2025 19:34 21,3 °C 0,7 °C 50 % 88 % 1014,6 hPa 0,0 l/m² 18,0 km/h (3 Bft) W-SW 238 ° 0 min 0 W/m² -1,1 °C -7,8 °C 25,7 km/h (4 Bft)
03.01.2025 19:35 21,3 °C 0,7 °C 50 % 88 % 1014,8 hPa 0,0 l/m² 16,4 km/h (3 Bft) SW 223 ° 0 min 0 W/m² -1,1 °C -6,9 °C 24,1 km/h (4 Bft)
03.01.2025 19:36 21,3 °C 0,7 °C 50 % 88 % 1014,7 hPa 0,0 l/m² 18,7 km/h (3 Bft) SW 227 ° 0 min 0 W/m² -1,1 °C -8,1 °C 24,1 km/h (4 Bft)
03.01.2025 19:37 21,3 °C 0,6 °C 50 % 88 % 1014,7 hPa 0,0 l/m² 19,2 km/h (3 Bft) W-SW 243 ° 0 min 0 W/m² -1,2 °C -8,5 °C 22,5 km/h (4 Bft)
03.01.2025 19:38 21,3 °C 0,7 °C 50 % 88 % 1014,7 hPa 0,0 l/m² 16,3 km/h (3 Bft) SW 217 ° 0 min 0 W/m² -1,1 °C -6,9 °C 20,9 km/h (4 Bft)
03.01.2025 19:39 21,4 °C 0,6 °C 50 % 88 % 1014,8 hPa 0,0 l/m² 18,2 km/h (3 Bft) W-SW 253 ° 0 min 0 W/m² -1,2 °C -8,0 °C 27,4 km/h (5 Bft)
03.01.2025 19:42 21,3 °C 0,6 °C 50 % 88 % 1014,8 hPa 0,0 l/m² 18,3 km/h (3 Bft) SW 232 ° 0 min 0 W/m² -1,2 °C -8,0 °C 27,4 km/h (5 Bft)
03.01.2025 19:43 21,3 °C 0,6 °C 50 % 88 % 1014,9 hPa 0,0 l/m² 17,0 km/h (3 Bft) SW 225 ° 0 min 0 W/m² -1,2 °C -7,4 °C 22,5 km/h (4 Bft)
03.01.2025 19:44 21,3 °C 0,6 °C 50 % 88 % 1014,9 hPa 0,0 l/m² 19,3 km/h (3 Bft) SW 225 ° 0 min 0 W/m² -1,2 °C -8,5 °C 25,7 km/h (4 Bft)
03.01.2025 19:45 21,4 °C 0,6 °C 50 % 88 % 1015,0 hPa 0,0 l/m² 18,4 km/h (3 Bft) SW 223 ° 0 min 0 W/m² -1,2 °C -8,1 °C 22,5 km/h (4 Bft)
03.01.2025 19:46 21,4 °C 0,6 °C 50 % 88 % 1014,8 hPa 0,0 l/m² 14,8 km/h (3 Bft) W-SW 245 ° 0 min 0 W/m² -1,2 °C -6,1 °C 20,9 km/h (4 Bft)
03.01.2025 19:47 21,4 °C 0,6 °C 50 % 88 % 1014,9 hPa 0,0 l/m² 13,8 km/h (3 Bft) SW 227 ° 0 min 0 W/m² -1,2 °C -5,5 °C 19,3 km/h (3 Bft)
03.01.2025 19:48 21,4 °C 0,6 °C 50 % 88 % 1014,9 hPa 0,0 l/m² 14,1 km/h (3 Bft) SW 229 ° 0 min 0 W/m² -1,2 °C -5,7 °C 20,9 km/h (4 Bft)
03.01.2025 19:49 21,4 °C 0,6 °C 50 % 88 % 1014,9 hPa 0,0 l/m² 16,4 km/h (3 Bft) SW 220 ° 0 min 0 W/m² -1,2 °C -7,1 °C 20,9 km/h (4 Bft)
03.01.2025 19:52 21,4 °C 0,6 °C 49 % 88 % 1015,0 hPa 0,0 l/m² 13,8 km/h (3 Bft) SW 219 ° 0 min 0 W/m² -1,2 °C -5,5 °C 20,9 km/h (4 Bft)
03.01.2025 19:53 21,4 °C 0,6 °C 50 % 88 % 1015,0 hPa 0,0 l/m² 13,4 km/h (3 Bft) SW 234 ° 0 min 0 W/m² -1,2 °C -5,3 °C 17,7 km/h (3 Bft)
03.01.2025 19:54 21,4 °C 0,5 °C 50 % 88 % 1015,0 hPa 0,0 l/m² 15,3 km/h (3 Bft) W-SW 237 ° 0 min 0 W/m² -1,3 °C -6,6 °C 22,5 km/h (4 Bft)
03.01.2025 19:55 21,4 °C 0,5 °C 50 % 88 % 1015,0 hPa 0,0 l/m² 11,8 km/h (2 Bft) SW 231 ° 0 min 0 W/m² -1,3 °C -4,3 °C 16,1 km/h (3 Bft)
03.01.2025 19:56 21,4 °C 0,5 °C 50 % 88 % 1015,0 hPa 0,0 l/m² 12,1 km/h (2 Bft) SW 216 ° 0 min 0 W/m² -1,3 °C -4,5 °C 16,1 km/h (3 Bft)
03.01.2025 19:57 21,4 °C 0,5 °C 50 % 88 % 1015,0 hPa 0,0 l/m² 11,3 km/h (2 Bft) SW 229 ° 0 min 0 W/m² -1,3 °C -3,9 °C 17,7 km/h (3 Bft)
03.01.2025 19:58 21,4 °C 0,5 °C 50 % 88 % 1015,1 hPa 0,0 l/m² 13,9 km/h (3 Bft) S-SW 213 ° 0 min 0 W/m² -1,3 °C -5,7 °C 19,3 km/h (3 Bft)
03.01.2025 19:59 21,4 °C 0,5 °C 50 % 88 % 1015,1 hPa 0,0 l/m² 18,7 km/h (3 Bft) SW 220 ° 0 min 0 W/m² -1,3 °C -8,4 °C 24,1 km/h (4 Bft)
03.01.2025 20:01 21,4 °C 0,5 °C 50 % 88 % 1015,1 hPa 0,0 l/m² 13,7 km/h (3 Bft) SW 218 ° 0 min 0 W/m² -1,3 °C -5,6 °C 24,1 km/h (4 Bft)
03.01.2025 20:02 21,4 °C 0,4 °C 50 % 88 % 1015,1 hPa 0,0 l/m² 15,7 km/h (3 Bft) SW 217 ° 0 min 0 W/m² -1,3 °C -6,9 °C 20,9 km/h (4 Bft)
03.01.2025 20:03 21,4 °C 0,5 °C 50 % 88 % 1015,1 hPa 0,0 l/m² 15,9 km/h (3 Bft) S-SW 213 ° 0 min 0 W/m² -1,3 °C -6,9 °C 19,3 km/h (3 Bft)
03.01.2025 20:04 21,5 °C 0,5 °C 50 % 88 % 1015,2 hPa 0,0 l/m² 16,6 km/h (3 Bft) S-SW 213 ° 0 min 0 W/m² -1,3 °C -7,3 °C 22,5 km/h (4 Bft)
03.01.2025 20:05 21,5 °C 0,5 °C 50 % 88 % 1015,2 hPa 0,0 l/m² 16,7 km/h (3 Bft) SW 224 ° 0 min 0 W/m² -1,3 °C -7,3 °C 20,9 km/h (4 Bft)
03.01.2025 20:07 21,5 °C 0,4 °C 50 % 88 % 1015,3 hPa 0,0 l/m² 17,2 km/h (3 Bft) SW 221 ° 0 min 0 W/m² -1,3 °C -7,7 °C 22,5 km/h (4 Bft)
03.01.2025 20:08 21,5 °C 0,5 °C 50 % 88 % 1015,3 hPa 0,0 l/m² 13,2 km/h (3 Bft) W-SW 240 ° 0 min 0 W/m² -1,3 °C -5,2 °C 17,7 km/h (3 Bft)
03.01.2025 20:09 21,5 °C 0,5 °C 50 % 88 % 1015,2 hPa 0,0 l/m² 19,4 km/h (3 Bft) S-SW 212 ° 0 min 0 W/m² -1,3 °C -8,7 °C 24,1 km/h (4 Bft)
03.01.2025 20:12 21,6 °C 0,5 °C 50 % 88 % 1015,3 hPa 0,0 l/m² 14,9 km/h (3 Bft) SW 224 ° 0 min 0 W/m² -1,3 °C -6,3 °C 20,9 km/h (4 Bft)
03.01.2025 20:13 21,6 °C 0,5 °C 50 % 88 % 1015,3 hPa 0,0 l/m² 9,4 km/h (2 Bft) SW 229 ° 0 min 0 W/m² -1,3 °C -2,4 °C 12,9 km/h (3 Bft)
03.01.2025 20:14 21,6 °C 0,6 °C 50 % 88 % 1015,3 hPa 0,0 l/m² 11,4 km/h (2 Bft) SW 221 ° 0 min 0 W/m² -1,2 °C -3,9 °C 16,1 km/h (3 Bft)
03.01.2025 20:15 21,6 °C 0,6 °C 50 % 88 % 1015,4 hPa 0,0 l/m² 13,7 km/h (3 Bft) W-SW 237 ° 0 min 0 W/m² -1,2 °C -5,5 °C 19,3 km/h (3 Bft)
03.01.2025 20:16 21,6 °C 0,6 °C 50 % 88 % 1015,4 hPa 0,0 l/m² 13,8 km/h (3 Bft) SW 226 ° 0 min 0 W/m² -1,2 °C -5,5 °C 19,3 km/h (3 Bft)
03.01.2025 20:17 21,6 °C 0,5 °C 50 % 88 % 1015,4 hPa 0,0 l/m² 13,7 km/h (3 Bft) SW 225 ° 0 min 0 W/m² -1,3 °C -5,6 °C 19,3 km/h (3 Bft)
03.01.2025 20:18 21,6 °C 0,6 °C 50 % 88 % 1015,4 hPa 0,0 l/m² 13,9 km/h (3 Bft) SW 224 ° 0 min 0 W/m² -1,2 °C -5,6 °C 17,7 km/h (3 Bft)
03.01.2025 20:19 21,6 °C 0,6 °C 50 % 88 % 1015,4 hPa 0,0 l/m² 14,2 km/h (3 Bft) SW 236 ° 0 min 0 W/m² -1,2 °C -5,8 °C 19,3 km/h (3 Bft)
03.01.2025 20:22 21,6 °C 0,6 °C 50 % 88 % 1015,5 hPa 0,0 l/m² 18,1 km/h (3 Bft) SW 236 ° 0 min 0 W/m² -1,2 °C -7,9 °C 25,7 km/h (4 Bft)
03.01.2025 20:23 21,6 °C 0,6 °C 50 % 88 % 1015,5 hPa 0,0 l/m² 18,3 km/h (3 Bft) W-SW 246 ° 0 min 0 W/m² -1,2 °C -8,0 °C 22,5 km/h (4 Bft)
03.01.2025 20:24 21,6 °C 0,6 °C 50 % 88 % 1015,5 hPa 0,0 l/m² 11,0 km/h (2 Bft) W-SW 254 ° 0 min 0 W/m² -1,2 °C -3,6 °C 17,7 km/h (3 Bft)
03.01.2025 20:25 21,6 °C 0,6 °C 50 % 88 % 1015,7 hPa 0,0 l/m² 11,7 km/h (2 Bft) W 281 ° 0 min 0 W/m² -1,2 °C -4,1 °C 14,5 km/h (3 Bft)
03.01.2025 20:26 21,7 °C 0,6 °C 51 % 88 % 1015,9 hPa 0,0 l/m² 13,1 km/h (3 Bft) NW 317 ° 0 min 0 W/m² -1,2 °C -5,1 °C 17,7 km/h (3 Bft)
03.01.2025 20:27 21,6 °C 0,6 °C 51 % 88 % 1015,9 hPa 0,0 l/m² 11,5 km/h (2 Bft) NW 313 ° 0 min 0 W/m² -1,2 °C -3,9 °C 17,7 km/h (3 Bft)
03.01.2025 20:28 21,7 °C 0,6 °C 51 % 88 % 1015,9 hPa 0,0 l/m² 6,1 km/h (2 Bft) W-NW 300 ° 0 min 0 W/m² -1,2 °C 0,6 °C 11,3 km/h (2 Bft)
03.01.2025 20:29 21,7 °C 0,6 °C 51 % 88 % 1016,0 hPa 0,0 l/m² 7,3 km/h (2 Bft) W-NW 295 ° 0 min 0 W/m² -1,2 °C -0,3 °C 16,1 km/h (3 Bft)
03.01.2025 20:32 21,6 °C 0,6 °C 51 % 88 % 1016,0 hPa 0,0 l/m² 13,2 km/h (3 Bft) N-NW 327 ° 0 min 0 W/m² -1,2 °C -5,1 °C 25,7 km/h (4 Bft)
03.01.2025 20:33 21,7 °C 0,6 °C 51 % 88 % 1016,1 hPa 0,0 l/m² 6,7 km/h (2 Bft) W-NW 291 ° 0 min 0 W/m² -1,2 °C 0,3 °C 12,9 km/h (3 Bft)
03.01.2025 20:34 21,7 °C 0,6 °C 51 % 88 % 1016,1 hPa 0,0 l/m² 16,7 km/h (3 Bft) NW 310 ° 0 min 0 W/m² -1,2 °C -7,2 °C 25,7 km/h (4 Bft)
03.01.2025 20:35 21,7 °C 0,6 °C 51 % 88 % 1016,0 hPa 0,0 l/m² 11,9 km/h (2 Bft) NW 310 ° 0 min 0 W/m² -1,2 °C -4,2 °C 16,1 km/h (3 Bft)
03.01.2025 20:36 21,7 °C 0,6 °C 51 % 88 % 1016,0 hPa 0,0 l/m² 8,0 km/h (2 Bft) N-NW 333 ° 0 min 0 W/m² -1,2 °C -1,0 °C 11,3 km/h (2 Bft)
03.01.2025 20:37 21,7 °C 0,6 °C 51 % 88 % 1016,0 hPa 0,0 l/m² 10,4 km/h (2 Bft) W 279 ° 0 min 0 W/m² -1,2 °C -3,1 °C 17,7 km/h (3 Bft)
03.01.2025 20:38 21,7 °C 0,6 °C 51 % 87 % 1016,0 hPa 0,0 l/m² 6,9 km/h (2 Bft) NW 305 ° 0 min 0 W/m² -1,3 °C 0,1 °C 12,9 km/h (3 Bft)
03.01.2025 20:39 21,7 °C 0,6 °C 51 % 87 % 1016,0 hPa 0,0 l/m² 8,6 km/h (2 Bft) W 279 ° 0 min 0 W/m² -1,3 °C -1,6 °C 12,9 km/h (3 Bft)
03.01.2025 20:42 21,7 °C 0,6 °C 51 % 87 % 1016,1 hPa 0,0 l/m² 7,9 km/h (2 Bft) NW 319 ° 0 min 0 W/m² -1,3 °C -0,9 °C 16,1 km/h (3 Bft)
03.01.2025 20:43 21,7 °C 0,6 °C 51 % 87 % 1016,1 hPa 0,0 l/m² 11,6 km/h (2 Bft) W 278 ° 0 min 0 W/m² -1,3 °C -4,0 °C 16,1 km/h (3 Bft)
03.01.2025 20:44 21,7 °C 0,6 °C 51 % 87 % 1016,1 hPa 0,0 l/m² 12,4 km/h (2 Bft) NW 321 ° 0 min 0 W/m² -1,3 °C -4,6 °C 17,7 km/h (3 Bft)
03.01.2025 20:45 21,7 °C 0,6 °C 51 % 87 % 1016,1 hPa 0,0 l/m² 10,2 km/h (2 Bft) W-NW 298 ° 0 min 0 W/m² -1,3 °C -2,9 °C 17,7 km/h (3 Bft)
03.01.2025 20:46 21,7 °C 0,5 °C 51 % 87 % 1016,2 hPa 0,0 l/m² 13,1 km/h (3 Bft) NW 317 ° 0 min 0 W/m² -1,4 °C -5,2 °C 19,3 km/h (3 Bft)
03.01.2025 20:47 21,7 °C 0,5 °C 51 % 87 % 1016,2 hPa 0,0 l/m² 12,2 km/h (2 Bft) W-NW 294 ° 0 min 0 W/m² -1,4 °C -4,6 °C 16,1 km/h (3 Bft)
03.01.2025 20:48 21,7 °C 0,6 °C 51 % 87 % 1016,1 hPa 0,0 l/m² 11,0 km/h (2 Bft) W 279 ° 0 min 0 W/m² -1,3 °C -3,6 °C 16,1 km/h (3 Bft)
03.01.2025 20:49 21,7 °C 0,5 °C 51 % 87 % 1016,2 hPa 0,0 l/m² 12,1 km/h (2 Bft) W-NW 288 ° 0 min 0 W/m² -1,4 °C -4,5 °C 14,5 km/h (3 Bft)
03.01.2025 20:52 21,8 °C 0,4 °C 51 % 87 % 1016,2 hPa 0,0 l/m² 15,9 km/h (3 Bft) W 267 ° 0 min 0 W/m² -1,5 °C -7,0 °C 20,9 km/h (4 Bft)
03.01.2025 20:53 21,8 °C 0,5 °C 51 % 87 % 1016,3 hPa 0,0 l/m² 12,6 km/h (3 Bft) W 265 ° 0 min 0 W/m² -1,4 °C -4,8 °C 17,7 km/h (3 Bft)
03.01.2025 20:54 21,8 °C 0,5 °C 51 % 87 % 1016,3 hPa 0,0 l/m² 10,9 km/h (2 Bft) W 260 ° 0 min 0 W/m² -1,4 °C -3,6 °C 16,1 km/h (3 Bft)
03.01.2025 20:55 21,8 °C 0,5 °C 51 % 87 % 1016,3 hPa 0,0 l/m² 11,1 km/h (2 Bft) SW 235 ° 0 min 0 W/m² -1,4 °C -3,8 °C 17,7 km/h (3 Bft)
03.01.2025 20:56 21,8 °C 0,5 °C 51 % 87 % 1016,3 hPa 0,0 l/m² 12,0 km/h (2 Bft) W-SW 254 ° 0 min 0 W/m² -1,4 °C -4,4 °C 16,1 km/h (3 Bft)
03.01.2025 20:57 21,8 °C 0,5 °C 51 % 86 % 1016,3 hPa 0,0 l/m² 13,9 km/h (3 Bft) W 261 ° 0 min 0 W/m² -1,6 °C -5,7 °C 17,7 km/h (3 Bft)
03.01.2025 20:58 21,8 °C 0,5 °C 51 % 86 % 1016,4 hPa 0,0 l/m² 12,9 km/h (3 Bft) W 261 ° 0 min 0 W/m² -1,6 °C -5,0 °C 16,1 km/h (3 Bft)
03.01.2025 20:59 21,8 °C 0,5 °C 51 % 86 % 1016,4 hPa 0,0 l/m² 12,3 km/h (2 Bft) W-SW 257 ° 0 min 0 W/m² -1,6 °C -4,6 °C 14,5 km/h (3 Bft)
03.01.2025 21:01 21,8 °C 0,6 °C 51 % 86 % 1016,4 hPa 0,0 l/m² 12,7 km/h (3 Bft) W-SW 255 ° 0 min 0 W/m² -1,5 °C -4,8 °C 20,9 km/h (4 Bft)
03.01.2025 21:02 21,8 °C 0,5 °C 51 % 86 % 1016,4 hPa 0,0 l/m² 17,8 km/h (3 Bft) W 259 ° 0 min 0 W/m² -1,6 °C -7,9 °C 24,1 km/h (4 Bft)
03.01.2025 21:03 21,8 °C 0,5 °C 51 % 86 % 1016,4 hPa 0,0 l/m² 14,0 km/h (3 Bft) W-SW 251 ° 0 min 0 W/m² -1,6 °C -5,8 °C 17,7 km/h (3 Bft)
03.01.2025 21:04 21,8 °C 0,6 °C 51 % 86 % 1016,5 hPa 0,0 l/m² 12,1 km/h (2 Bft) W-SW 240 ° 0 min 0 W/m² -1,5 °C -4,4 °C 16,1 km/h (3 Bft)
03.01.2025 21:05 21,8 °C 0,6 °C 51 % 86 % 1016,4 hPa 0,0 l/m² 13,9 km/h (3 Bft) W 266 ° 0 min 0 W/m² -1,5 °C -5,6 °C 19,3 km/h (3 Bft)
03.01.2025 21:06 21,8 °C 0,6 °C 51 % 86 % 1016,4 hPa 0,0 l/m² 13,1 km/h (3 Bft) W 259 ° 0 min 0 W/m² -1,5 °C -5,1 °C 17,7 km/h (3 Bft)
03.01.2025 21:07 21,8 °C 0,6 °C 51 % 86 % 1016,4 hPa 0,0 l/m² 11,2 km/h (2 Bft) W 259 ° 0 min 0 W/m² -1,5 °C -3,7 °C 16,1 km/h (3 Bft)
03.01.2025 21:08 21,8 °C 0,6 °C 51 % 86 % 1016,4 hPa 0,0 l/m² 12,6 km/h (3 Bft) W 270 ° 0 min 0 W/m² -1,5 °C -4,7 °C 17,7 km/h (3 Bft)
03.01.2025 21:09 21,8 °C 0,6 °C 51 % 86 % 1016,4 hPa 0,0 l/m² 11,0 km/h (2 Bft) W 268 ° 0 min 0 W/m² -1,5 °C -3,6 °C 14,5 km/h (3 Bft)
03.01.2025 21:11 21,8 °C 0,6 °C 51 % 85 % 1016,4 hPa 0,0 l/m² 11,3 km/h (2 Bft) W 273 ° 0 min 0 W/m² -1,6 °C -3,8 °C 16,1 km/h (3 Bft)
03.01.2025 21:13 21,8 °C 0,7 °C 51 % 85 % 1016,4 hPa 0,0 l/m² 12,3 km/h (2 Bft) W-SW 253 ° 0 min 0 W/m² -1,5 °C -4,4 °C 17,7 km/h (3 Bft)
03.01.2025 21:14 21,8 °C 0,7 °C 51 % 85 % 1016,5 hPa 0,0 l/m² 14,9 km/h (3 Bft) W-SW 238 ° 0 min 0 W/m² -1,5 °C -6,1 °C 19,3 km/h (3 Bft)
03.01.2025 21:15 21,9 °C 0,7 °C 51 % 85 % 1016,5 hPa 0,0 l/m² 11,0 km/h (2 Bft) W-SW 238 ° 0 min 0 W/m² -1,5 °C -3,5 °C 14,5 km/h (3 Bft)
03.01.2025 21:16 21,9 °C 0,7 °C 51 % 85 % 1016,4 hPa 0,0 l/m² 9,8 km/h (2 Bft) S-SW 213 ° 0 min 0 W/m² -1,5 °C -2,5 °C 12,9 km/h (3 Bft)
03.01.2025 21:17 21,9 °C 0,7 °C 51 % 85 % 1016,4 hPa 0,0 l/m² 9,4 km/h (2 Bft) SW 221 ° 0 min 0 W/m² -1,5 °C -2,2 °C 14,5 km/h (3 Bft)
03.01.2025 21:18 21,9 °C 0,7 °C 51 % 85 % 1016,5 hPa 0,0 l/m² 8,2 km/h (2 Bft) SW 229 ° 0 min 0 W/m² -1,5 °C -1,1 °C 11,3 km/h (2 Bft)
03.01.2025 21:19 21,9 °C 0,7 °C 51 % 85 % 1016,4 hPa 0,0 l/m² 6,7 km/h (2 Bft) SW 227 ° 0 min 0 W/m² -1,5 °C 0,4 °C 11,3 km/h (2 Bft)
03.01.2025 21:21 21,9 °C 0,7 °C 51 % 85 % 1016,5 hPa 0,0 l/m² 10,0 km/h (2 Bft) SW 228 ° 0 min 0 W/m² -1,5 °C -2,7 °C 14,5 km/h (3 Bft)
03.01.2025 21:23 21,9 °C 0,6 °C 51 % 85 % 1016,5 hPa 0,0 l/m² 8,9 km/h (2 Bft) SW 236 ° 0 min 0 W/m² -1,6 °C -1,8 °C 14,5 km/h (3 Bft)
03.01.2025 21:24 21,9 °C 0,6 °C 51 % 85 % 1016,5 hPa 0,0 l/m² 11,8 km/h (2 Bft) W-SW 237 ° 0 min 0 W/m² -1,6 °C -4,2 °C 16,1 km/h (3 Bft)
03.01.2025 21:25 21,9 °C 0,6 °C 51 % 85 % 1016,5 hPa 0,0 l/m² 12,6 km/h (3 Bft) SW 233 ° 0 min 0 W/m² -1,6 °C -4,7 °C 16,1 km/h (3 Bft)
03.01.2025 21:26 21,9 °C 0,6 °C 51 % 85 % 1016,5 hPa 0,0 l/m² 11,1 km/h (2 Bft) SW 231 ° 0 min 0 W/m² -1,6 °C -3,7 °C 16,1 km/h (3 Bft)
03.01.2025 21:27 21,9 °C 0,6 °C 51 % 85 % 1016,5 hPa 0,0 l/m² 10,1 km/h (2 Bft) SW 232 ° 0 min 0 W/m² -1,6 °C -2,9 °C 12,9 km/h (3 Bft)
03.01.2025 21:28 21,9 °C 0,6 °C 51 % 85 % 1016,4 hPa 0,0 l/m² 13,6 km/h (3 Bft) SW 231 ° 0 min 0 W/m² -1,6 °C -5,4 °C 17,7 km/h (3 Bft)
03.01.2025 21:29 21,9 °C 0,6 °C 51 % 85 % 1016,5 hPa 0,0 l/m² 12,0 km/h (2 Bft) SW 219 ° 0 min 0 W/m² -1,6 °C -4,3 °C 16,1 km/h (3 Bft)
03.01.2025 21:31 21,9 °C 0,6 °C 51 % 85 % 1016,5 hPa 0,0 l/m² 11,2 km/h (2 Bft) SW 234 ° 0 min 0 W/m² -1,6 °C -3,7 °C 16,1 km/h (3 Bft)
03.01.2025 21:33 21,9 °C 0,5 °C 51 % 85 % 1016,5 hPa 0,0 l/m² 13,6 km/h (3 Bft) SW 229 ° 0 min 0 W/m² -1,7 °C -5,5 °C 17,7 km/h (3 Bft)
03.01.2025 21:34 22,0 °C 0,5 °C 51 % 85 % 1016,5 hPa 0,0 l/m² 13,4 km/h (3 Bft) SW 236 ° 0 min 0 W/m² -1,7 °C -5,4 °C 17,7 km/h (3 Bft)
03.01.2025 21:35 22,0 °C 0,5 °C 51 % 85 % 1016,5 hPa 0,0 l/m² 13,3 km/h (3 Bft) SW 236 ° 0 min 0 W/m² -1,7 °C -5,3 °C 17,7 km/h (3 Bft)
03.01.2025 21:36 22,0 °C 0,5 °C 51 % 85 % 1016,6 hPa 0,0 l/m² 12,9 km/h (3 Bft) W-SW 244 ° 0 min 0 W/m² -1,7 °C -5,0 °C 16,1 km/h (3 Bft)
03.01.2025 21:37 22,0 °C 0,5 °C 51 % 85 % 1016,5 hPa 0,0 l/m² 12,7 km/h (3 Bft) SW 234 ° 0 min 0 W/m² -1,7 °C -4,9 °C 16,1 km/h (3 Bft)
03.01.2025 21:38 22,0 °C 0,4 °C 51 % 85 % 1016,6 hPa 0,0 l/m² 10,1 km/h (2 Bft) W-SW 237 ° 0 min 0 W/m² -1,8 °C -3,1 °C 12,9 km/h (3 Bft)
03.01.2025 21:39 22,0 °C 0,5 °C 51 % 85 % 1016,6 hPa 0,0 l/m² 12,6 km/h (3 Bft) SW 233 ° 0 min 0 W/m² -1,7 °C -4,8 °C 16,1 km/h (3 Bft)
03.01.2025 21:41 22,0 °C 0,4 °C 51 % 85 % 1016,6 hPa 0,0 l/m² 13,9 km/h (3 Bft) W-SW 245 ° 0 min 0 W/m² -1,8 °C -5,8 °C 16,1 km/h (3 Bft)
03.01.2025 21:43 22,0 °C 0,4 °C 51 % 85 % 1016,5 hPa 0,0 l/m² 14,4 km/h (3 Bft) W-SW 246 ° 0 min 0 W/m² -1,8 °C -6,1 °C 19,3 km/h (3 Bft)
03.01.2025 21:44 22,0 °C 0,4 °C 51 % 85 % 1016,5 hPa 0,0 l/m² 13,9 km/h (3 Bft) SW 229 ° 0 min 0 W/m² -1,8 °C -5,8 °C 16,1 km/h (3 Bft)
03.01.2025 21:45 22,0 °C 0,4 °C 51 % 85 % 1016,6 hPa 0,0 l/m² 14,9 km/h (3 Bft) SW 235 ° 0 min 0 W/m² -1,8 °C -6,4 °C 16,1 km/h (3 Bft)
03.01.2025 21:46 22,0 °C 0,4 °C 51 % 84 % 1016,6 hPa 0,0 l/m² 13,4 km/h (3 Bft) SW 232 ° 0 min 0 W/m² -2,0 °C -5,5 °C 17,7 km/h (3 Bft)
03.01.2025 21:47 22,0 °C 0,4 °C 51 % 84 % 1016,5 hPa 0,0 l/m² 14,6 km/h (3 Bft) W-SW 241 ° 0 min 0 W/m² -2,0 °C -6,3 °C 19,3 km/h (3 Bft)
03.01.2025 21:48 22,0 °C 0,3 °C 51 % 84 % 1016,6 hPa 0,0 l/m² 15,0 km/h (3 Bft) W-SW 239 ° 0 min 0 W/m² -2,1 °C -6,6 °C 19,3 km/h (3 Bft)
03.01.2025 21:49 22,0 °C 0,3 °C 51 % 84 % 1016,5 hPa 0,0 l/m² 15,5 km/h (3 Bft) SW 234 ° 0 min 0 W/m² -2,1 °C -6,9 °C 17,7 km/h (3 Bft)
03.01.2025 21:51 21,9 °C 0,3 °C 50 % 84 % 1016,5 hPa 0,0 l/m² 14,8 km/h (3 Bft) W-SW 237 ° 0 min 0 W/m² -2,1 °C -6,5 °C 19,3 km/h (3 Bft)
03.01.2025 21:53 21,9 °C 0,3 °C 50 % 84 % 1016,6 hPa 0,0 l/m² 15,1 km/h (3 Bft) SW 236 ° 0 min 0 W/m² -2,1 °C -6,7 °C 19,3 km/h (3 Bft)
03.01.2025 21:54 21,9 °C 0,3 °C 50 % 84 % 1016,6 hPa 0,0 l/m² 15,5 km/h (3 Bft) W-SW 241 ° 0 min 0 W/m² -2,1 °C -6,9 °C 19,3 km/h (3 Bft)
03.01.2025 21:55 21,9 °C 0,2 °C 50 % 84 % 1016,6 hPa 0,0 l/m² 13,2 km/h (3 Bft) SW 231 ° 0 min 0 W/m² -2,2 °C -5,6 °C 16,1 km/h (3 Bft)
03.01.2025 21:56 21,9 °C 0,2 °C 50 % 84 % 1016,6 hPa 0,0 l/m² 15,3 km/h (3 Bft) SW 234 ° 0 min 0 W/m² -2,2 °C -6,9 °C 19,3 km/h (3 Bft)
03.01.2025 21:57 21,9 °C 0,2 °C 50 % 84 % 1016,6 hPa 0,0 l/m² 16,3 km/h (3 Bft) W-SW 242 ° 0 min 0 W/m² -2,2 °C -7,5 °C 20,9 km/h (4 Bft)
03.01.2025 21:58 21,9 °C 0,2 °C 50 % 84 % 1016,5 hPa 0,0 l/m² 15,8 km/h (3 Bft) W-SW 248 ° 0 min 0 W/m² -2,2 °C -7,2 °C 20,9 km/h (4 Bft)
03.01.2025 21:59 21,9 °C 0,1 °C 50 % 84 % 1016,6 hPa 0,0 l/m² 18,0 km/h (3 Bft) W-SW 240 ° 0 min 0 W/m² -2,3 °C -8,5 °C 20,9 km/h (4 Bft)
03.01.2025 22:01 21,9 °C 0,1 °C 50 % 84 % 1016,6 hPa 0,0 l/m² 14,6 km/h (3 Bft) SW 234 ° 0 min 0 W/m² -2,3 °C -6,6 °C 19,3 km/h (3 Bft)
03.01.2025 22:03 21,9 °C 0,1 °C 50 % 84 % 1016,6 hPa 0,0 l/m² 15,5 km/h (3 Bft) SW 234 ° 0 min 0 W/m² -2,3 °C -7,2 °C 22,5 km/h (4 Bft)
03.01.2025 22:04 21,9 °C 0,1 °C 50 % 84 % 1016,6 hPa 0,0 l/m² 15,2 km/h (3 Bft) W-SW 252 ° 0 min 0 W/m² -2,3 °C -7,0 °C 19,3 km/h (3 Bft)
03.01.2025 22:05 21,9 °C 0,1 °C 50 % 84 % 1016,6 hPa 0,0 l/m² 15,0 km/h (3 Bft) W-SW 238 ° 0 min 0 W/m² -2,3 °C -6,9 °C 17,7 km/h (3 Bft)
03.01.2025 22:06 21,9 °C 0,1 °C 50 % 84 % 1016,7 hPa 0,0 l/m² 16,5 km/h (3 Bft) W-SW 248 ° 0 min 0 W/m² -2,3 °C -7,7 °C 20,9 km/h (4 Bft)
03.01.2025 22:07 21,9 °C 0,1 °C 50 % 84 % 1016,7 hPa 0,0 l/m² 14,2 km/h (3 Bft) W-SW 240 ° 0 min 0 W/m² -2,3 °C -6,4 °C 19,3 km/h (3 Bft)
03.01.2025 22:08 21,8 °C 0,0 °C 50 % 84 % 1016,7 hPa 0,0 l/m² 15,1 km/h (3 Bft) W-SW 250 ° 0 min 0 W/m² -2,4 °C -7,0 °C 19,3 km/h (3 Bft)
03.01.2025 22:09 21,9 °C 0,1 °C 50 % 84 % 1016,8 hPa 0,0 l/m² 13,9 km/h (3 Bft) SW 233 ° 0 min 0 W/m² -2,3 °C -6,2 °C 16,1 km/h (3 Bft)
03.01.2025 22:11 21,8 °C 0,1 °C 50 % 84 % 1016,7 hPa 0,0 l/m² 14,2 km/h (3 Bft) W-SW 252 ° 0 min 0 W/m² -2,3 °C -6,4 °C 17,7 km/h (3 Bft)
03.01.2025 22:13 21,8 °C 0,0 °C 50 % 84 % 1016,8 hPa 0,0 l/m² 13,8 km/h (3 Bft) W-SW 238 ° 0 min 0 W/m² -2,4 °C -6,2 °C 16,1 km/h (3 Bft)
03.01.2025 22:14 21,8 °C 0,0 °C 50 % 84 % 1016,8 hPa 0,0 l/m² 14,8 km/h (3 Bft) W-SW 249 ° 0 min 0 W/m² -2,4 °C -6,9 °C 20,9 km/h (4 Bft)
03.01.2025 22:15 21,8 °C 0,0 °C 50 % 83 % 1016,8 hPa 0,0 l/m² 13,0 km/h (3 Bft) W-SW 239 ° 0 min 0 W/m² -2,5 °C -5,7 °C 16,1 km/h (3 Bft)
03.01.2025 22:16 21,8 °C -0,1 °C 50 % 84 % 1016,7 hPa 0,0 l/m² 15,3 km/h (3 Bft) W-SW 240 ° 0 min 0 W/m² -2,5 °C -7,3 °C 19,3 km/h (3 Bft)
03.01.2025 22:17 21,8 °C -0,1 °C 50 % 84 % 1016,7 hPa 0,0 l/m² 13,7 km/h (3 Bft) SW 232 ° 0 min 0 W/m² -2,5 °C -6,3 °C 16,1 km/h (3 Bft)
03.01.2025 22:18 21,8 °C -0,1 °C 50 % 84 % 1016,8 hPa 0,0 l/m² 13,4 km/h (3 Bft) W-SW 243 ° 0 min 0 W/m² -2,5 °C -6,1 °C 17,7 km/h (3 Bft)
03.01.2025 22:19 21,8 °C -0,1 °C 50 % 84 % 1016,8 hPa 0,0 l/m² 14,0 km/h (3 Bft) W-SW 246 ° 0 min 0 W/m² -2,5 °C -6,5 °C 16,1 km/h (3 Bft)
03.01.2025 22:21 21,8 °C -0,1 °C 50 % 84 % 1016,8 hPa 0,0 l/m² 10,0 km/h (2 Bft) W-SW 249 ° 0 min 0 W/m² -2,5 °C -3,6 °C 16,1 km/h (3 Bft)
03.01.2025 22:23 21,8 °C -0,1 °C 50 % 84 % 1016,8 hPa 0,0 l/m² 9,5 km/h (2 Bft) W-SW 250 ° 0 min 0 W/m² -2,5 °C -3,1 °C 12,9 km/h (3 Bft)
03.01.2025 22:24 21,8 °C -0,1 °C 50 % 84 % 1016,9 hPa 0,0 l/m² 7,4 km/h (2 Bft) W-SW 245 ° 0 min 0 W/m² -2,5 °C -1,1 °C 11,3 km/h (2 Bft)
03.01.2025 22:25 21,8 °C -0,2 °C 50 % 84 % 1016,9 hPa 0,0 l/m² 9,3 km/h (2 Bft) W-SW 253 ° 0 min 0 W/m² -2,6 °C -3,1 °C 14,5 km/h (3 Bft)
03.01.2025 22:26 21,8 °C -0,2 °C 50 % 84 % 1016,9 hPa 0,0 l/m² 8,6 km/h (2 Bft) W-SW 254 ° 0 min 0 W/m² -2,6 °C -2,4 °C 12,9 km/h (3 Bft)
03.01.2025 22:27 21,8 °C -0,2 °C 50 % 84 % 1016,9 hPa 0,0 l/m² 11,1 km/h (2 Bft) W 259 ° 0 min 0 W/m² -2,6 °C -4,6 °C 12,9 km/h (3 Bft)
03.01.2025 22:28 21,8 °C -0,2 °C 50 % 84 % 1016,9 hPa 0,0 l/m² 7,6 km/h (2 Bft) W-SW 258 ° 0 min 0 W/m² -2,6 °C -1,5 °C 12,9 km/h (3 Bft)
03.01.2025 22:29 21,8 °C -0,2 °C 50 % 84 % 1016,9 hPa 0,0 l/m² 8,7 km/h (2 Bft) W 259 ° 0 min 0 W/m² -2,6 °C -2,5 °C 11,3 km/h (2 Bft)
03.01.2025 22:31 21,8 °C -0,2 °C 50 % 84 % 1016,9 hPa 0,0 l/m² 5,7 km/h (2 Bft) W-SW 258 ° 0 min 0 W/m² -2,6 °C -0,2 °C 11,3 km/h (2 Bft)
03.01.2025 22:32 21,7 °C -0,2 °C 50 % 84 % 1016,9 hPa 0,0 l/m² 6,9 km/h (2 Bft) W-SW 257 ° 0 min 0 W/m² -2,6 °C -0,7 °C 11,3 km/h (2 Bft)
03.01.2025 22:33 21,7 °C -0,3 °C 50 % 84 % 1016,9 hPa 0,0 l/m² 6,2 km/h (2 Bft) W-SW 258 ° 0 min 0 W/m² -2,7 °C -0,3 °C 9,7 km/h (2 Bft)
03.01.2025 22:34 21,7 °C -0,3 °C 50 % 84 % 1016,9 hPa 0,0 l/m² 5,2 km/h (1 Bft) W-SW 258 ° 0 min 0 W/m² -2,7 °C -0,3 °C 6,4 km/h (2 Bft)
03.01.2025 22:35 21,7 °C -0,3 °C 50 % 84 % 1016,9 hPa 0,0 l/m² 8,2 km/h (2 Bft) W-SW 257 ° 0 min 0 W/m² -2,7 °C -2,2 °C 11,3 km/h (2 Bft)
03.01.2025 22:36 21,7 °C -0,3 °C 50 % 84 % 1016,9 hPa 0,0 l/m² 5,1 km/h (1 Bft) W-SW 257 ° 0 min 0 W/m² -2,7 °C -0,3 °C 8,0 km/h (2 Bft)
03.01.2025 22:37 21,7 °C -0,3 °C 50 % 84 % 1016,9 hPa 0,0 l/m² 6,5 km/h (2 Bft) W-SW 257 ° 0 min 0 W/m² -2,7 °C -0,4 °C 8,0 km/h (2 Bft)
03.01.2025 22:38 21,7 °C -0,3 °C 50 % 84 % 1016,9 hPa 0,0 l/m² 6,8 km/h (2 Bft) W-SW 256 ° 0 min 0 W/m² -2,7 °C -0,7 °C 8,0 km/h (2 Bft)
03.01.2025 22:39 21,7 °C -0,3 °C 50 % 84 % 1016,9 hPa 0,0 l/m² 10,7 km/h (2 Bft) W-SW 256 ° 0 min 0 W/m² -2,7 °C -4,4 °C 12,9 km/h (3 Bft)
03.01.2025 22:41 21,7 °C -0,4 °C 50 % 84 % 1016,9 hPa 0,0 l/m² 10,3 km/h (2 Bft) W-SW 252 ° 0 min 0 W/m² -2,8 °C -4,1 °C 12,9 km/h (3 Bft)
03.01.2025 22:43 21,7 °C -0,4 °C 50 % 84 % 1016,9 hPa 0,0 l/m² 10,9 km/h (2 Bft) W-SW 253 ° 0 min 0 W/m² -2,8 °C -4,6 °C 14,5 km/h (3 Bft)
03.01.2025 22:44 21,7 °C -0,4 °C 50 % 84 % 1016,9 hPa 0,0 l/m² 11,8 km/h (2 Bft) W 259 ° 0 min 0 W/m² -2,8 °C -5,3 °C 16,1 km/h (3 Bft)
03.01.2025 22:45 21,7 °C -0,4 °C 50 % 84 % 1017,0 hPa 0,0 l/m² 13,8 km/h (3 Bft) W-SW 255 ° 0 min 0 W/m² -2,8 °C -6,7 °C 17,7 km/h (3 Bft)
03.01.2025 22:46 21,7 °C -0,4 °C 50 % 84 % 1017,0 hPa 0,0 l/m² 10,6 km/h (2 Bft) W-SW 243 ° 0 min 0 W/m² -2,8 °C -4,4 °C 14,5 km/h (3 Bft)
03.01.2025 22:47 21,7 °C -0,5 °C 50 % 84 % 1017,0 hPa 0,0 l/m² 11,5 km/h (2 Bft) W-SW 250 ° 0 min 0 W/m² -2,9 °C -5,2 °C 14,5 km/h (3 Bft)
03.01.2025 22:48 21,7 °C -0,5 °C 50 % 84 % 1017,0 hPa 0,0 l/m² 12,3 km/h (2 Bft) W-SW 254 ° 0 min 0 W/m² -2,9 °C -5,8 °C 16,1 km/h (3 Bft)
03.01.2025 22:49 21,7 °C -0,6 °C 50 % 84 % 1017,0 hPa 0,0 l/m² 11,8 km/h (2 Bft) W-SW 255 ° 0 min 0 W/m² -3,0 °C -5,5 °C 14,5 km/h (3 Bft)
03.01.2025 22:51 21,7 °C -0,6 °C 50 % 85 % 1017,0 hPa 0,0 l/m² 12,4 km/h (2 Bft) W-SW 255 ° 0 min 0 W/m² -2,8 °C -6,0 °C 16,1 km/h (3 Bft)
03.01.2025 22:53 21,7 °C -0,6 °C 50 % 85 % 1017,1 hPa 0,0 l/m² 12,2 km/h (2 Bft) W-SW 257 ° 0 min 0 W/m² -2,8 °C -5,8 °C 16,1 km/h (3 Bft)
03.01.2025 22:54 21,7 °C -0,6 °C 50 % 85 % 1017,1 hPa 0,0 l/m² 11,9 km/h (2 Bft) W-SW 252 ° 0 min 0 W/m² -2,8 °C -5,6 °C 16,1 km/h (3 Bft)
03.01.2025 22:55 21,7 °C -0,6 °C 50 % 85 % 1017,1 hPa 0,0 l/m² 13,2 km/h (3 Bft) W-SW 246 ° 0 min 0 W/m² -2,8 °C -6,5 °C 16,1 km/h (3 Bft)
03.01.2025 22:56 21,7 °C -0,7 °C 50 % 85 % 1017,1 hPa 0,0 l/m² 12,4 km/h (2 Bft) W-SW 252 ° 0 min 0 W/m² -2,9 °C -6,1 °C 14,5 km/h (3 Bft)
03.01.2025 22:57 21,7 °C -0,7 °C 50 % 85 % 1017,2 hPa 0,0 l/m² 12,4 km/h (2 Bft) W-SW 249 ° 0 min 0 W/m² -2,9 °C -6,1 °C 16,1 km/h (3 Bft)
03.01.2025 22:58 21,7 °C -0,7 °C 50 % 85 % 1017,2 hPa 0,0 l/m² 10,8 km/h (2 Bft) W-SW 249 ° 0 min 0 W/m² -2,9 °C -4,9 °C 14,5 km/h (3 Bft)
03.01.2025 22:59 21,7 °C -0,7 °C 50 % 85 % 1017,3 hPa 0,0 l/m² 9,9 km/h (2 Bft) W-SW 246 ° 0 min 0 W/m² -2,9 °C -4,1 °C 12,9 km/h (3 Bft)
03.01.2025 23:01 21,7 °C -0,7 °C 50 % 85 % 1017,2 hPa 0,0 l/m² 11,0 km/h (2 Bft) W-SW 250 ° 0 min 0 W/m² -2,9 °C -5,0 °C 14,5 km/h (3 Bft)
03.01.2025 23:03 21,7 °C -0,7 °C 50 % 85 % 1017,2 hPa 0,0 l/m² 9,9 km/h (2 Bft) W-SW 251 ° 0 min 0 W/m² -2,9 °C -4,1 °C 14,5 km/h (3 Bft)
03.01.2025 23:04 21,7 °C -0,7 °C 50 % 85 % 1017,3 hPa 0,0 l/m² 9,8 km/h (2 Bft) W-SW 246 ° 0 min 0 W/m² -2,9 °C -4,1 °C 12,9 km/h (3 Bft)
03.01.2025 23:05 21,6 °C -0,7 °C 50 % 85 % 1017,4 hPa 0,0 l/m² 10,9 km/h (2 Bft) W-SW 244 ° 0 min 0 W/m² -2,9 °C -5,0 °C 14,5 km/h (3 Bft)
03.01.2025 23:06 21,7 °C -0,7 °C 50 % 85 % 1017,3 hPa 0,0 l/m² 10,9 km/h (2 Bft) W-SW 246 ° 0 min 0 W/m² -2,9 °C -5,0 °C 12,9 km/h (3 Bft)
03.01.2025 23:07 21,6 °C -0,8 °C 50 % 85 % 1017,4 hPa 0,0 l/m² 11,3 km/h (2 Bft) W-SW 248 ° 0 min 0 W/m² -3,0 °C -5,4 °C 16,1 km/h (3 Bft)
03.01.2025 23:08 21,7 °C -0,8 °C 50 % 85 % 1017,4 hPa 0,0 l/m² 11,8 km/h (2 Bft) W-SW 247 ° 0 min 0 W/m² -3,0 °C -5,8 °C 14,5 km/h (3 Bft)
03.01.2025 23:09 21,7 °C -0,8 °C 50 % 85 % 1017,4 hPa 0,0 l/m² 11,0 km/h (2 Bft) W-SW 244 ° 0 min 0 W/m² -3,0 °C -5,2 °C 12,9 km/h (3 Bft)
03.01.2025 23:11 21,6 °C -0,8 °C 50 % 85 % 1017,5 hPa 0,0 l/m² 9,7 km/h (2 Bft) W-SW 240 ° 0 min 0 W/m² -3,0 °C -4,1 °C 12,9 km/h (3 Bft)
03.01.2025 23:13 21,7 °C -0,8 °C 50 % 84 % 1017,4 hPa 0,0 l/m² 8,2 km/h (2 Bft) W-SW 239 ° 0 min 0 W/m² -3,2 °C -2,7 °C 12,9 km/h (3 Bft)
03.01.2025 23:14 21,6 °C -0,8 °C 50 % 84 % 1017,5 hPa 0,0 l/m² 9,1 km/h (2 Bft) W-SW 242 ° 0 min 0 W/m² -3,2 °C -3,5 °C 12,9 km/h (3 Bft)
03.01.2025 23:15 21,6 °C -0,8 °C 50 % 84 % 1017,5 hPa 0,0 l/m² 9,3 km/h (2 Bft) W-SW 239 ° 0 min 0 W/m² -3,2 °C -3,7 °C 14,5 km/h (3 Bft)
03.01.2025 23:16 21,6 °C -0,9 °C 50 % 84 % 1017,6 hPa 0,0 l/m² 8,0 km/h (2 Bft) W-SW 247 ° 0 min 0 W/m² -3,3 °C -2,6 °C 12,9 km/h (3 Bft)
03.01.2025 23:17 21,6 °C -0,9 °C 50 % 84 % 1017,6 hPa 0,0 l/m² 8,0 km/h (2 Bft) SW 225 ° 0 min 0 W/m² -3,3 °C -2,6 °C 9,7 km/h (2 Bft)
03.01.2025 23:18 21,6 °C -0,9 °C 50 % 84 % 1017,6 hPa 0,0 l/m² 8,0 km/h (2 Bft) SW 225 ° 0 min 0 W/m² -3,3 °C -2,6 °C 9,7 km/h (2 Bft)
03.01.2025 23:23 21,6 °C -1,0 °C 50 % 84 % 1017,7 hPa 0,0 l/m² 8,5 km/h (2 Bft) SW 229 ° 0 min 0 W/m² -3,4 °C -3,2 °C 11,3 km/h (2 Bft)
03.01.2025 23:25 21,6 °C -1,0 °C 50 % 84 % 1017,7 hPa 0,0 l/m² 8,0 km/h (2 Bft) SW 225 ° 0 min 0 W/m² -3,4 °C -2,7 °C 11,3 km/h (2 Bft)
03.01.2025 23:26 21,6 °C -1,1 °C 50 % 84 % 1017,7 hPa 0,0 l/m² 6,8 km/h (2 Bft) SW 223 ° 0 min 0 W/m² -3,4 °C -1,5 °C 9,7 km/h (2 Bft)
03.01.2025 23:28 21,6 °C -1,1 °C 50 % 84 % 1017,7 hPa 0,0 l/m² 6,4 km/h (2 Bft) S-SW 205 ° 0 min 0 W/m² -3,4 °C -1,1 °C 8,0 km/h (2 Bft)
03.01.2025 23:30 21,6 °C -1,1 °C 50 % 84 % 1017,8 hPa 0,0 l/m² 8,0 km/h (2 Bft) S-SW 202 ° 0 min 0 W/m² -3,4 °C -2,8 °C 9,7 km/h (2 Bft)
03.01.2025 23:31 21,6 °C -1,1 °C 50 % 84 % 1017,8 hPa 0,0 l/m² 8,3 km/h (2 Bft) S-SW 202 ° 0 min 0 W/m² -3,4 °C -3,1 °C 9,7 km/h (2 Bft)
03.01.2025 23:32 21,6 °C -1,2 °C 50 % 84 % 1017,8 hPa 0,0 l/m² 8,7 km/h (2 Bft) S-SW 202 ° 0 min 0 W/m² -3,5 °C -3,6 °C 9,7 km/h (2 Bft)
03.01.2025 23:34 21,6 °C -1,2 °C 50 % 84 % 1017,8 hPa 0,0 l/m² 8,5 km/h (2 Bft) S-SW 198 ° 0 min 0 W/m² -3,5 °C -3,4 °C 11,3 km/h (2 Bft)
03.01.2025 23:36 21,6 °C -1,2 °C 50 % 84 % 1017,7 hPa 0,0 l/m² 8,3 km/h (2 Bft) S-SW 198 ° 0 min 0 W/m² -3,5 °C -3,2 °C 11,3 km/h (2 Bft)
03.01.2025 23:38 21,6 °C -1,3 °C 50 % 84 % 1017,7 hPa 0,0 l/m² 7,8 km/h (2 Bft) S-SW 199 ° 0 min 0 W/m² -3,6 °C -2,8 °C 9,7 km/h (2 Bft)
03.01.2025 23:40 21,6 °C -1,3 °C 50 % 84 % 1017,7 hPa 0,0 l/m² 8,2 km/h (2 Bft) S-SW 205 ° 0 min 0 W/m² -3,6 °C -3,2 °C 9,7 km/h (2 Bft)
03.01.2025 23:41 21,6 °C -1,4 °C 50 % 84 % 1017,7 hPa 0,0 l/m² 7,9 km/h (2 Bft) S-SW 209 ° 0 min 0 W/m² -3,7 °C -3,0 °C 9,7 km/h (2 Bft)
03.01.2025 23:42 21,6 °C -1,4 °C 50 % 84 % 1017,7 hPa 0,0 l/m² 8,4 km/h (2 Bft) S-SW 207 ° 0 min 0 W/m² -3,7 °C -3,5 °C 9,7 km/h (2 Bft)
03.01.2025 23:44 21,6 °C -1,5 °C 50 % 84 % 1017,7 hPa 0,0 l/m² 9,3 km/h (2 Bft) S-SW 208 ° 0 min 0 W/m² -3,8 °C -4,5 °C 11,3 km/h (2 Bft)
03.01.2025 23:46 21,6 °C -1,6 °C 50 % 85 % 1017,7 hPa 0,0 l/m² 9,6 km/h (2 Bft) SW 214 ° 0 min 0 W/m² -3,8 °C -4,9 °C 12,9 km/h (3 Bft)
03.01.2025 23:48 21,6 °C -1,6 °C 50 % 85 % 1017,7 hPa 0,0 l/m² 9,7 km/h (2 Bft) S-SW 213 ° 0 min 0 W/m² -3,8 °C -5,0 °C 11,3 km/h (2 Bft)
03.01.2025 23:50 21,6 °C -1,7 °C 50 % 85 % 1017,7 hPa 0,0 l/m² 8,3 km/h (2 Bft) SW 215 ° 0 min 0 W/m² -3,9 °C -3,7 °C 9,7 km/h (2 Bft)
03.01.2025 23:51 21,6 °C -1,7 °C 50 % 85 % 1017,8 hPa 0,0 l/m² 9,4 km/h (2 Bft) S-SW 211 ° 0 min 0 W/m² -3,9 °C -4,8 °C 12,9 km/h (3 Bft)
03.01.2025 23:52 21,6 °C -1,7 °C 50 % 85 % 1017,8 hPa 0,0 l/m² 10,4 km/h (2 Bft) SW 218 ° 0 min 0 W/m² -3,9 °C -5,7 °C 12,9 km/h (3 Bft)
03.01.2025 23:55 21,6 °C -1,7 °C 50 % 85 % 1017,8 hPa 0,0 l/m² 7,5 km/h (2 Bft) SW 229 ° 0 min 0 W/m² -3,9 °C -2,9 °C 12,9 km/h (3 Bft)
03.01.2025 23:57 21,6 °C -1,8 °C 50 % 85 % 1017,8 hPa 0,0 l/m² 6,9 km/h (2 Bft) SW 222 ° 0 min 0 W/m² -4,0 °C -2,3 °C 11,3 km/h (2 Bft)
03.01.2025 23:59 21,6 °C -1,8 °C 50 % 85 % 1017,9 hPa 0,0 l/m² 5,2 km/h (1 Bft) SW 227 ° 0 min 0 W/m² -4,0 °C -1,8 °C 9,7 km/h (2 Bft)
_ Min-Zeit 19:44 23:59 16:50 15:42 14:46 - 22:36 - - - - 23:59 16:56 22:34
Minimum _ 21,3 °C -1,8 °C 47 % 72 % 1011,1 hPa - 5,1 km/h (1 Bft) - - - - -4,0 °C -14,0 °C 6,4 km/h (2 Bft)
_ Max-Zeit 21:49 12:45 09:18 11:29 23:59 11:12 16:15 - - 13:43 12:19 12:21 20:28 17:07
Maximum _ 22,0 °C 3,9 °C 55 % 91 % 1017,9 hPa 0,2 l/m² 44,0 km/h
W-SW (6 Bft)
- - 5 min 376 W/m² 0,7 °C 0,6 °C 56,3 km/h
W-SW (7 Bft)
Durchschnitt _ 21,6 °C 1,6 °C 52 % 85 % 1013,9 hPa #0,2 l/m² 19,4 km/h (3 Bft) SW - #5:35 h 34 W/m² -0,7 °C -6,7 °C 26,3 km/h (4 Bft)
© 2009 Mathias Hoßbach